     2              OBSERVATION DATA    GPS                 RINEX VERSION / TYPE
teqc 1999Jul19 19991123 02:50:34UTC                         PGM / RUN BY / DATE
                                                            COMMENT
Original Marker Name: HPGN                                  COMMENT
Campaign Name: HPGN 1991                                    COMMENT
4-Character Station Name: 0221                              COMMENT
6-Character Antenna Code: TRMSST                            COMMENT
Vertical Measurement Point: TGP                             COMMENT
Vertical Offset to Rinex Ref. Point: 0.0629                 COMMENT
Radial Measurement Point: OGP                               COMMENT
Radial Offset to Rinex Ref. Point: 0.2413                   COMMENT
Antenna Height from Field Measurement: 1.7060 m             COMMENT
                                                            COMMENT
Original XYZ: -2646164.3008 -4084665.0358 4109904.1632      COMMENT
New XYZ position is based on association with SCEC monument COMMENT
E1O6F8K0+0011. Position of that monument is believed to be  COMMENT
valid to within 1 m horizontally; vertical accuracy         COMMENT
should be no worse than 3-times this value.                 COMMENT
                                                            COMMENT
Revised Rinex header created by UCSD GPS archive for        COMMENT
GSAC on 10-Mar-2000 (2000:070) 04:43:01 GMT                 COMMENT
For assistance contact dagnew@ucsd.edu or hjohnson@ucsd.edu COMMENT
                                                            COMMENT
HPGN CA 02 21                                               MARKER NAME
HPGN                                                        MARKER NUMBER
-Unknown- CALIF DEPT TRANSPORTATION                         OBSERVER / AGENCY
282 TRIMBLE 4000 SST NP 4.30 / SP 4.20                      REC # / TYPE / VERS
136 TR 4000SST L1/L2 GEO                                    ANT # / TYPE
 -2646166.5243 -4084658.6461  4109900.5162                  APPROX POSITION XYZ
        1.6259        0.0000        0.0000                  ANTENNA: DELTA H/E/N
     1     1     0                                          WAVELENGTH FACT L1/2
     5    C1    L1    L2    S1    S2                        # / TYPES OF OBSERV
     0                                                      INTERVAL
  1991     7    26     0    35   15.000000                  TIME OF FIRST OBS
  1991     7    26     7    34   60.000000                  TIME OF LAST OBS
                                                            END OF HEADER
 91  7 26  0 35 15.0000000  0  5G 3G16G17G20G23
  20653446.398          -0.11517        -0.26332        26.000           2.188
  22251650.172          -0.40016        -0.19432        17.750           1.563
  21010270.703          -0.52217        -0.28334        24.750           3.781
  22915362.641          -0.33216        -0.12031        13.250           0.813
  24310723.445          -0.23314        -0.24131         7.000           0.375
 91  7 26  0 35 30.0000000  0  5G 3G16G17G20G23
  20649965.078      -18299.950 7    -14259.87022        26.500           2.094
  22256892.578       27549.894 6     21467.55922        17.500           1.594
  21005004.258      -27684.710 7    -21572.34624        25.250           3.750
  22924294.297       46978.216 6     36606.45621        12.250           0.781
  24299280.859      -60149.752 4    -46869.67121         6.750           0.250
 91  7 26  0 35 45.0000000  0  5G 3G16G17G20G23
  20646482.531      -36593.583 7    -28514.63022        25.500           2.188
  22262144.359       55141.787 6     42967.73222        18.000           1.500
  20999739.680      -55354.323 7    -43133.05724        25.250           3.781
  22933234.000       93943.188 6     73202.45321        12.250           0.844
  24287828.836     -120341.874 5    -93772.31021         7.500           0.281
 91  7 26  0 36  0.0000000  0  5G 3G16G17G20G23
  20643006.648      -54857.802 7    -42746.47522        25.500           2.219
  22267409.102       82797.980 6     64518.00021        18.250           1.375
  20994480.102      -82986.539 7    -64664.62024        24.250           3.813
  22942171.070      140917.156 6    109805.47021        12.250           0.813
  24276371.172     -180553.252 4   -140689.99721         7.250           0.250
 91  7 26  0 36 15.0000000  0  5G 3G16G17G20G23
  20639537.422      -73087.447 7    -56951.37122        25.250           2.281
  22272684.172      110523.068 6     86121.95721        18.500           1.438
  20989231.375     -110576.116 7    -86162.96124        24.750           3.844
  22951113.281      187904.874 6    146419.18321        12.000           0.750
  24264907.227     -240778.577 4   -187618.50421         7.250           0.313
 91  7 26  0 36 30.0000000  0  5G 3G16G17G20G23
  20636074.945      -91275.411 7    -71123.79622        24.750           2.250
  22277975.273      138323.997 6    107785.01722        18.750           1.531
  20983992.094     -138116.297 7   -107622.81624        25.750           3.844
  22960054.711      234912.684 5    183048.55821        11.750           0.875
  24253442.211     -301010.781 4   -234552.40321         7.250           0.219
 91  7 26  0 36 45.0000000  0  5G 3G16G17G20G23
  20632625.078     -109412.433 7    -85256.53322        25.000           2.313
  22283281.742      166208.984 6    129513.57821        18.250           1.469
  20978760.844     -165598.429 7   -129037.43124        25.500           3.844
  22969011.313      281949.149 6    219700.27421        12.750           0.906
  24241981.273     -361240.560 4   -281484.42421         7.250           0.219
 91  7 26  0 37  0.0000000  0  5G 3G16G17G20G23
  20629183.570     -127497.348 7    -99348.65922        25.250           2.406
  22288601.711      194179.322 6    151308.65021        18.000           1.469
  20973542.750     -193020.921 7   -150405.58224        25.500           3.625
  22977967.414      329015.422 6    256375.20721        12.750           0.875
  24230523.523     -421466.170 5   -328413.17021         7.500           0.250
 91  7 26  0 37 15.0000000  0  5G 3G16G17G20G23
  20625751.789     -145529.351 7   -113399.55422        25.500           2.344
  22293939.953      222235.122 6    173170.30321        17.000           1.406
  20968333.805     -220383.376 7   -171726.94924        24.750           3.906
  22986930.016      376111.301 6    293073.21421        13.500           0.813
  24219064.234     -481687.034 5   -375338.22921         8.000           0.250
 91  7 26  0 37 30.0000000  0  5G 3G16G17G20G23
  20622333.430     -163507.776 7   -127408.70222        25.500           2.313
  22299296.758      250376.535 6    195098.65821        18.000           1.438
  20963138.680     -247685.216 7   -193001.08724        24.500           4.000
  22995896.313      423237.083 6    329794.50421        14.000           0.938
  24207610.070     -541902.325 5   -422258.99121         8.500           0.281
 91  7 26  0 37 45.0000000  0  5G 3G16G17G20G23
  20618919.750     -181434.441 7   -141377.52422        25.250           2.313
  22304666.406      278600.931 6    217091.68621        18.000           1.250
  20957954.063     -274928.827 7   -214229.84424        24.250           3.969
  23004871.680      470390.189 6    366537.09421        14.500           0.938
  24196149.727     -602114.092 5   -469176.96921         8.500           0.313
 91  7 26  0 38  0.0000000  0  5G 3G16G17G20G23
  20615520.484     -199305.513 7   -155303.02122        25.000           2.156
  22310055.344      306911.966 6    239152.23521        18.250           1.344
  20952780.477     -302110.058 7   -235410.00223        24.500           3.375
  23013848.898      517573.996 6    403303.64221        13.750           0.750
  24184688.414     -662318.256 5   -516088.96921         8.500           0.344
 91  7 26  0 38 15.0000000  0  5G 3G16G17G20G23
  20612131.453     -217121.542 7   -169185.63322        24.750           2.281
  22315457.055      335308.774 6    261279.60621        18.250           1.438
  20947623.414     -329229.844 7   -256542.27523        25.250           3.250
  23022830.633      564787.506 6    440093.32721        14.000           0.625
  24173237.547     -722515.178 4   -562995.38221         6.500           0.344
 91  7 26  0 38 30.0000000  0  5G 3G16G17G20G23
  20608751.109     -234880.446 7   -183023.72722        25.000           2.281
  22320879.094      363792.833 6    283474.97221        17.750           1.281
  20942472.609     -356286.339 7   -277625.23123        25.750           3.344
  23031824.117      612032.134 6    476907.21821        13.250           0.750
  24161781.516     -782702.548 5   -609894.40921         8.250           0.250
 91  7 26  0 38 45.0000000  0  5G 3G16G17G20G23
  20605383.063     -252578.686 7   -196814.55422        24.750           2.219
  22326314.313      392367.052 6    305740.58721        17.750           1.344
  20937337.719     -383276.435 7   -298656.44623        26.000           3.375
  23040814.898      659310.881 6    513747.70121        12.750           0.719
  24150329.523     -842877.030 5   -656783.34421         8.500           0.219
 91  7 26  0 39  0.0000000  0  5G 3G16G17G20G23
  20602025.859     -270221.729 7   -210562.37422        24.500           2.219
  22331768.938      421025.745 6    328072.03221        17.250           1.469
  20932212.289     -410205.682 7   -319640.25823        25.750           3.344
  23049823.578      706617.725 6    550610.09621        13.750           0.844
  24138885.883     -903043.857 5   -703666.34721         8.500           0.313
 91  7 26  0 39 15.0000000  0  5G 3G16G17G20G23
  20598679.813     -287811.111 7   -224268.37022        25.000           2.156
  22337239.781      449766.663 6    350467.54321        17.750           1.281
  20927098.586     -437075.684 7   -340577.89423        25.250           3.438
  23058832.805      753950.628 6    587492.77121        13.750           0.781
  24127428.914     -963204.607 5   -750544.60021         7.750           0.219
 91  7 26  0 39 30.0000000  0  5G 3G16G17G20G23
  20595341.914     -305344.089 7   -237930.42322        25.000           2.156
  22342726.344      478592.050 6    372928.87821        17.750           1.250
  20921997.641     -463883.768 7   -361467.28524        24.750           3.531
  23067845.703      801311.632 6    624397.36621        14.000           0.719
  24115987.617    -1023356.503 5   -797415.90521         8.000           0.250
 91  7 26  0 39 45.0000000  0  5G 3G16G17G20G23
  20592016.586     -322822.741 7   -251550.14922        25.250           2.125
  22348225.047      507499.298 6    395454.00121        17.750           1.375
  20916908.805     -490632.427 7   -382310.37324        25.250           3.500
  23076862.047      848697.982 6    661321.69221        13.750           0.781
  24104544.328    -1083501.633 5   -844282.01321         8.000           0.188
 91  7 26  0 40  0.0000000  0  5G 3G16G17G20G23
  20588701.656     -340247.912 7   -265128.20022        25.500           2.063
  22353744.547      536487.365 6    418042.10121        17.500           1.344
  20911829.586     -517322.583 7   -403107.87624        25.250           3.500
  23085878.695      896108.637 6    698264.97321        12.750           0.813
  24093098.875    -1143640.428 5   -891143.15321         8.250           0.250
 91  7 26  0 40 15.0000000  0  5G 3G16G17G20G23
  20585393.438     -357618.878 7   -278664.01122        24.750           2.031
  22359272.508      565556.289 6    440693.19621        17.250           1.406
  20906759.508     -543953.557 7   -423859.26223        25.500           3.313
  23094905.461      943543.626 6    735227.21821        12.250           0.781
  24081657.898    -1203772.171 5   -937998.76221         8.500           0.313
 91  7 26  0 40 30.0000000  0  5G 3G16G17G20G23
  20582101.031     -374928.151 7   -292151.74622        25.000           2.125
  22364821.680      594712.729 6    463412.49321        17.500           1.313
  20901706.375     -570518.624 7   -444559.29523        25.500           3.313
  23103937.156      991009.606 6    772213.60821        12.000           0.719
  24070214.867    -1263889.378 5   -984843.09021         8.000           0.281
 91  7 26  0 40 45.0000000  0  5G 3G16G17G20G23
  20578817.539     -392181.494 7   -305595.89622        24.500           2.156
  22370385.758      623950.625 6    486195.25721        17.500           1.406
  20896662.547     -597023.465 7   -465212.39923        25.500           3.438
  23112982.227     1038500.412 6    809219.33421        12.750           0.625
  24058770.406    -1323997.400 5  -1031680.24721         7.750           0.250
 91  7 26  0 41  0.0000000  0  5G 3G16G17G20G23
  20575543.945     -409386.459 7   -319002.35522        25.000           2.219
  22375960.531      653262.552 6    509035.71221        17.250           1.250
  20891628.328     -623475.646 7   -485824.46124        25.500           3.625
  23122021.203     1086007.974 6    846238.11821        13.250           0.781
  24047342.203    -1384104.006 5  -1078516.30921         7.750           0.344
 91  7 26  0 41 15.0000000  0  5G 3G16G17G20G23
  20572279.047     -426540.364 7   -332369.02422        24.750           2.063
  22381555.820      682650.159 6    531935.13621        17.250           1.219
  20886604.922     -649872.720 7   -506393.59324        25.750           3.563
  23131063.422     1133534.427 6    883271.62121        12.500           0.625
  24035897.586    -1444206.404 5  -1125349.07821         7.500           0.281
 91  7 26  0 41 30.0000000  0  5G 3G16G17G20G23
  20569024.922     -443643.704 7   -345696.29322        24.750           2.250
  22387159.711      712112.387 6    554892.70421        17.750           1.313
  20881593.703     -676215.664 7   -526920.54524        26.250           3.656
  23140109.195     1181078.786 5    920319.07521        11.750           0.625
  24024465.680    -1504305.217 5  -1172179.05121         8.000           0.188
 91  7 26  0 41 45.0000000  0  5G 3G16G17G20G23
  20565779.594     -460693.597 7   -358981.91622        24.000           2.219
  22392784.406      741651.807 6    577910.42321        18.500           1.313
  20876590.180     -702501.621 7   -547403.08424        26.500           3.625
  23149161.594     1228643.486 6    957382.37721        12.250           0.594
  24013031.445    -1564397.144 5  -1219003.66521         7.500           0.313
 91  7 26  0 42  0.0000000  0  5G 3G16G17G20G23
  20562542.852     -477693.402 7   -372228.51122        23.500           2.313
  22398419.055      771264.228 6    600985.03521        18.250           1.281
  20871600.203     -728734.138 7   -567843.98923        26.750           3.469
  23158215.281     1276223.984 5    994457.97921        11.750           0.594
  24001592.680    -1624485.847 5  -1265825.76821         7.750           0.281
 91  7 26  0 42 15.0000000  0  5G 3G16G17G20G23
  20559319.742     -494646.593 7   -385438.78022        24.750           2.156
  22404068.172      800945.850 6    624113.56621        18.500           1.344
  20866615.461     -754916.896 7   -588246.11823        25.250           3.438
  23167269.086     1323816.586 5   1031543.04021        11.500           0.688
  23990160.016    -1684574.521 5  -1312647.84121         8.000           0.313
 91  7 26  0 42 30.0000000  0  5G 3G16G17G20G23
  20556103.102     -511548.999 7   -398609.47422        25.500           2.156
  22409728.703      830700.567 6    647299.03821        17.750           1.188
  20861643.305     -781045.853 7   -608606.32423        24.750           3.344
  23176331.320     1371425.265 5   1068640.60421        11.250           0.625
  23978730.680    -1744658.765 5  -1359466.45721         8.250           0.313
 91  7 26  0 42 45.0000000  0  5G 3G16G17G20G23
  20552896.141     -528397.736 7   -411738.35322        24.750           2.188
  22415405.781      860530.591 6    670543.19921        17.750           1.094
  20856682.172     -807118.628 7   -628922.74723        25.750           3.469
  23185397.328     1419052.017 5   1105752.27121        11.500           0.563
  23967290.711    -1804735.881 4  -1406279.52521         7.000           0.375
 91  7 26  0 43  0.0000000  0  5G 3G16G17G20G23
  20549700.414     -545193.016 7   -424825.57422        24.500           2.156
  22421097.359      890435.127 6    693845.42821        18.000           1.156
  20851732.016     -833135.286 7   -649195.44924        25.750           3.500
  23194460.734     1466696.270 5   1142877.54921        11.500           0.625
  23955856.680    -1864805.750 4  -1453086.97221         7.000           0.375
 91  7 26  0 43 15.0000000  0  5G 3G16G17G20G23
  20546514.703     -561935.775 7   -437871.86522        25.250           2.156
  22426800.008      920412.900 6    717204.71121        17.250           1.188
  20846791.641     -859097.186 7   -669425.47823        25.500           3.438
  23203531.758     1514356.501 5   1180015.29021        11.750           0.688
  23944427.742    -1924869.180 4  -1499889.38821         7.250           0.313
 91  7 26  0 43 30.0000000  0  5G 3G16G17G20G23
  20543339.852     -578626.194 7   -450877.37422        25.750           2.156
  22432519.727      950463.382 6    740620.66521        17.500           1.125
  20841861.828     -885004.452 7   -689612.93523        25.750           3.313
  23212606.117     1562031.934 5   1217164.88221        11.750           0.656
  23933000.813    -1984926.380 4  -1546686.95021         7.250           0.281
 91  7 26  0 43 45.0000000  0  5G 3G16G17G20G23
  20540170.492     -595271.078 7   -463847.40922        25.250           2.250
  22438251.844      980578.807 6    764087.22621        18.500           1.250
  20836940.688     -910864.298 7   -709763.45123        26.000           3.375
  23221677.203     1609714.808 5   1254320.25221        11.250           0.688
  23921566.125    -2044984.360 4  -1593485.11821         7.000           0.375
 91  7 26  0 44  0.0000000  0  5G 3G16G17G20G23
  20537012.984     -611865.185 7   -476777.86522        25.000           2.188
  22443995.797     1010764.376 6    787608.43521        17.750           1.281
  20832029.180     -936671.866 7   -729873.21923        25.750           3.344
  23230753.203     1657410.064 5   1291485.28821        11.500           0.656
  23910144.828    -2105037.579 5  -1640279.60221         7.750           0.344
 91  7 26  0 44 15.0000000  0  5G 3G16G17G20G23
  20533863.836     -628415.665 7   -489674.33222        25.000           2.125
  22449751.828     1041012.193 6    811178.14921        17.250           1.031
  20827126.914     -962434.287 7   -749947.80923        25.750           3.375
  23239833.148     1705109.942 5   1328653.91221        11.750           0.625
  23898717.164    -2165093.186 5  -1687075.91321         8.000           0.344
 91  7 26  0 44 30.0000000  0  5G 3G16G17G20G23
  20530722.656     -644921.690 7   -502536.16122        25.250           2.281
  22455515.703     1071322.550 6    834796.60121        16.500           1.094
  20822232.281     -988151.112 7   -769986.87623        26.000           3.375
  23248910.875     1752814.779 5   1365826.39521        11.750           0.594
  23887285.922    -2225150.280 5  -1733873.39821         8.000           0.375
 91  7 26  0 44 45.0000000  0  5G 3G16G17G20G23
  20527591.516     -661379.395 7   -515360.33022        25.000           2.313
  22461297.914     1101699.069 6    858466.59821        17.250           1.156
  20817351.156    -1013818.296 7   -789987.26023        26.000           3.469
  23257988.469     1800528.019 5   1403005.43421        11.500           0.656
  23875861.258    -2285204.718 5  -1780668.81521         8.250           0.375
 91  7 26  0 45  0.0000000  0  5G 3G16G17G20G23
  20524467.711     -677790.047 7   -528147.83722        24.750           2.219
  22467088.477     1132139.544 6    882186.44721        16.250           1.188
  20812472.758    -1039437.699 7   -809950.40124        26.250           3.500
  23267068.594     1848247.742 5   1440189.53521        11.750           0.531
  23864431.586    -2345257.809 5  -1827463.20521         8.500           0.344
 91  7 26  0 45 15.0000000  0  5G 3G16G17G20G23
  20521352.594     -694156.767 7   -540901.11722        24.250           2.125
  22472894.516     1162640.492 6    905953.39521        16.750           1.156
  20807607.617    -1065012.736 7   -829878.98224        26.500           3.563
  23276154.531     1895970.078 6   1477375.65621        12.250           0.563
  23853005.227    -2405312.709 5  -1874258.98021         8.500           0.344
 91  7 26  0 45 30.0000000  0  5G 3G16G17G20G23
  20518249.523     -710474.223 7   -553616.00322        25.500           2.188
  22478710.219     1193207.144 6    929771.55421        16.750           1.156
  20802749.453    -1090538.135 7   -849768.87924        25.500           3.500
  23285234.125     1943700.015 6   1514567.71321        12.500           0.531
  23841577.734    -2465363.765 5  -1921051.77221         8.750           0.313
 91  7 26  0 45 45.0000000  0  5G 3G16G17G20G23
  20515152.156     -726742.892 7   -566292.88822        25.000           2.219
  22484540.031     1223838.296 6    953639.96821        16.500           1.188
  20797899.945    -1116014.625 7   -869620.66323        25.000           3.438
  23294321.430     1991436.392 6   1551764.78221        12.500           0.500
  23830153.039    -2525411.630 5  -1967842.08221         9.000           0.344
 91  7 26  0 46  0.0000000  0  5G 3G16G17G20G23
  20512065.336     -742964.533 7   -578933.11022        25.500           2.125
  22490380.484     1254531.730 6    977556.90921        16.750           1.063
  20793061.945    -1141443.862 7   -889435.62423        24.500           3.219
  23303399.930     2039176.850 6   1588965.01521        12.500           0.500
  23818718.891    -2585457.886 5  -2014631.12721         8.500           0.281
 91  7 26  0 46 15.0000000  0  5G 3G16G17G20G23
  20508986.922     -759137.706 7   -591535.57222        25.000           2.188
  22496232.820     1285288.019 6   1001522.84621        16.500           1.125
  20788231.602    -1166824.862 7   -909213.00323        24.750           3.313
  23312489.625     2086922.285 6   1626169.15221        12.750           0.438
  23807293.609    -2645500.875 5  -2061417.63421         8.750           0.313
 91  7 26  0 46 30.0000000  0  5G 3G16G17G20G23
  20505917.641     -775266.954 7   -604103.79722        24.500           2.125
  22502099.164     1316102.528 6   1025534.13621        17.000           1.094
  20783409.758    -1192162.144 7   -928956.31923        24.750           3.188
  23321573.867     2134667.795 6   1663373.33721        12.750           0.406
  23795872.930    -2705545.068 5  -2108205.08521         9.250           0.281
 91  7 26  0 46 45.0000000  0  5G 3G16G17G20G23
  20502858.703     -791349.342 7   -616635.52022        24.250           2.219
  22507972.680     1346977.306 6   1049592.40221        17.000           1.219
  20778599.398    -1217453.168 7   -948663.58623        25.500           3.250
  23330661.289     2182415.690 6   1700579.35521        12.500           0.531
  23784448.945    -2765587.581 5  -2154991.21721         8.500           0.313
 91  7 26  0 47  0.0000000  0  5G 3G16G17G20G23
  20499805.273     -807386.436 7   -629131.94922        23.250           2.094
  22513859.438     1377910.402 6   1073696.09021        17.000           1.219
  20773793.555    -1242699.954 7   -968336.38123        25.500           3.188
  23339747.266     2230163.626 6   1737785.43721        12.750           0.500
  23773020.055    -2825630.003 5  -2201777.29221         8.750           0.188
 91  7 26  0 47 15.0000000  0  5G 3G16G17G20G23
  20496762.961     -823377.471 7   -641592.48622        23.500           2.156
  22519755.320     1408902.346 6   1097845.64421        16.750           1.219
  20768999.344    -1267901.527 7   -987973.94623        25.500           3.188
  23348834.719     2277912.181 6   1774991.99221        13.000           0.469
  23761595.727    -2885671.281 5  -2248562.47021         9.500           0.406
 91  7 26  0 47 30.0000000  0  5G 3G16G17G20G23
  20493730.844     -839314.568 7   -654010.98922        24.000           2.188
  22525670.680     1439960.339 6   1122046.66621        17.750           1.156
  20764212.211    -1293050.583 7  -1007570.58623        24.750           3.125
  23357917.672     2325668.177 6   1812204.33221        12.500           0.438
  23750170.281    -2945703.821 5  -2295340.87121         9.500           0.313
 91  7 26  0 47 45.0000000  0  5G 3G16G17G20G23
  20490708.273     -855192.441 7   -666383.34622        23.750           2.094
  22531592.656     1471089.070 6   1146302.81321        17.250           1.250
  20759438.195    -1318141.856 7  -1027122.20523        24.500           3.250
  23367015.484     2373436.552 6   1849426.33721        13.000           0.594
  23738745.805    -3005722.032 5  -2342108.07421         9.500           0.219
 91  7 26  0 48  0.0000000  0  5G 3G16G17G20G23
  20487695.008     -871022.068 7   -678718.11022        23.000           2.094
  22537525.125     1502276.930 6   1170605.02721        16.500           1.281
  20754672.453    -1343186.675 7  -1046637.62423        25.250           3.313
  23376100.844     2421205.778 6   1886648.99221        13.000           0.625
  23727322.852    -3065736.855 5  -2388872.65721         9.250           0.344
 91  7 26  0 48 15.0000000  0  5G 3G16G17G20G23
  20484691.992     -886809.690 7   -691020.14022        23.250           2.125
  22543472.219     1533517.640 6   1194948.42021        17.500           1.250
  20749913.039    -1368191.286 7  -1066121.71323        25.500           3.219
  23385189.336     2468969.236 6   1923867.15021        12.500           0.531
  23715903.906    -3125754.113 5  -2435639.13921         9.250           0.375
 91  7 26  0 48 30.0000000  0  5G 3G16G17G20G23
  20481695.727     -902556.938 7   -703290.71622        23.500           2.156
  22549424.164     1564808.813 6   1219331.14121        16.500           1.094
  20745163.102    -1393157.433 7  -1085575.83323        25.500           3.281
  23394275.375     2516724.485 6   1961078.92121        12.250           0.563
  23704486.328    -3185775.779 5  -2482409.05421         9.750           0.375
 91  7 26  0 48 45.0000000  0  5G 3G16G17G20G23
  20478708.273     -918253.457 7   -715521.76322        23.500           2.188
  22555393.406     1596160.169 6   1243760.74921        18.000           1.156
  20740420.266    -1418075.352 7  -1104992.37023        25.000           3.313
  23403368.281     2564481.279 6   1998291.89621        12.750           0.500
  23693061.156    -3245791.396 5  -2529174.25521         9.250           0.500
 91  7 26  0 49  0.0000000  0  5G 3G16G17G20G23
  20475730.656     -933896.048 7   -727710.77722        23.500           2.156
  22561371.852     1627574.621 6   1268239.53621        17.500           1.125
  20735689.594    -1442941.622 7  -1124368.66223        25.250           3.375
  23412453.891     2612242.535 6   2035508.33821        12.750           0.500
  23681644.453    -3305797.370 5  -2575931.93321        10.000           0.438
 91  7 26  0 49 15.0000000  0  5G 3G16G17G20G23
  20472764.766     -949488.552 7   -739860.76322        23.500           2.219
  22567358.508     1659047.577 6   1292763.91021        16.250           1.031
  20730967.859    -1467760.481 7  -1143708.00823        25.500           3.313
  23421546.563     2660003.623 6   2072724.66921        12.500           0.438
  23670227.656    -3365797.807 5  -2622685.31321        10.750           0.344
 91  7 26  0 49 30.0000000  0  5G 3G16G17G20G23
  20469806.797     -965032.580 7   -751972.98422        23.750           2.063
  22573359.664     1690576.912 6   1317332.20021        17.500           1.063
  20726252.836    -1492533.923 7  -1163011.96723        25.000           3.281
  23430635.688     2707762.322 6   2109939.11621        12.500           0.531
  23658816.180    -3425794.236 5  -2669435.56221        10.750           0.531
 91  7 26  0 49 45.0000000  0  5G 3G16G17G20G23
  20466858.375     -980520.946 7   -764041.83122        24.250           2.188
  22579368.719     1722169.614 6   1341949.89621        16.250           1.188
  20721548.367    -1517254.724 7  -1182274.90023        25.500           3.156
  23439719.328     2755525.357 5   2147156.94721        11.500           0.531
  23647389.516    -3485779.197 5  -2716176.89521        10.000           0.406
 91  7 26  0 50  0.0000000  0  5G 3G16G17G20G23
  20463920.633     -995962.425 7   -776074.14122        24.500           2.125
  22585391.906     1753816.470 6   1366609.75021        17.000           1.219
  20716851.875    -1541932.022 7  -1201503.94023        25.500           3.219
  23448803.148     2803283.447 5   2184370.91621        10.750           0.406
  23635983.797    -3545761.418 5  -2762916.09921        11.000           0.438
 91  7 26  0 50 15.0000000  0  5G 3G16G17G20G23
  20460993.414    -1011352.221 7   -788066.18022        25.500           2.219
  22591424.914     1785521.372 6   1391314.85221        16.500           1.125
  20712165.484    -1566561.525 7  -1220695.73823        24.750           3.125
  23457897.414     2851040.608 5   2221584.18121        10.500           0.531
  23624567.656    -3605736.273 5  -2809649.55021        10.500           0.469
 91  7 26  0 50 30.0000000  0  5G 3G16G17G20G23
  20458074.922    -1026688.916 7   -800016.84522        25.250           2.125
  22597468.297     1817285.626 6   1416066.20421        15.750           1.125
  20707490.242    -1591141.463 7  -1239848.91523        25.250           3.250
  23466985.766     2898798.312 5   2258797.85421        10.500           0.500
  23613157.859    -3665701.790 5  -2856375.74121        10.500           0.500
 91  7 26  0 50 45.0000000  0  5G 3G16G17G20G23
  20455163.039    -1041975.765 7   -811928.66922        24.500           2.219
  22603522.492     1849105.089 6   1440860.56221        16.500           1.063
  20702820.828    -1615675.669 7  -1258966.45823        25.250           3.188
  23476072.648     2946552.115 5   2296008.48421        10.500           0.469
  23601744.461    -3725661.805 5  -2903097.63521        10.500           0.406
 91  7 26  0 51  0.0000000  0  5G 3G16G17G20G23
  20452265.523    -1057209.389 7   -823799.01622        25.000           2.188
  22609590.773     1880982.622 6   1465700.19121        16.500           1.094
  20698159.367    -1640160.941 7  -1278045.86723        24.500           3.313
  23485154.195     2994304.886 5   2333218.32021         9.750           0.375
  23590336.336    -3785612.520 5  -2949812.28721        10.500           0.438
 91  7 26  0 51 15.0000000  0  5G 3G16G17G20G23
  20449376.789    -1072394.740 7   -835631.74622        25.250           2.125
  22615663.266     1912912.984 6   1490580.96521        16.500           1.094
  20693507.391    -1664602.203 7  -1297090.98023        24.000           3.313
  23494242.977     3042051.551 5   2370423.39421        10.000           0.344
  23578932.063    -3845558.523 5  -2996523.26721        10.000           0.406
 91  7 26  0 51 30.0000000  0  5G 3G16G17G20G23
  20446496.820    -1087529.265 7   -847424.86922        25.500           2.313
  22621754.773     1944898.164 6   1515504.47121        17.000           1.094
  20688867.258    -1688997.397 7  -1316100.20223        24.500           3.375
  23503332.469     3089793.747 5   2407624.99321        10.500           0.406
  23567529.109    -3905497.545 5  -3043228.81621         9.250           0.563
 91  7 26  0 51 45.0000000  0  5G 3G16G17G20G23
  20443624.648    -1102617.304 7   -859181.76922        25.250           2.156
  22627849.398     1976933.319 6   1540466.91821        17.000           1.125
  20684232.469    -1713351.139 7  -1335077.12423        24.750           3.188
  23512415.680     3137526.567 5   2444819.28121        10.500           0.500
  23556118.664    -3965433.862 5  -3089932.24421         9.250           0.500
 91  7 26  0 52  0.0000000  0  5G 3G16G17G20G23
  20440763.797    -1117655.406 7   -870899.76022        25.500           2.250
  22633956.953     2009021.552 6   1565470.73121        16.250           1.156
  20679606.734    -1737660.058 7  -1354019.12023        24.500           3.125
  23521499.109     3185253.172 5   2482008.71221        10.250           0.438
  23544713.141    -4025363.663 5  -3136630.61021         9.500           0.500
 91  7 26  0 52 15.0000000  0  5G 3G16G17G20G23
  20437911.734    -1132642.554 7   -882578.04922        25.000           2.250
  22640073.563     2041163.060 6   1590516.03921        16.250           1.156
  20674990.539    -1761923.141 7  -1372925.39523        25.000           3.281
  23530576.844     3232973.859 5   2519193.53421        10.000           0.469
  23533312.336    -4085286.139 5  -3183323.25621         9.500           0.563
 91  7 26  0 52 30.0000000  0  5G 3G16G17G20G23
  20435069.203    -1147579.761 7   -894217.42722        25.000           2.219
  22646197.852     2073356.404 6   1615601.74321        16.250           1.094
  20670381.172    -1786141.736 7  -1391797.00623        25.000           3.156
  23539653.359     3280686.995 5   2556372.46621         9.500           0.500
  23521908.570    -4145202.149 5  -3230010.87021         9.250           0.563
 91  7 26  0 52 45.0000000  0  5G 3G16G17G20G23
  20432235.719    -1162468.617 7   -905819.11822        24.750           2.219
  22652338.953     2105599.208 6   1640725.99421        18.250           1.125
  20665778.859    -1810317.860 7  -1410635.52423        24.250           3.281
  23548735.875     3328390.479 5   2593543.88721        10.000           0.469
  23510509.977    -4205113.287 5  -3276694.70321         9.000           0.531
 91  7 26  0 53  0.0000000  0  5G 3G16G17G20G23
  20429413.539    -1177305.083 7   -917379.98422        25.000           2.219
  22658476.242     2137895.630 6   1665892.02621        17.000           1.063
  20661188.172    -1834447.361 7  -1429437.71423        24.500           3.375
  23557809.133     3376087.809 5   2630710.51221         9.750           0.469
  23499107.422    -4265015.418 5  -3323371.48821         8.750           0.625
 91  7 26  0 53 15.0000000  0  5G 3G16G17G20G23
  20426598.289    -1192092.959 7   -928903.00722        24.250           2.125
  22664634.938     2170240.939 6   1691096.15121        17.000           1.156
  20656604.539    -1858534.369 7  -1448206.79023        24.250           3.188
  23566882.555     3423774.624 5   2667868.94421        10.250           0.438
  23487712.961    -4324912.141 5  -3370044.07521         9.000           0.469
 91  7 26  0 53 30.0000000  0  5G 3G16G17G20G23
  20423794.945    -1206828.925 7   -940385.57522        24.000           2.188
  22670798.008     2202638.188 6   1716340.74721        16.750           1.156
  20652029.328    -1882575.783 7  -1466940.33923        24.750           3.281
  23575962.086     3471453.733 5   2705021.38421        11.500           0.500
  23476314.273    -4384800.077 5  -3416709.82221         9.250           0.469
 91  7 26  0 53 45.0000000  0  5G 3G16G17G20G23
  20421000.594    -1221515.422 7   -951829.58722        23.750           2.250
  22676973.320     2235084.180 6   1741623.30421        17.250           1.125
  20647462.117    -1906574.257 7  -1485640.43423        24.500           3.188
  23585029.188     3519121.818 5   2742165.21121        11.250           0.406
  23464928.398    -4444681.723 5  -3463370.66621        10.000           0.500
 91  7 26  0 54  0.0000000  0  5G 3G16G17G20G23
  20418216.047    -1236149.334 7   -963232.61922        24.000           2.250
  22683161.055     2267581.717 6   1766946.04621        18.250           1.031
  20642904.375    -1930527.024 7  -1504304.91223        24.000           3.250
  23594098.820     3566781.755 5   2779302.70321        11.250           0.375
  23453527.039    -4504553.672 5  -3510023.93221         9.250           0.531
 91  7 26  0 54 15.0000000  0  5G 3G16G17G20G23
  20415441.453    -1250728.774 7   -974593.21722        23.500           2.344
  22689352.922     2300132.152 6   1792310.00921        17.500           1.094
  20638356.758    -1954432.672 7  -1522932.67523        25.000           3.313
  23603171.773     3614434.681 5   2816434.73321        11.500           0.438
  23442133.867    -4564414.238 5  -3556668.37321         9.000           0.438
 91  7 26  0 54 30.0000000  0  5G 3G16G17G20G23
  20412676.656    -1265258.039 7   -985914.71522        24.000           2.344
  22695556.172     2332730.695 6   1817711.44721        17.250           1.031
  20633815.453    -1978295.236 7  -1541526.86223        25.000           3.219
  23612234.188     3662075.864 5   2853557.58721        11.250           0.438
  23430746.531    -4624267.568 5  -3603307.15921         9.250           0.438
 91  7 26  0 54 45.0000000  0  5G 3G16G17G20G23
  20409921.328    -1279738.789 7   -997198.40522        24.000           2.219
  22701768.125     2365375.083 6   1843148.61321        16.750           1.094
  20629283.805    -2002116.525 7  -1560088.88223        24.750           3.188
  23621300.391     3709703.450 5   2890669.85021        11.250           0.469
  23419353.000    -4684115.070 5  -3649941.40121         9.500           0.344
 91  7 26  0 55  0.0000000  0  5G 3G16G17G20G23
  20407173.344    -1294168.339 7  -1008442.20022        23.500           2.250
  22707988.797     2398067.488 6   1868623.19921        17.000           0.969
  20624757.758    -2025894.383 7  -1578617.06023        24.750           3.281
  23630358.398     3757319.003 5   2927772.76021        10.750           0.438
  23407972.711    -4743954.289 5  -3696569.19121         9.750           0.469
 91  7 26  0 55 15.0000000  0  5G 3G16G17G20G23
  20404437.039    -1308547.863 7  -1019647.01422        24.000           2.125
  22714217.602     2430806.083 6   1894133.77821        16.000           0.938
  20620240.180    -2049630.265 7  -1597112.53323        24.500           3.188
  23639411.773     3804920.814 5   2964864.94421        10.500           0.344
  23396575.094    -4803786.367 5  -3743191.41421         9.000           0.563
 91  7 26  0 55 30.0000000  0  5G 3G16G17G20G23
  20401712.242    -1322874.742 7  -1030810.81522        24.000           2.156
  22720460.289     2463593.054 6   1919682.04321        17.250           1.063
  20615732.125    -2073321.331 7  -1615573.09023        24.250           3.156
  23648470.961     3852511.289 5   3001948.30621        10.500           0.438
  23385202.523    -4863608.139 5  -3789805.60321         9.500           0.438
 91  7 26  0 55 45.0000000  0  5G 3G16G17G20G23
  20398995.414    -1337145.485 7  -1041930.86522        23.750           2.188
  22726708.320     2496431.251 6   1945270.23621        17.250           1.000
  20611233.961    -2096964.670 7  -1633996.45423        25.000           3.156
  23657524.195     3900093.105 5   3039024.90421        10.250           0.469
  23373817.875    -4923416.418 5  -3836409.28621         9.500           0.563
 91  7 26  0 56  0.0000000  0  5G 3G16G17G20G23
  20396289.367    -1351367.544 7  -1053012.99122        24.250           2.156
  22732966.477     2529313.166 6   1970892.49021        16.500           0.969
  20606741.211    -2120567.883 7  -1652388.54923        24.000           3.250
  23666584.289     3947658.369 5   3076088.63021        10.750           0.375
  23362443.398    -4983218.355 5  -3883008.02221         9.750           0.469
 91  7 26  0 56 15.0000000  0  5G 3G16G17G20G23
  20393592.836    -1365537.893 7  -1064054.81322        24.250           2.188
  22739233.320     2562241.250 6   1996550.73021        17.000           0.969
  20602256.938    -2144127.858 7  -1670746.95023        23.750           3.281
  23675628.109     3995209.679 5   3113141.44621        11.000           0.469
  23351061.609    -5043010.689 5  -3929599.27521         9.750           0.469
 91  7 26  0 56 30.0000000  0  5G 3G16G17G20G23
  20390905.492    -1379663.087 7  -1075061.45222        24.500           2.094
  22745504.047     2595208.213 6   2022239.25921        16.000           1.063
  20597782.492    -2167651.917 7  -1689077.37423        24.750           3.375
  23684676.961     4042739.629 5   3150177.63321        10.750           0.500
  23339678.570    -5102800.336 5  -3976188.43321         9.500           0.469
 91  7 26  0 56 45.0000000  0  5G 3G16G17G20G23
  20388227.273    -1393739.949 7  -1086030.43322        23.750           2.156
  22751785.594     2628216.791 6   2047960.18821        16.500           0.969
  20593311.672    -2191137.058 7  -1707377.46623        24.500           3.313
  23693710.109     4090250.953 5   3187199.30521         9.750           0.469
  23328308.547    -5162583.977 5  -4022772.92421        10.500           0.469
 91  7 26  0 57  0.0000000  0  5G 3G16G17G20G23
  20385559.547    -1407760.475 7  -1096955.50522        24.000           1.969
  22758073.930     2661274.490 6   2073719.43421        15.500           0.969
  20588853.000    -2214575.091 7  -1725640.85323        25.250           3.375
  23702752.945     4137751.218 5   3224212.36421        10.500           0.469
  23316931.281    -5222353.541 5  -4069346.42321        10.250           0.406
 91  7 26  0 57 15.0000000  0  5G 3G16G17G20G23
  20382903.164    -1421721.067 7  -1107833.88522        23.500           2.250
  22764377.477     2694384.228 6   2099519.21021        16.750           0.969
  20584402.461    -2237962.780 7  -1743865.00223        25.500           3.313
  23711792.172     4185243.417 5   3261219.13621        10.250           0.500
  23305558.539    -5282105.246 5  -4115906.02221        10.000           0.438
 91  7 26  0 57 30.0000000  0  5G 3G16G17G20G23
  20380255.500    -1435627.189 7  -1118669.82022        23.500           2.031
  22770684.430     2727540.134 6   2125354.95321        16.500           0.875
  20579959.891    -2261306.022 7  -1762054.52523        25.500           3.188
  23720821.445     4232721.289 5   3298214.73821         9.250           0.531
  23294188.766    -5341844.641 5  -4162456.03921        10.250           0.438
 91  7 26  0 57 45.0000000  0  5G 3G16G17G20G23
  20377618.984    -1449483.919 7  -1129467.26322        23.750           2.094
  22777003.492     2760736.779 6   2151222.44421        15.750           0.906
  20575524.992    -2284609.772 7  -1780213.28323        25.500           3.344
  23729860.734     4280179.345 5   3335194.90021         9.750           0.438
  23282827.422    -5401576.444 5  -4209000.13121        11.500           0.531
 91  7 26  0 58  0.0000000  0  5G 3G16G17G20G23
  20374990.969    -1463282.548 7  -1140219.43322        23.000           2.063
  22783330.031     2793982.252 6   2177127.98621        16.250           0.938
  20571100.727    -2307865.353 7  -1798334.49823        25.750           3.406
  23738885.719     4327626.020 5   3372166.18621         9.750           0.500
  23271467.813    -5461291.899 5  -4255531.47021        11.500           0.563
 91  7 26  0 58 15.0000000  0  5G 3G16G17G20G23
  20372378.453    -1477028.999 7  -1150930.95222        23.750           1.906
  22789663.461     2827269.799 6   2203066.32821        17.000           1.031
  20566682.617    -2331079.539 7  -1816423.45824        25.250           3.531
  23747908.258     4375054.437 5   3409123.24221         9.500           0.406
  23260102.719    -5520997.282 5  -4302054.96421        11.000           0.531
 91  7 26  0 58 30.0000000  0  5G 3G16G17G20G23
  20369770.805    -1490721.235 7  -1161600.23122        23.250           2.031
  22796009.523     2860601.150 6   2229038.77221        16.250           0.938
  20562272.383    -2354250.642 7  -1834478.84924        25.500           3.594
  23756931.781     4422466.179 5   3446067.31121         9.250           0.469
  23248741.273    -5580690.328 5  -4348568.85621        10.500           0.563
 91  7 26  0 58 45.0000000  0  5G 3G16G17G20G23
  20367175.664    -1504359.014 7  -1172227.06422        23.500           2.063
  22802355.102     2893976.320 6   2255045.38521        16.250           0.844
  20557870.813    -2377377.905 7  -1852500.07724        24.250           3.656
  23765954.469     4469861.179 5   3482998.31821        10.000           0.375
  23237383.578    -5640370.365 5  -4395072.60721        11.500           0.500
 91  7 26  0 59  0.0000000  0  5G 3G16G17G20G23
  20364592.039    -1517943.039 7  -1182812.01122        23.750           2.031
  22808720.273     2927393.743 6   2281084.92321        17.000           1.063
  20553478.609    -2400462.336 7  -1870487.92424        24.500           3.781
  23774965.695     4517238.142 5   3519915.28421         9.250           0.438
  23226034.617    -5700038.304 6  -4441566.95021        12.000           0.469
 91  7 26  0 59 15.0000000  0  5G 3G16G17G20G23
  20362015.367    -1531475.710 7  -1193356.94222        24.000           2.188
  22815086.172     2960850.513 6   2307155.10221        16.000           1.063
  20549094.617    -2423506.857 7  -1888444.67324        25.000           3.750
  23783981.906     4564594.102 5   3556815.87921         9.500           0.438
  23214682.047    -5759696.445 5  -4488053.64521        11.750           0.500
 91  7 26  0 59 30.0000000  0  5G 3G16G17G20G23
  20359451.344    -1544954.410 7  -1203859.81922        24.750           2.188
  22821458.711     2994348.977 6   2333257.77521        15.500           1.000
  20544716.883    -2446508.816 7  -1906368.26724        24.500           3.656
  23792987.000     4611931.042 5   3593701.67321         9.500           0.406
  23203326.156    -5819342.071 5  -4534530.58421        11.500           0.625
 91  7 26  0 59 45.0000000  0  5G 3G16G17G20G23
  20356897.938    -1558379.235 7  -1214320.71922        25.000           2.125
  22827841.609     3027888.574 6   2359392.49921        16.500           1.063
  20540348.398    -2469468.837 7  -1924259.18024        24.500           3.594
  23801987.711     4659248.288 5   3630572.09921         9.000           0.469
  23191982.227    -5878975.331 6  -4580997.90721        12.250           0.563
 91  7 26  1  0  0.0000000  0  5G 3G16G17G20G23
  20354353.828    -1571748.052 7  -1224737.97122        24.750           2.094
  22834230.250     3061470.649 6   2385560.33521        15.250           1.031
  20535986.586    -2492384.908 7  -1942115.83824        24.750           3.594
  23810996.180     4706547.434 5   3667428.42921         9.250           0.344
  23180637.609    -5938593.905 5  -4627453.78421        11.000           0.594
 91  7 26  1  0 15.0000000  0  5G 3G16G17G20G23
  20351821.117    -1585061.356 7  -1235111.96522        25.250           2.094
  22840629.266     3095094.847 6   2411760.99021        14.500           1.000
  20531634.406    -2515257.225 7  -1959938.40824        25.000           3.656
  23819986.805     4753827.824 5   3704270.15221         9.500           0.406
  23169290.078    -5998197.960 5  -4673898.32921        11.500           0.625
 91  7 26  1  0 29.9990000  0  5G 3G16G17G20G23
  20349295.628    -1598314.376 7  -1245438.98722        24.000           2.031
  22847035.589     3128761.627 6   2437994.81921        14.500           1.000
  20527291.714    -2538081.182 7  -1977723.29224        25.250           3.656
  23828986.651     4801088.888 5   3741096.78221         9.250           0.406
  23157957.112    -6057779.964 6  -4720325.70721        12.500           0.594
 91  7 26  1  0 44.9990000  0  5G 3G16G17G20G23
  20346785.620    -1611511.176 7  -1255722.20722        24.500           2.125
  22853450.019     3162472.562 6   2464263.05121        14.750           1.063
  20522957.706    -2560862.449 7  -1995474.90824        25.500           3.781
  23837964.042     4848334.316 5   3777911.24021         8.500           0.469
  23146618.144    -6117350.099 6  -4766743.84221        12.750           0.625
 91  7 26  1  0 59.9990000  0  5G 3G16G17G20G23
  20344285.855    -1624647.834 7  -1265958.55322        24.250           2.031
  22859874.628     3196228.001 6   2490565.97221        14.500           1.000
  20518629.315    -2583596.537 7  -2013189.76124        25.250           3.656
  23846959.714     4895563.507 5   3814713.06821         9.000           0.438
  23135290.019    -6176901.212 6  -4813147.15821        12.750           0.688
 91  7 26  1  1 14.9990000  0  5G 3G16G17G20G23
  20341799.534    -1637723.330 7  -1276147.24722        24.000           1.813
  22866308.433     3230028.705 6   2516904.15821        15.250           1.031
  20514311.347    -2606282.548 7  -2030867.15124        25.500           3.750
  23855940.370     4942776.882 5   3851502.53421         8.750           0.375
  23123952.097    -6236432.140 5  -4859534.73321        11.750           0.594
 91  7 26  1  1 29.9990000  0  5G 3G16G17G20G23
  20339321.089    -1650737.975 7  -1286288.52322        23.500           1.938
  22872746.370     3263874.172 6   2543277.22621        14.750           0.938
  20510006.800    -2628920.853 7  -2048507.37324        26.000           3.750
  23864925.573     4989973.935 5   3888279.31421         8.750           0.469
  23112631.245    -6295942.993 6  -4905906.67521        12.000           0.594
 91  7 26  1  1 44.9990000  0  5G 3G16G17G20G23
  20336855.628    -1663690.215 7  -1296381.17622        23.750           1.938
  22879199.245     3297765.271 6   2569685.85521        14.750           1.125
  20505707.495    -2651510.272 7  -2066109.49824        25.500           3.656
  23873907.456     5037155.530 5   3925044.02821         8.750           0.344
  23101315.276    -6355432.398 6  -4952261.89821        12.500           0.656
 91  7 26  1  1 59.9990000  0  5G 3G16G17G20G23
  20334404.612    -1676581.793 7  -1306426.55522        24.000           1.969
  22885655.894     3331699.979 6   2596128.43721        15.000           1.031
  20501416.144    -2674052.734 7  -2083675.03624        24.750           3.750
  23882875.745     5084319.492 5   3961795.00121         8.750           0.344
  23089994.089    -6414901.886 6  -4998601.60921        13.000           0.656
 91  7 26  1  2 14.9990000  0  5G 3G16G17G20G23
  20331962.714    -1689413.804 7  -1316425.51522        24.500           1.969
  22892121.800     3365676.091 6   2622603.30621        15.000           1.031
  20497136.339    -2696549.617 7  -2101205.05724        25.000           3.750
  23891857.909     5131463.897 5   3998530.74221         9.000           0.406
  23078684.081    -6474352.590 6  -5044926.68221        13.000           0.719
 91  7 26  1  2 29.9990000  0  5G 3G16G17G20G23
  20329531.831    -1702185.331 7  -1326377.34822        24.000           1.875
  22898596.011     3399694.006 6   2649110.75221        15.000           1.000
  20492866.167    -2719000.314 7  -2118699.09124        25.750           3.844
  23900821.511     5178589.120 5   4035251.52221         8.250           0.281
  23067371.003    -6533783.655 6  -5091236.44421        12.500           0.625
 91  7 26  1  2 44.9990000  0  5G 3G16G17G20G23
  20327114.315    -1714898.430 7  -1336283.64822        25.500           1.906
  22905075.128     3433751.435 6   2675648.99721        13.750           1.031
  20488598.128    -2741406.991 7  -2136158.82224        24.250           3.875
  23909787.214     5225692.883 5   4071955.59621         8.000           0.250
  23056063.730    -6593196.644 6  -5137532.14021        13.000           0.656
 91  7 26  1  2 59.9990000  0  5G 3G16G17G20G23
  20324705.605    -1727553.274 7  -1346144.56622        25.000           1.969
  22911566.105     3467847.599 6   2702217.38521        15.250           0.844
  20484343.581    -2763770.016 7  -2153584.53224        24.500           3.813
  23918736.948     5272774.389 5   4108642.30121         7.750           0.438
  23044765.425    -6652591.835 6  -5183813.96221        12.500           0.594
 91  7 26  1  3 14.9990000  0  5G 3G16G17G20G23
  20322308.394    -1740147.054 7  -1355957.90422        25.250           2.000
  22918058.917     3501984.689 6   2728817.70821        13.500           1.000
  20480097.667    -2786087.036 7  -2170974.39224        25.250           3.719
  23927698.886     5319835.508 5   4145313.14921         7.500           0.375
  23033469.870    -6711966.469 6  -5230079.75821        12.250           0.688
 91  7 26  1  3 29.9990000  0  5G 3G16G17G20G23
  20319922.190    -1752683.298 7  -1365726.39122        24.750           2.031
  22924558.183     3536159.090 6   2755447.06221        13.500           0.906
  20475858.909    -2808361.399 7  -2188331.01724        25.000           3.781
  23936645.105     5366872.664 5   4181965.31321         8.000           0.313
  23022167.964    -6771323.887 5  -5276332.15121        11.750           0.688
 91  7 26  1  3 44.9990000  0  5G 3G16G17G20G23
  20317548.784    -1765158.311 7  -1375447.17722        24.500           2.156
  22931074.394     3570373.632 6   2782107.73921        14.500           0.938
  20471628.800    -2830589.677 7  -2205651.73324        25.750           3.781
  23945596.065     5413888.836 4   4218601.11321         7.250           0.313
  23010876.995    -6830660.301 5  -5322568.18521        11.750           0.656
 91  7 26  1  3 59.9990000  0  5G 3G16G17G20G23
  20315187.105    -1777569.365 7  -1385118.10922        25.000           2.031
  22937594.386     3604630.612 6   2808801.46121        14.250           0.969
  20467408.730    -2852769.471 7  -2222934.66824        26.000           3.813
  23954542.628     5460886.064 5   4255222.16321         7.750           0.344
  22999590.948    -6889972.998 6  -5368785.72921        12.250           0.688
 91  7 26  1  4 14.9990000  0  5G 3G16G17G20G23
  20312835.253    -1789919.235 7  -1394741.38722        24.500           2.031
  22944120.261     3638926.766 6   2835525.70621        14.500           0.906
  20463197.355    -2874903.689 7  -2240182.09724        26.000           3.813
  23963483.636     5507861.201 4   4291825.98221         7.250           0.375
  22988304.745    -6949264.734 6  -5414986.96121        12.000           0.656
 91  7 26  1  4 29.9990000  0  5G 3G16G17G20G23
  20310497.667    -1802211.988 7  -1404320.14922        24.750           1.875
  22950649.237     3673257.660 6   2862277.03121        13.000           0.813
  20458991.558    -2896996.559 7  -2257397.30024        26.000           3.813
  23972412.487     5554809.721 5   4328409.05721         7.750           0.219
  22977029.526    -7008539.350 6  -5461174.84421        13.000           0.656
 91  7 26  1  4 44.9990000  0  5G 3G16G17G20G23
  20308168.151    -1814440.858 7  -1413849.13922        24.250           2.031
  22957191.144     3707629.332 6   2889060.12821        13.250           1.000
  20454797.315    -2919041.975 7  -2274575.52924        25.500           3.844
  23981341.487     5601737.558 4   4364976.02421         7.250           0.313
  22965753.620    -7067790.201 6  -5507344.21821        13.250           0.688
 91  7 26  1  4 59.9990000  0  5G 3G16G17G20G23
  20305855.605    -1826600.354 7  -1423324.06122        24.750           2.063
  22963742.808     3742046.611 6   2915878.75021        14.000           0.906
  20450610.073    -2941034.371 7  -2291712.44224        25.250           3.844
  23990264.120     5648649.757 4   4401530.81521         7.000           0.219
  22954486.370    -7127011.715 6  -5553490.73021        13.750           0.719
 91  7 26  1  5 14.9990000  0  5G 3G16G17G20G23
  20303555.683    -1838694.896 7  -1432748.37822        25.250           2.094
  22970295.956     3776505.103 6   2942729.49721        12.500           0.844
  20446435.776    -2962978.291 7  -2308811.58324        25.750           3.719
  23999197.987     5695541.462 5   4438069.62621         7.500           0.313
  22943219.644    -7186208.060 6  -5599617.62521        13.750           0.719
 91  7 26  1  5 29.9990000  0  5G 3G16G17G20G23
  20301263.464    -1850728.999 7  -1442125.60222        24.500           2.094
  22976861.722     3810999.685 6   2969608.35121        13.750           0.875
  20442267.862    -2984878.216 7  -2325876.44124        26.500           3.688
  24008113.292     5742407.714 4   4474588.61921         7.250           0.313
  22931959.573    -7245383.695 6  -5645728.38921        13.500           0.688
 91  7 26  1  5 44.9990000  0  5G 3G16G17G20G23
  20298987.901    -1862701.356 7  -1451454.70222        24.250           2.094
  22983436.823     3845530.789 6   2996515.70221        13.500           0.688
  20438110.737    -3006733.379 7  -2342906.42724        27.000           3.625
  24017020.808     5789249.096 4   4511088.22421         6.750           0.344
  22920702.519    -7304537.334 6  -5691822.02021        13.500           0.875
 91  7 26  1  5 59.9990000  0  5G 3G16G17G20G23
  20296719.198    -1874611.724 7  -1460735.51022        24.750           2.094
  22990012.753     3880098.260 6   3023451.36121        13.250           0.781
  20433959.980    -3028543.793 7  -2359901.53324        26.250           3.500
  24025931.112     5836065.371 4   4547568.24821         6.500           0.375
  22909453.019    -7363668.617 6  -5737898.20921        13.500           0.781
 91  7 26  1  6 14.9990000  0  5G 3G16G17G20G23
  20294466.019    -1886458.401 7  -1469966.68222        25.000           2.156
  22996596.128     3914702.830 6   3050415.94321        13.250           0.719
  20429816.761    -3050308.041 7  -2376860.67024        25.500           3.500
  24034840.886     5882857.455 4   4584029.45421         7.250           0.250
  22898203.753    -7422775.906 6  -5783955.72421        14.250           0.719
 91  7 26  1  6 29.9990000  0  5G 3G16G17G20G23
  20292224.315    -1898236.720 7  -1479144.58622        23.750           2.094
  23003192.011     3949349.477 6   3077413.29421        13.500           0.813
  20425687.323    -3072021.606 7  -2393780.31024        26.500           3.594
  24043747.597     5929629.791 4   4620475.24721         7.000           0.313
  22886959.230    -7481854.342 6  -5829990.73221        14.250           0.750
 91  7 26  1  6 44.9990000  0  5G 3G16G17G20G23
  20289992.472    -1909954.792 7  -1488275.55422        23.000           2.063
  23009788.081     3984029.531 6   3104436.69021        14.000           0.781
  20421561.214    -3093692.694 7  -2410666.86124        26.500           3.500
  24052636.151     5976373.893 4   4656899.04521         7.000           0.375
  22875722.565    -7540911.942 6  -5876009.52521        14.750           0.625
 91  7 26  1  6 59.9990000  0  5G 3G16G17G20G23
  20287776.917    -1921603.965 7  -1497352.82222        23.500           2.125
  23016401.519     4018751.014 6   3131492.34321        15.000           0.875
  20417447.151    -3115312.857 7  -2427513.72524        25.750           3.719
  24061527.112     6023097.751 4   4693307.06121         7.250           0.375
  22864493.394    -7599939.828 6  -5922005.16921        14.500           0.719
 91  7 26  1  7 14.9990000  0  5G 3G16G17G20G23
  20285573.425    -1933182.349 7  -1506374.94422        23.250           2.156
  23023012.495     4053515.210 6   3158581.30921        14.000           0.813
  20413343.823    -3136880.479 7  -2444319.64924        25.750           3.656
  24070416.339     6069802.415 4   4729700.10321         7.250           0.250
  22853262.112    -7658936.365 6  -5967976.38621        14.000           0.688
 91  7 26  1  7 29.9990000  0  5G 3G16G17G20G23
  20283384.745    -1944687.802 7  -1515340.23022        23.500           2.094
  23029637.776     4088323.658 6   3185704.74821        14.750           0.813
  20409249.222    -3158393.877 7  -2461083.31624        25.250           3.656
  24079306.769     6116489.626 4   4766079.56921         7.000           0.313
  22842042.675    -7717899.349 6  -6013921.45821        14.500           0.750
 91  7 26  1  7 44.9990000  0  5G 3G16G17G20G23
  20281211.097    -1956124.262 7  -1524251.75122        24.250           2.156
  23036268.878     4123171.788 6   3212859.09621        13.750           0.844
  20405165.214    -3179857.079 7  -2477807.87924        25.250           3.656
  24088180.972     6163154.807 4   4802441.86821         7.000           0.219
  22830829.472    -7776832.801 6  -6059843.51721        14.250           0.719
 91  7 26  1  7 59.9990000  0  5G 3G16G17G20G23
  20279046.292    -1967495.079 7  -1533112.12922        23.750           2.188
  23042901.948     4158056.323 6   3240041.82621        13.000           0.594
  20401090.925    -3201273.178 7  -2494495.73824        25.750           3.750
  24097052.620     6209794.476 4   4838784.28321         6.500           0.188
  22819617.339    -7835739.349 6  -6105744.59121        14.000           0.750
 91  7 26  1  8 14.9990000  0  5G 3G16G17G20G23
  20276894.933    -1978798.291 7  -1541919.82322        24.500           2.000
  23049550.730     4192978.292 6   3267253.72521        12.750           0.750
  20397023.831    -3222641.073 7  -2511146.03524        25.750           3.813
  24105923.097     6256409.522 4   4875107.52821         6.750           0.219
  22808411.651    -7894617.563 6  -6151623.61121        13.750           0.719
 91  7 26  1  8 29.9990000  0  5G 3G16G17G20G23
  20274756.058    -1990032.526 7  -1550673.77622        24.000           2.156
  23056202.745     4227938.926 6   3294495.74921        13.000           0.781
  20392968.456    -3243959.178 7  -2527757.53124        25.000           3.750
  24114791.940     6303001.352 4   4911412.67621         7.250           0.250
  22797214.667    -7953465.649 6  -6197479.14921        14.750           0.781
 91  7 26  1  8 44.9990000  0  5G 3G16G17G20G23
  20272631.933    -2001201.390 7  -1559376.78122        23.750           2.063
  23062860.167     4262933.940 5   3321764.58121        11.500           0.719
  20388918.667    -3265231.436 7  -2544333.29724        25.250           3.688
  24123653.886     6349565.626 5   4947696.33421         7.500           0.281
  22786020.034    -8012287.309 6  -6243314.09221        14.750           0.813
 91  7 26  1  8 59.9990000  0  5G 3G16G17G20G23
  20270518.644    -2012299.716 7  -1568024.82622        23.500           2.094
  23069527.440     4297967.765 6   3349063.60621        12.250           0.656
  20384881.909    -3286452.986 7  -2560869.55424        25.000           3.656
  24132514.800     6396106.967 5   4983962.12421         7.500           0.250
  22774837.565    -8071077.243 6  -6289124.31921        14.750           0.906
 91  7 26  1  9 14.9990000  0  5G 3G16G17G20G23
  20268420.605    -2023326.578 7  -1576617.18622        24.000           2.156
  23076202.253     4333040.773 5   3376393.19121        11.250           0.688
  20380850.839    -3307622.978 7  -2577365.63524        24.750           3.656
  24141370.144     6442625.755 5   5020210.34621         8.000           0.375
  22763653.597    -8129834.359 6  -6334908.96521        14.750           0.906
 91  7 26  1  9 29.9990000  0  5G 3G16G17G20G23
  20266333.847    -2034287.039 7  -1585157.80722        24.250           2.250
  23082883.050     4368147.719 6   3403749.23621        12.750           0.750
  20376833.487    -3328746.599 7  -2593825.58724        25.250           3.531
  24150213.565     6489116.519 5   5056436.68021         7.500           0.219
  22752474.097    -8188563.730 6  -6380671.98921        14.250           0.969
 91  7 26  1  9 44.9990000  0  5G 3G16G17G20G23
  20264262.151    -2045178.561 7  -1593644.70222        24.750           2.031
  23089572.175     4403290.571 6   3431133.23721        12.000           0.656
  20372822.136    -3349821.657 7  -2610247.68823        25.000           3.406
  24159054.058     6535581.188 5   5092642.73921         7.750           0.344
  22741310.105    -8247263.023 6  -6426411.58921        14.250           0.906
 91  7 26  1  9 59.9990000  0  5G 3G16G17G20G23
  20262203.456    -2055996.800 7  -1602074.50022        25.000           2.094
  23096264.401     4438473.198 5   3458548.24521        11.500           0.625
  20368820.456    -3370844.099 7  -2626628.78823        24.000           3.313
  24167883.073     6582023.512 4   5128831.36321         6.500           0.344
  22730141.019    -8305927.706 6  -6472124.21821        14.750           0.969
 91  7 26  1 10 14.9990000  0  5G 3G16G17G20G23
  20260156.323    -2066749.003 7  -1610452.84422        24.250           1.906
  23102970.198     4473688.018 6   3485988.32721        12.750           0.563
  20364830.745    -3391821.451 7  -2642974.76623        24.750           3.375
  24176718.487     6628435.737 4   5164996.55921         7.000           0.219
  22718986.347    -8364564.837 6  -6517815.38421        14.500           1.094
 91  7 26  1 10 29.9990000  0  5G 3G16G17G20G23
  20258126.050    -2077429.945 7  -1618775.65022        25.000           1.969
  23109678.784     4508939.898 6   3513457.30421        12.250           0.625
  20360846.792    -3412748.287 7  -2659281.38123        24.750           3.406
  24185549.308     6674822.851 4   5201142.16021         6.750           0.281
  22707831.058    -8423169.022 6  -6563480.87921        14.250           1.000
 91  7 26  1 10 44.9990000  0  5G 3G16G17G20G23
  20256104.214    -2088045.087 7  -1627047.19022        24.500           2.063
  23116392.151     4544222.181 6   3540949.94421        12.500           0.563
  20356873.940    -3433630.649 7  -2675553.33823        24.000           3.469
  24194364.894     6721178.383 4   5237263.16921         7.000           0.250
  22696684.519    -8481745.999 6  -6609125.16821        14.250           1.188
 91  7 26  1 10 59.9990000  0  5G 3G16G17G20G23
  20254099.526    -2098588.514 7  -1635262.84822        24.750           1.906
  23123114.526     4579540.572 6   3568470.74421        12.000           0.563
  20352910.776    -3454462.658 7  -2691786.05224        24.750           3.625
  24203178.925     6767507.993 4   5273363.96121         6.250           0.281
  22685541.487    -8540289.287 6  -6654743.21721        14.000           1.063
 91  7 26  1 11 14.9990000  0  5G 3G16G17G20G23
  20252106.964    -2109058.037 7  -1643420.92322        24.500           1.906
  23129839.784     4614896.982 5   3596021.16021        11.750           0.625
  20348954.980    -3475242.276 7  -2707977.94824        24.250           3.656
  24212000.487     6813813.373 4   5309445.88621         7.000           0.313
  22674413.894    -8598796.792 6  -6700333.38621        14.750           0.969
 91  7 26  1 11 29.9990000  0  4G 3G16G17G23
  20250128.855    -2119452.383 7  -1651520.42422        24.750           1.938
  23136576.933     4650291.854 6   3623601.55221        12.250           0.531
  20345009.980    -3495968.790 7  -2724128.45923        23.500           3.469
  22663283.847    -8657267.382 6  -6745894.78421        14.250           1.000
 91  7 26  1 11 44.9990000  0  4G 3G16G17G23
  20248165.214    -2129773.070 7  -1659562.51722        25.000           2.000
  23143314.636     4685723.366 5   3651210.47421        11.250           0.563
  20341078.073    -3516643.757 7  -2740238.81223        24.750           3.469
  22652166.175    -8715702.427 6  -6791428.49121        14.250           1.031
 91  7 26  1 11 59.9990000  0  4G 3G16G17G23
  20246213.987    -2140026.042 7  -1667551.84322        24.750           1.938
  23150065.230     4721185.345 5   3678843.15721        11.000           0.531
  20337150.987    -3537273.105 7  -2756313.61723        24.250           3.438
  22641051.823    -8774107.649 6  -6836938.95521        15.250           0.969
 91  7 26  1 12 14.9990000  0  4G 3G16G17G23
  20244276.987    -2150204.847 7  -1675483.38722        25.250           2.031
  23156821.980     4756683.637 5   3706504.12621        11.750           0.594
  20333234.573    -3557850.679 7  -2772348.07223        23.750           3.375
  22629939.308    -8832476.629 6  -6882421.18021        14.500           1.156
 91  7 26  1 12 29.9990000  0  4G 3G16G17G23
  20242351.386    -2160315.140 7  -1683361.53822        24.500           1.938
  23163582.183     4792211.647 5   3734188.25121        11.000           0.469
  20329329.956    -3578382.880 7  -2788347.17923        24.500           3.438
  22618839.206    -8890815.100 6  -6927879.64721        14.500           1.156
 91  7 26  1 12 44.9990000  0  4G 3G16G17G23
  20240443.597    -2170355.097 7  -1691184.87822        25.750           2.000
  23170350.800     4827771.115 5   3761896.91121        11.250           0.625
  20325430.370    -3598867.627 7  -2804309.30123        23.750           3.281
  22607747.425    -8949120.935 6  -6973312.66521        15.000           1.250
 91  7 26  1 12 59.9990000  0  4G 3G16G17G23
  20238546.105    -2180320.926 7  -1698950.45922        25.000           1.813
  23177126.901     4863365.317 5   3789632.59221        11.750           0.531
  20321542.300    -3619301.158 7  -2820231.51423        24.000           3.281
  22596656.519    -9007390.269 6  -7018717.24521        14.000           1.125
 91  7 26  1 13 14.9990000  0  4G 3G16G17G23
  20236664.800    -2190210.716 7  -1706656.78822        25.000           1.906
  23183908.331     4898995.609 5   3817396.44421        11.250           0.375
  20317663.589    -3639682.023 7  -2836112.69323        24.500           3.219
  22585580.612    -9065621.174 6  -7064091.89121        14.750           1.281
 91  7 26  1 13 29.9990000  0  4G 3G16G17G23
  20234798.206    -2200022.372 7  -1714302.23122        25.000           1.938
  23190696.519     4934663.461 5   3845189.55021        11.250           0.469
  20313795.417    -3660008.595 7  -2851951.56823        25.000           3.250
  22574506.940    -9123811.894 6  -7109435.20821        14.500           1.250
 91  7 26  1 13 44.9990000  0  4G 3G16G17G23
  20232943.355    -2209760.788 7  -1721890.60522        24.250           1.938
  23197479.245     4970363.765 5   3873007.92321         9.500           0.531
  20309936.972    -3680285.499 7  -2867751.73623        25.250           3.344
  22563438.089    -9181966.902 6  -7154750.70821        14.750           1.219
 91  7 26  1 13 59.9990000  0  4G 3G16G17G23
  20231105.089    -2219424.938 7  -1729421.11122        24.250           1.875
  23204287.855     5006097.317 6   3900852.19221        12.000           0.469
  20306087.784    -3700511.543 7  -2883512.27623        24.750           3.375
  22552375.706    -9240084.565 6  -7200037.10721        14.750           1.156
 91  7 26  1 14 14.9990000  0  4G 3G16G17G23
  20229279.675    -2229016.431 7  -1736894.99922        24.250           1.938
  23211085.495     5041861.223 5   3928720.17821        10.500           0.563
  20302250.136    -3720689.289 7  -2899235.18323        25.500           3.250
  22541326.917    -9298167.257 6  -7245296.25121        15.500           1.188
 91  7 26  1 14 29.9990000  0  4G 3G16G17G23
  20227469.362    -2238525.151 7  -1744304.39522        23.500           1.906
  23217897.253     5077665.567 5   3956619.61221        10.750           0.625
  20298421.253    -3740808.729 7  -2914912.66623        25.500           3.250
  22530279.565    -9356204.443 6  -7290519.95021        15.000           1.094
 91  7 26  1 14 44.9990000  0  4G 3G16G17G23
  20225674.753    -2247962.295 7  -1751658.01122        23.750           1.906
  23224720.909     5113498.615 5   3984541.44121        11.750           0.563
  20294601.331    -3760881.154 7  -2930553.49723        25.000           3.375
  22519241.761    -9414207.081 6  -7335716.72621        15.250           1.125
 91  7 26  1 14 59.9990000  0  4G 3G16G17G23
  20223892.855    -2257322.283 7  -1758951.50822        24.000           2.000
  23231544.573     5149365.664 5   4012489.76021        10.500           0.438
  20290790.745    -3780901.040 7  -2946153.39223        25.250           3.406
  22508213.315    -9472169.709 6  -7380882.31621        15.750           1.156
 91  7 26  1 15 14.9990000  0  4G 3G16G17G23
  20222126.659    -2266603.674 7  -1766183.76022        24.000           1.875
  23238379.722     5185267.250 5   4040465.01021        10.000           0.500
  20286990.230    -3800867.729 7  -2961711.83323        25.000           3.344
  22497191.433    -9530091.369 6  -7426015.98921        16.250           1.063
 91  7 26  1 15 29.9990000  0  4G 3G16G17G23
  20220377.495    -2275801.739 7  -1773351.08422        25.000           2.063
  23245219.565     5221207.903 5   4068470.66321         9.750           0.469
  20283203.339    -3820776.094 7  -2977224.83723        25.750           3.344
  22486179.253    -9587966.605 6  -7471113.48321        16.250           1.031
 91  7 26  1 15 44.9990000  0  4G 3G16G17G23
  20218638.753    -2284932.463 7  -1780465.93622        24.250           1.969
  23252062.026     5257171.216 5   4096493.99421         9.750           0.438
  20279422.511    -3840642.201 7  -2992704.90723        25.500           3.344
  22475169.401    -9645811.150 6  -7516187.07021        16.750           1.000
 91  7 26  1 15 59.9990000  0  4G 3G16G17G23
  20216914.456    -2293996.412 7  -1787528.75122        24.500           1.969
  23258909.292     5293156.157 5   4124534.16821        10.250           0.438
  20275650.300    -3860467.082 7  -3008152.85024        25.750           3.531
  22464171.815    -9703625.939 6  -7561237.47321        16.000           0.875
 91  7 26  1 16 14.9990000  0  4G 3G16G17G23
  20215206.456    -2302973.003 7  -1794523.49222        24.250           1.875
  23265763.683     5329182.473 5   4152606.60021        11.250           0.531
  20271888.355    -3880230.833 7  -3023553.16423        25.500           3.469
  22453177.925    -9761390.251 6  -7606248.53921        16.750           1.000
 91  7 26  1 16 29.9990000  0  4G 3G16G17G23
  20213511.565    -2311875.075 7  -1801460.17822        24.500           1.969
  23272628.644     5365237.159 5   4180701.14521        10.750           0.406
  20268137.612    -3899946.040 7  -3038915.64623        25.750           3.375
  22442187.878    -9819116.672 6  -7651230.07821        16.250           1.031
 91  7 26  1 16 44.9990000  0  4G 3G16G17G23
  20211831.792    -2320707.256 7  -1808342.39122        24.500           1.844
  23279489.284     5401315.297 5   4208813.91821        10.000           0.406
  20264393.917    -3919617.131 7  -3054243.75723        26.250           3.313
  22431212.839    -9876809.766 6  -7696185.65221        16.750           0.938
 91  7 26  1 16 59.9990000  0  4G 3G16G17G23
  20210166.769    -2329456.846 7  -1815160.25422        24.750           1.906
  23286359.894     5437428.574 5   4236954.11421         9.750           0.375
  20260661.058    -3939232.272 7  -3069528.26723        26.250           3.250
  22420242.597    -9934457.019 6  -7741105.49721        16.750           1.031
 91  7 26  1 17 14.9990000  0  4G 3G16G17G23
  20208516.495    -2338131.902 7  -1821920.03422        25.250           2.031
  23293237.065     5473568.492 5   4265115.07321         9.750           0.406
  20256936.948    -3958799.330 7  -3084775.30923        26.250           3.250
  22409277.706    -9992066.226 6  -7785995.69621        16.000           1.063
 91  7 26  1 17 29.9990000  0  4G 3G16G17G23
  20206879.222    -2346734.288 7  -1828623.19322        24.750           2.000
  23300125.745     5509732.880 5   4293295.07621        10.500           0.500
  20253222.300    -3978320.430 7  -3099986.55123        26.250           3.188
  22398323.644   -10049639.095 6  -7830857.57821        16.250           0.969
 91  7 26  1 17 44.9990000  0  4G 3G16G17G23
  20205258.097    -2355255.535 7  -1835263.12022        24.000           2.000
  23307013.901     5545929.719 5   4321500.36721        10.250           0.438
  20249519.394    -3997787.309 7  -3115155.53423        26.750           3.375
  22387376.964   -10107167.369 6  -7875684.71421        16.500           1.094
 91  7 26  1 17 59.9990000  0  4G 3G16G17G23
  20203651.323    -2363692.528 7  -1841837.39922        23.250           2.031
  23313910.964     5582161.725 5   4349733.04621        11.000           0.438
  20245824.659    -4017197.276 7  -3130280.16723        26.500           3.375
  22376439.151   -10164647.863 6  -7920474.62121        17.000           0.938
 91  7 26  1 18 14.9990000  0  4G 3G16G17G23
  20202061.058    -2372053.590 7  -1848352.50422        23.250           1.938
  23320803.175     5618420.333 5   4377986.49421        10.250           0.344
  20242140.378    -4036558.760 7  -3145367.03223        26.500           3.375
  22365508.019   -10222088.563 6  -7965233.51421        17.000           1.031
 91  7 26  1 18 29.9990000  0  4G 3G16G17G23
  20200487.503    -2380324.092 7  -1854797.04622        24.000           2.000
  23327709.526     5654719.341 5   4406271.40621         9.500           0.344
  20238468.823    -4055857.362 7  -3160404.89424        26.750           3.531
  22354588.690   -10279474.975 6  -8009950.11421        16.750           1.031
 91  7 26  1 18 44.9990000  0  4G 3G16G17G23
  20198927.183    -2388515.946 7  -1861180.30622        23.250           2.000
  23334623.519     5691046.914 5   4434578.55021        11.250           0.313
  20234806.050    -4075104.842 7  -3175402.91723        26.500           3.406
  22343676.808   -10336818.718 6  -8054633.46221        17.250           1.031
 91  7 26  1 18 59.9990000  0  4G 3G16G17G23
  20197382.745    -2396633.200 7  -1867505.44322        22.500           2.000
  23341548.284     5727398.256 5   4462904.26021        11.750           0.375
  20231151.581    -4094305.696 7  -3190364.61023        27.000           3.438
  22332773.308   -10394124.019 6  -8099286.83621        17.250           1.094
 91  7 26  1 19 14.9990000  0  4G 3G16G17G23
  20195853.073    -2404669.564 7  -1873767.53522        23.000           1.906
  23348464.175     5763779.111 5   4491252.96321        10.250           0.375
  20227507.894    -4113453.823 7  -3205285.21624        27.000           3.625
  22321874.019   -10451384.442 6  -8143905.25321        16.750           1.063
 91  7 26  1 19 29.9990000  0  4G 3G16G17G23
  20194340.433    -2412624.358 7  -1879966.07122        23.500           1.969
  23355391.620     5800189.402 5   4519624.58321        10.000           0.406
  20223874.042    -4132548.860 7  -3220164.45224        27.000           3.563
  22310984.503   -10508599.058 6  -8188487.98721        16.500           1.031
 91  7 26  1 19 44.9990000  0  4G 3G16G17G23
  20192840.940    -2420495.813 7  -1886099.67322        23.250           1.938
  23362327.097     5836630.455 5   4548020.15321         9.500           0.531
  20220250.659    -4151589.057 7  -3235000.95824        26.750           3.500
  22300105.214   -10565766.102 6  -8233033.63621        16.500           1.063
 91  7 26  1 19 59.9990000  0  4G 3G16G17G23
  20191358.620    -2428280.985 7  -1892166.04322        23.000           2.000
  23369267.620     5873104.744 5   4576441.66421        10.250           0.406
  20216639.011    -4170571.922 7  -3249792.78624        27.250           3.563
  22289237.909   -10622882.599 6  -8277539.90421        17.000           1.000
 91  7 26  1 20 14.9990000  0  4G 3G16G17G23
  20189894.987    -2435986.359 7  -1898170.22922        24.000           2.000
  23376213.355     5909605.228 5   4604883.60421         9.750           0.500
  20213036.237    -4189503.975 7  -3264545.02724        26.750           3.531
  22278381.378   -10679954.985 6  -8322011.80821        17.500           1.156
 91  7 26  1 20 29.9990000  0  4G 3G16G17G23
  20188443.761    -2443611.356 7  -1904111.78122        24.000           1.969
  23383168.050     5946132.418 5   4633346.27721        10.000           0.563
  20209442.222    -4208384.695 7  -3279257.26924        26.500           3.563
  22267528.089   -10736982.535 6  -8366448.77621        17.750           1.063
 91  7 26  1 20 44.9990000  0  4G 3G16G17G23
  20187009.878    -2451149.321 7  -1909985.52522        24.000           2.000
  23390124.378     5982692.667 5   4661834.73921        11.000           0.563
  20205862.472    -4227207.410 7  -3293924.30624        26.750           3.656
  22256682.753   -10793958.458 6  -8410845.49921        16.750           1.063
 91  7 26  1 20 59.9990000  0  4G 3G16G17G23
  20185592.917    -2458596.916 7  -1915788.84722        24.500           2.031
  23397089.503     6019288.169 5   4690350.70521        11.000           0.594
  20202290.144    -4245969.637 7  -3308544.20924        26.000           3.719
  22245853.222   -10850879.717 6  -8455199.63521        16.750           1.063
 91  7 26  1 21 14.9990000  0  4G 3G16G17G23
  20184188.901    -2465969.339 7  -1921533.58822        23.750           2.063
  23404052.589     6055903.901 5   4718882.39721         9.250           0.656
  20198729.839    -4264686.181 7  -3323128.51924        27.000           3.719
  22235027.714   -10907761.108 6  -8499522.71021        17.000           1.188
 91  7 26  1 21 29.9990000  0  4G 3G16G17G23
  20182803.683    -2473254.155 7  -1927210.07122        24.000           2.094
  23411031.769     6092551.769 5   4747439.11421        10.250           0.656
  20195178.480    -4283344.909 7  -3337667.77524        26.500           3.625
  22224214.698   -10964590.045 6  -8543804.92021        17.250           1.063
 91  7 26  1 21 44.9990000  0  4G 3G16G17G23
  20181432.214    -2480454.027 7  -1932820.36022        23.750           2.094
  23418007.987     6129228.167 5   4776018.08821        10.000           0.656
  20191637.636    -4301949.032 7  -3352164.48323        26.750           3.406
  22213409.487   -11021369.498 6  -8588048.55021        16.250           1.219
 91  7 26  1 21 59.9990000  0  4G 3G16G17G23
  20180078.089    -2487574.679 7  -1938368.93222        24.500           2.125
  23424992.792     6165926.971 5   4804614.50921        10.000           0.656
  20188108.105    -4320504.202 7  -3366623.05124        26.750           3.563
  22202614.378   -11078104.936 6  -8632257.88921        16.750           1.281
 91  7 26  1 22 14.9990000  0  4G 3G16G17G23
  20178739.214    -2494611.677 7  -1943852.30822        24.750           2.094
  23431982.276     6202652.427 5   4833231.71821        10.750           0.750
  20184586.214    -4339006.307 7  -3381040.26924        25.750           3.500
  22191824.534   -11134791.821 6  -8676429.41021        16.500           1.313
 91  7 26  1 22 29.9990000  0  4G 3G16G17G23
  20177415.558    -2501560.026 7  -1949266.60822        23.750           2.000
  23438974.933     6239408.876 5   4861873.07021        10.750           0.688
  20181077.019    -4357450.654 7  -3395412.47724        26.250           3.625
  22181045.464   -11191425.125 6  -8720559.16621        16.750           1.281
 91  7 26  1 22 44.9990000  0  4G 3G16G17G23
  20176111.315    -2508419.764 7  -1954611.86222        24.500           2.125
  23445974.980     6276195.921 5   4890538.24821         9.750           0.656
  20177577.370    -4375837.203 7  -3409739.63524        26.250           3.688
  22170283.480   -11248004.716 6  -8764647.08621        17.250           1.281
 91  7 26  1 22 59.9990000  0  4G 3G16G17G23
  20174821.855    -2515194.664 7  -1959891.01122        24.250           1.969
  23452983.472     6313009.249 5   4919223.91821        11.500           0.688
  20174089.823    -4394170.082 7  -3424024.98924        26.750           3.594
  22159523.362   -11304534.416 6  -8808696.11121        16.500           1.313
 91  7 26  1 23 14.9990000  0  4G 3G16G17G23
  20173549.714    -2521883.167 7  -1965102.83722        24.250           2.000
  23459991.378     6349850.144 5   4947931.08521        11.000           0.844
  20170610.909    -4412447.684 7  -3438267.25824        26.500           3.594
  22148777.034   -11361012.336 6  -8852704.79921        17.000           1.313
 91  7 26  1 23 29.9990000  0  4G 3G16G17G23
  20172293.081    -2528482.193 7  -1970244.93522        24.000           2.125
  23467010.565     6386721.456 5   4976661.93521        10.250           0.719
  20167144.659    -4430667.117 7  -3452464.20224        27.000           3.625
  22138039.034   -11417435.472 6  -8896670.79221        17.000           1.250
 91  7 26  1 23 44.9990000  0  4G 3G16G17G23
  20171054.737    -2534992.427 7  -1975317.84122        23.500           2.094
  23474029.394     6423621.548 5   5005415.19221        10.500           0.781
  20163687.823    -4448829.481 7  -3466616.68624        27.250           3.563
  22127312.948   -11473804.712 6  -8940594.80521        16.750           1.281
 91  7 26  1 23 59.9990000  0  4G 3G16G17G23
  20169832.401    -2541414.105 7  -1980321.76122        23.750           2.000
  23481056.714     6460550.165 5   5034190.69721        11.000           0.625
  20160242.503    -4466934.897 7  -3480724.78324        26.500           3.656
  22116594.612   -11530119.678 6  -8984476.51421        17.000           1.281
 91  7 26  1 24 14.9990000  0  4G 3G16G17G23
  20168626.065    -2547754.503 7  -1985262.34022        24.000           2.031
  23488091.503     6497499.107 5   5062982.03921        11.000           0.688
  20156805.456    -4484991.370 7  -3494794.74924        26.250           3.750
  22105885.823   -11586388.252 6  -9028322.07321        17.000           1.313
 91  7 26  1 24 29.9990000  0  4G 3G16G17G23
  20167435.550    -2554002.826 7  -1990131.16322        23.000           2.063
  23495127.308     6534479.203 5   5091797.66121        10.750           0.688
  20153381.448    -4502987.716 7  -3508817.86024        26.750           3.750
  22095190.433   -11642598.936 6  -9072122.52721        17.250           1.313
 91  7 26  1 24 44.9990000  0  4G 3G16G17G23
  20166264.206    -2560163.897 7  -1994932.00822        22.750           1.969
  23502171.315     6571484.550 5   5120632.92821        11.000           0.594
  20149966.526    -4520929.403 7  -3522798.37924        27.000           3.719
  22084507.550   -11698756.683 6  -9115881.74421        17.750           1.313
 91  7 26  1 24 59.9990000  0  4G 3G16G17G23
  20165107.987    -2566244.686 7  -1999670.28322        22.500           2.031
  23509219.065     6608508.091 6   5149482.40921        12.250           0.625
  20146563.456    -4538823.238 7  -3536741.61924        27.500           3.750
  22073830.292   -11754868.306 6  -9159605.00922        18.000           1.531
 91  7 26  1 25 14.9990000  0  4G 3G16G17G23
  20163968.847    -2572225.322 7  -2004330.52122        22.750           2.000
  23516266.987     6645569.372 5   5178361.29021        11.000           0.625
  20143169.206    -4556649.921 7  -3550632.52424        27.000           3.875
  22063163.394   -11810914.151 6  -9203277.01321        18.500           1.469
 91  7 26  1 25 29.9990000  0  4G 3G16G17G23
  20162846.144    -2578114.735 7  -2008919.68422        21.750           2.031
  23523325.956     6682659.184 5   5207262.40021        11.250           0.531
  20139790.409    -4574418.161 7  -3564477.89424        27.250           3.844
  22052509.784   -11866902.923 6  -9246904.56621        18.250           1.438
 91  7 26  1 25 44.9990000  0  4G 3G16G17G23
  20161741.128    -2583925.404 7  -2013447.48822        22.250           1.969
  23530386.737     6719764.499 5   5236175.58921        11.250           0.625
  20136416.128    -4592140.666 7  -3578287.62324        27.250           3.844
  22041857.980   -11922846.919 6  -9290497.21621        17.500           1.438
 91  7 26  1 25 59.9990000  0  4G 3G16G17G23
  20160653.472    -2589649.369 7  -2017907.72422        22.750           1.938
  23537450.190     6756892.154 5   5265106.18821        10.500           0.313
  20133053.933    -4609809.837 7  -3592055.78824        27.250           3.875
  22031225.933   -11978738.402 6  -9334048.95721        17.250           1.469
 91  7 26  1 26 14.9990000  0  4G 3G16G17G23
  20159582.284    -2595282.011 7  -2022296.79422        22.500           1.875
  23544522.347     6794046.583 6   5294057.63621        12.000           0.594
  20129703.503    -4627421.341 7  -3605779.02124        27.500           3.875
  22020600.276   -12034572.547 6  -9377556.00322        16.750           1.500
 91  7 26  1 26 29.9990000  0  4G 3G16G17G23
  20158526.167    -2600827.120 7  -2026617.66522        22.250           1.938
  23551597.464     6831224.106 5   5323027.11121        11.750           0.469
  20126361.659    -4644978.920 7  -3619460.23624        27.250           3.844
  22009986.987   -12090352.765 6  -9421021.04921        17.750           1.438
 91  7 26  1 26 44.9990000  0  4G 3G16G17G23
  20157492.206    -2606272.553 7  -2030860.86222        24.000           2.000
  23558678.706     6868436.057 5   5352023.39621        11.250           0.531
  20123032.339    -4662470.635 7  -3633090.12924        26.000           3.625
  21999384.894   -12146067.167 6  -9464434.79022        17.750           1.500
 91  7 26  1 26 59.9990000  0  4G 3G16G17G23
  20156469.284    -2611634.575 7  -2035039.06922        23.250           1.969
  23565760.550     6905665.674 5   5381033.45321        10.000           0.406
  20119712.901    -4679913.026 7  -3646681.58124        27.000           3.594
  21988794.401   -12201731.798 6  -9507809.76421        18.000           1.375
 91  7 26  1 27 14.9990000  0  4G 3G16G17G23
  20155466.105    -2616906.722 7  -2039147.23722        23.500           2.063
  23572852.558     6942918.826 5   5410061.85321         9.750           0.500
  20116406.089    -4697299.827 7  -3660229.72124        27.250           3.625
  21978211.245   -12257340.366 6  -9551141.04221        18.000           1.406
 91  7 26  1 27 29.9990000  0  4G 3G16G17G23
  20154481.651    -2622084.867 7  -2043182.16122        24.250           1.938
  23579943.105     6980199.594 5   5439111.76321        10.250           0.438
  20113108.823    -4714626.921 7  -3673731.34124        27.000           3.594
  21967640.542   -12312888.254 6  -9594425.04422        17.250           1.563
 91  7 26  1 27 44.9990000  0  4G 3G16G17G23
  20153513.980    -2627171.725 7  -2047145.95122        24.750           2.000
  23587040.683     7017504.779 5   5468180.71321        10.000           0.469
  20109821.855    -4731897.258 7  -3687188.72824        26.750           3.719
  21957081.073   -12368378.471 6  -9637664.11122        17.500           1.563
 91  7 26  1 27 59.9990000  0  4G 3G16G17G23
  20152561.800    -2632167.814 7  -2051039.00822        23.750           2.000
  23594143.050     7054833.303 5   5497267.82721        10.750           0.563
  20106545.792    -4749111.320 7  -3700602.27124        27.000           3.719
  21946530.792   -12423811.377 6  -9680858.51322        17.250           1.563
 91  7 26  1 28 14.9990000  0  4G 3G16G17G23
  20151629.011    -2637072.392 7  -2054860.76022        24.000           1.969
  23601252.808     7092185.305 5   5526373.23121         9.750           0.375
  20103280.847    -4766268.982 7  -3713971.85524        26.750           3.750
  21935994.589   -12479186.110 6  -9724007.58922        18.000           1.719
 91  7 26  1 28 29.9990000  0  4G 3G16G17G23
  20150711.245    -2641890.885 7  -2058615.43922        24.000           1.906
  23608366.292     7129555.221 5   5555492.63321         9.500           0.438
  20100026.730    -4783375.675 7  -3727301.72924        27.250           3.750
  21925466.581   -12534508.022 6  -9767115.51322        17.750           1.719
 91  7 26  1 28 44.9990000  0  4G 3G16G17G23
  20149815.597    -2646612.237 7  -2062294.41722        24.500           1.906
  23615483.706     7166953.411 5   5584634.03321         9.000           0.438
  20096781.401    -4800420.600 7  -3740583.47424        26.000           3.844
  21914950.128   -12589765.912 6  -9810173.53522        18.000           1.563
 91  7 26  1 28 59.9990000  0  4G 3G16G17G23
  20148932.269    -2651237.340 7  -2065898.39822        23.500           1.906
  23622603.128     7204378.837 5   5613796.68221         9.000           0.469
  20093548.589    -4817404.660 7  -3753817.79324        26.250           3.750
  21904449.753   -12644960.495 6  -9853182.24322        18.500           1.531
 91  7 26  1 29 14.9990000  0  4G 3G16G17G23
  20148071.714    -2655768.959 7  -2069429.53022        23.250           1.969
  23629726.050     7241828.418 5   5642978.13921         8.500           0.563
  20090329.737    -4834330.734 7  -3767006.92924        26.750           3.750
  21893955.995   -12700094.515 6  -9896143.74222        18.500           1.500
 91  7 26  1 29 29.9990000  0  4G 3G16G17G23
  20147226.144    -2660212.563 7  -2072892.08422        23.500           2.063
  23636852.042     7279295.562 4   5672173.25421         7.000           0.594
  20087118.714    -4851204.748 7  -3780155.49524        26.750           3.750
  21883475.847   -12755173.598 6  -9939062.43922        18.500           1.531
 91  7 26  1 29 44.9990000  0  4G 3G16G17G23
  20146398.183    -2664566.383 7  -2076284.66722        23.250           2.063
  23643988.862     7316782.209 5   5701383.57121         7.750           0.406
  20083917.745    -4868024.744 7  -3793261.97924        27.000           3.844
  21873004.448   -12810195.604 6  -9981936.65921        18.750           1.406
 91  7 26  1 29 59.9990000  0  4G 3G16G17G23
  20145589.737    -2668820.223 7  -2079599.34922        23.750           2.031
  23651132.526     7354297.782 5   5730616.46721         8.250           0.406
  20080728.800    -4884781.051 7  -3806318.82524        27.000           3.688
  21862546.925   -12865150.573 6 -10024758.64721        18.750           1.438
 91  7 26  1 30 14.9990000  0  4G 3G16G17G23
  20144798.222    -2672976.667 7  -2082838.14122        23.500           2.219
  23658273.026     7391839.490 4   5759869.70421         7.250           0.438
  20077551.183    -4901476.043 7  -3819327.89924        27.000           3.656
  21852101.362   -12920040.916 6 -10067530.26721        19.250           1.438
 91  7 26  1 30 29.9990000  0  4G 3G16G17G23
  20144026.323    -2677023.668 7  -2085991.64722        23.250           2.094
  23665429.987     7429419.057 5   5789152.40321         8.750           0.531
  20074390.120    -4918098.081 7  -3832280.11624        27.500           3.594
  21841670.745   -12974854.397 6 -10110242.00022        18.500           1.563
 91  7 26  1 30 44.9990000  0  4G 3G16G17G23
  20143274.847    -2680977.853 7  -2089072.83622        23.250           2.250
  23672582.136     7467018.914 5   5818450.96021         8.750           0.469
  20071237.269    -4934664.142 7  -3845188.72624        27.250           3.594
  21831253.159   -13029607.841 6 -10152906.95422        18.750           1.594
 91  7 26  1 30 59.9990000  0  4G 3G16G17G23
  20142541.112    -2684829.807 7  -2092074.35822        24.000           2.125
  23679745.019     7504648.426 5   5847772.62921         8.750           0.438
  20068095.948    -4951164.960 7  -3858046.49024        26.500           3.594
  21820847.706   -13084291.540 6 -10195517.56422        18.750           1.594
 91  7 26  1 31 14.9990000  0  4G 3G16G17G23
  20141823.112    -2688602.506 7  -2095014.12222        24.000           2.094
  23686909.386     7542283.966 5   5877098.97421         9.000           0.438
  20064963.815    -4967623.664 7  -3870871.44224        26.250           3.656
  21810448.839   -13138928.248 6 -10238091.55822        18.250           1.594
 91  7 26  1 31 29.9990000  0  4G 3G16G17G23
  20141121.839    -2692285.521 7  -2097883.99922        24.000           2.188
  23694071.948     7579935.919 4   5906438.13221         7.000           0.469
  20061842.401    -4984029.535 7  -3883655.22724        26.250           3.594
  21800063.573   -13193507.376 6 -10280620.68222        19.000           1.594
 91  7 26  1 31 44.9990000  0  4G 3G16G17G23
  20140440.448    -2695869.494 7  -2100676.70722        24.250           2.125
  23701240.987     7617612.957 5   5935796.77721         7.500           0.313
  20058732.097    -5000373.764 7  -3896390.98124        26.000           3.563
  21789688.269   -13248019.764 6 -10323097.79822        18.500           1.563
 91  7 26  1 31 59.9990000  0  4G 3G16G17G23
  20139777.706    -2699353.503 7  -2103391.51722        24.750           2.063
  23708417.151     7655315.589 5   5965175.39521         9.000           0.281
  20055635.183    -5016655.642 7  -3909078.14524        26.250           3.688
  21779327.933   -13302464.453 6 -10365522.16722        18.500           1.625
 91  7 26  1 32 14.9990000  0  4G 3G16G17G23
  20139133.300    -2702732.848 7  -2106024.77622        23.750           2.094
  23715596.651     7693048.162 5   5994577.39721         9.250           0.344
  20052550.190    -5032870.211 7  -3921712.86524        26.750           3.719
  21768982.433   -13356836.395 6 -10407889.84422        18.750           1.719
 91  7 26  1 32 29.9990000  0  4G 3G16G17G23
  20138510.511    -2706009.579 7  -2108578.06622        24.250           2.000
  23722781.347     7730808.193 5   6024000.79121         9.250           0.313
  20049474.847    -5049019.828 7  -3934296.97024        25.250           3.750
  21758649.433   -13411137.792 6 -10450202.55722        19.250           1.594
 91  7 26  1 32 44.9990000  0  4G 3G16G17G23
  20137906.315    -2709193.851 7  -2111059.31622        24.500           2.000
  23729969.480     7768585.201 5   6053437.36521         8.250           0.500
  20046412.034    -5065114.941 7  -3946838.60624        25.500           3.750
  21748328.105   -13465378.703 6 -10492468.13722        19.500           1.656
 91  7 26  1 32 59.9990000  0  4G 3G16G17G23
  20137317.675    -2712282.396 7  -2113465.97822        24.000           1.969
  23737160.019     7806381.826 5   6082889.22021         8.500           0.469
  20043360.558    -5081152.658 7  -3959335.51324        26.250           3.656
  21738018.355   -13519555.362 6 -10534683.65422        19.250           1.656
 91  7 26  1 33 14.9990000  0  4G 3G16G17G23
  20136746.472    -2715277.499 7  -2115799.82422        23.750           2.031
  23744360.792     7844195.353 5   6112354.23621        10.000           0.500
  20040318.839    -5097135.229 7  -3971789.45724        26.250           3.531
  21727719.753   -13573670.504 6 -10576851.24222        19.000           1.688
 91  7 26  1 33 29.9990000  0  4G 3G16G17G23
  20136197.956    -2718167.411 7  -2118051.70422        23.750           1.875
  23751561.597     7882037.365 5   6141841.51821         8.750           0.344
  20037289.823    -5113051.010 7  -3984191.36024        26.250           3.656
  21717436.323   -13627712.297 6 -10618961.66322        19.000           1.750
 91  7 26  1 33 44.9990000  0  4G 3G16G17G23
  20135669.128    -2720950.133 7  -2120220.05822        23.500           1.906
  23758767.269     7919909.140 5   6171351.93921         9.000           0.313
  20034275.065    -5128898.654 7  -3996540.16724        26.750           3.531
  21707167.714   -13681678.715 6 -10661013.35922        19.250           1.719
 91  7 26  1 33 59.9990000  0  4G 3G16G17G23
  20135153.323    -2723646.613 7  -2122321.21322        22.750           1.938
  23765977.761     7957789.652 5   6200869.16821         9.500           0.438
  20031267.948    -5144698.740 7  -4008851.91024        26.750           3.688
  21696908.847   -13735590.434 6 -10703022.43222        19.750           1.813
 91  7 26  1 34 14.9990000  0  4G 3G16G17G23
  20134660.261    -2726249.245 7  -2124349.24322        23.750           1.875
  23773181.940     7995685.981 4   6230398.74421         6.750           0.406
  20028272.331    -5160443.685 7  -4021120.69324        26.500           3.625
  21686660.167   -13789439.553 6 -10744982.72422        19.250           1.875
 91  7 26  1 34 29.9990000  0  4G 3G16G17G23
  20134184.847    -2728752.841 7  -2126300.10322        24.500           1.906
  23780399.019     8033603.165 5   6259944.50021         8.500           0.469
  20025287.308    -5176128.472 7  -4033342.59524        26.000           3.719
  21676424.753   -13843220.942 6 -10786890.24822        18.750           1.875
 91  7 26  1 34 44.9990000  0  4G 3G16G17G23
  20133725.808    -2731156.781 7  -2128173.30822        23.750           1.875
  23787624.058     8071540.970 5   6289506.37621        10.250           0.469
  20022314.198    -5191753.011 7  -4045517.55124        25.750           3.750
  21666204.230   -13896933.898 6 -10828744.44722        19.000           1.750
 91  7 26  1 34 59.9990000  0  4G 3G16G17G23
  20133290.714    -2733455.690 7  -2129964.66822        24.250           2.094
  23794845.269     8109504.446 5   6319088.28421         9.750           0.406
  20019353.339    -5207312.099 7  -4057641.50324        25.750           3.719
  21655999.058   -13950573.101 6 -10870541.17322        19.250           1.781
 91  7 26  1 35 14.9990000  0  4G 3G16G17G23
  20132870.105    -2735651.661 7  -2131675.82022        23.750           2.000
  23802075.331     8147491.144 5   6348688.27821         9.750           0.281
  20016403.628    -5222807.803 7  -4069716.06824        25.750           3.625
  21645806.347   -14004140.420 6 -10912281.88822        19.750           1.813
 91  7 26  1 35 29.9990000  0  4G 3G16G17G23
  20132472.425    -2737749.942 7  -2133310.85222        23.750           1.938
  23809308.995     8185495.701 5   6378302.16221        10.000           0.469
  20013468.401    -5238245.515 7  -4081745.44424        26.500           3.719
  21635623.683   -14057641.072 6 -10953970.65022        19.250           1.813
 91  7 26  1 35 44.9990000  0  4G 3G16G17G23
  20132091.120    -2739747.793 7  -2134867.62322        23.500           2.031
  23816541.550     8223520.235 5   6407931.58921         9.000           0.438
  20010540.886    -5253622.522 7  -4093727.52224        26.500           3.594
  21625456.073   -14111072.344 6 -10995605.35422        19.750           1.844
 91  7 26  1 35 59.9990000  0  4G 3G16G17G23
  20131729.909    -2741648.614 7  -2136348.78622        23.750           1.875
  23823781.456     8261560.734 5   6437573.49721         9.250           0.406
  20007624.901    -5268942.519 7  -4105665.17224        25.750           3.531
  21615300.042   -14164437.520 7 -11037188.54522        20.250           1.844
 91  7 26  1 36 14.9990000  0  4G 3G16G17G23
  20131387.261    -2743450.058 7  -2137752.51222        23.750           1.969
  23831022.339     8299619.109 5   6467229.33621         9.000           0.438
  20004721.909    -5284203.422 7  -4117556.77024        26.250           3.500
  21605156.948   -14217734.022 6 -11078718.23322        19.750           1.844
 91  7 26  1 36 29.9990000  0  4G 3G16G17G23
  20131063.355    -2745143.214 7  -2139071.86522        23.500           1.875
  23838269.151     8337704.250 5   6496906.02721         8.500           0.406
  20001829.433    -5299396.189 7  -4129395.28124        25.750           3.500
  21595032.956   -14270952.896 7 -11120187.44022        21.000           1.750
 91  7 26  1 36 44.9980000  0  4G 3G16G17G23
  20130762.561    -2746732.437 7  -2140310.23322        23.750           2.000
  23845520.123     8375808.646 5   6526597.68521         8.500           0.281
  19998950.615    -5314524.718 7  -4141183.73523        26.250           3.469
  21584917.740   -14324095.272 7 -11161597.02322        20.250           1.656
 91  7 26  1 36 59.9980000  0  4G 3G16G17G23
  20130480.451    -2748214.010 7  -2141464.70622        23.750           1.844
  23852771.264     8413940.820 5   6556311.01221         8.000           0.375
  19996083.772    -5329587.153 7  -4152920.68823        26.000           3.406
  21574820.592   -14377163.927 7 -11202949.18022        20.500           1.688
 91  7 26  1 37 14.9980000  0  3G 3G17G23
  20130217.647    -2749591.405 7  -2142538.00222        23.500           1.875
  19993230.279    -5344586.181 7  -4164608.23623        26.500           3.406
  21564733.553   -14430158.779 7 -11244243.81122        20.500           1.938
 91  7 26  1 37 29.9980000  0  3G 3G17G23
  20129976.912    -2750867.602 7  -2143532.44722        24.250           1.938
  19990387.287    -5359524.816 7  -4176248.71723        26.000           3.469
  21554666.248   -14483082.864 7 -11285483.31322        21.750           1.875
 91  7 26  1 37 44.9980000  0  3G 3G17G23
  20129753.334    -2752034.781 7  -2144441.95122        23.750           1.813
  19987558.139    -5374395.582 7  -4187836.32323        26.500           3.281
  21544607.678   -14535928.254 7 -11326661.48222        21.250           1.938
 91  7 26  1 37 59.9980000  0  3G 3G17G23
  20129550.787    -2753093.956 7  -2145267.28522        24.250           1.969
  19984741.115    -5389199.416 7  -4199371.76623        26.750           3.406
  21534567.186   -14588695.773 7 -11367778.97322        20.000           1.844
 91  7 26  1 38 14.9980000  0  3G 3G17G23
  20129369.826    -2754050.047 7  -2146012.29422        24.500           1.906
  19981936.084    -5403941.660 7  -4210859.22023        26.250           3.406
  21524534.264   -14641390.369 6 -11408839.64722        19.750           1.781
 91  7 26  1 38 29.9980000  0  3G 3G17G23
  20129207.857    -2754900.520 7  -2146675.00322        23.750           2.031
  19979142.904    -5418619.709 7  -4222296.65123        26.750           3.375
  21514527.451   -14694009.413 7 -11449841.44822        21.000           1.938
 91  7 26  1 38 44.9980000  0  3G 3G17G23
  20129068.373    -2755644.385 7  -2147254.64322        24.250           1.969
  19976361.279    -5433232.941 7  -4233683.57723        26.500           3.438
  21504526.475   -14746551.718 7 -11490783.45122        21.250           1.813
 91  7 26  1 38 59.9980000  0  3G 3G17G23
  20128943.107    -2756283.600 7  -2147752.73922        23.750           1.875
  19973593.772    -5447783.317 7  -4245021.52123        26.750           3.344
  21494543.162   -14799019.305 7 -11531667.23422        21.500           1.813
 91  7 26  1 39 14.9980000  0  3G 3G17G23
  20128845.248    -2756815.176 7  -2148166.96322        24.000           1.875
  19970835.818    -5462267.904 7  -4256308.20423        26.250           3.281
  21484572.959   -14851408.910 7 -11572490.24922        21.250           1.844
 91  7 26  1 39 29.9980000  0  3G 3G17G23
  20128762.990    -2757236.564 7  -2148495.32022        24.000           1.938
  19968093.123    -5476684.483 7  -4267541.89323        26.250           3.125
  21474619.967   -14903718.235 7 -11613250.70422        21.500           1.875
 91  7 26  1 39 44.9980000  0  3G 3G17G23
  20128703.709    -2757552.236 7  -2148741.29822        24.000           2.031
  19965360.404    -5491037.407 7  -4278725.97923        25.750           3.156
  21464680.998   -14955951.431 7 -11653951.84922        22.000           1.938
 91  7 26  1 39 59.9980000  0  3G 3G17G23
  20128662.506    -2757770.230 7  -2148911.16822        23.750           1.938
  19962641.545    -5505335.060 7  -4289867.00123        26.000           3.094
  21454753.904   -15008116.516 7 -11694599.90922        22.250           1.938
 91  7 26  1 40 14.9980000  0  3G 3G17G23
  20128638.303    -2757877.883 7                        23.500
  19959933.514    -5519564.894 7  -4300955.17123        26.250           3.125
  21444841.834   -15060200.709 7 -11735184.94322        21.750           1.938
 91  7 26  1 40 29.9980000  0  3G 3G17G23
  20128642.615    -2757870.868 7                        23.500
  19957239.639    -5533722.907 7  -4311987.37823        26.500           3.063
  21434943.990   -15112199.669 7 -11775703.55922        21.500           2.000
 91  7 26  1 40 44.9980000  0  3G 3G17G23
  20128663.607    -2757761.614 7                        23.250
  19954557.412    -5547821.418 7  -4322973.22323        27.000           3.063
  21425064.545   -15164125.679 7 -11816165.33422        20.250           1.969
 91  7 26  1 40 59.9980000  0  3G 3G17G23
  20128702.240    -2757550.492 7                        22.750
  19951884.084    -5561860.962 7  -4333913.11523        26.500           3.063
  21415197.381   -15215979.034 7 -11856570.50022        21.250           1.938
 91  7 26  1 41 14.9980000  0  3G 3G17G23
  20128766.912    -2757226.632 7                        23.250
  19949226.654    -5575830.666 7  -4344798.58823        26.250           3.156
  21405347.990   -15267748.680 7 -11896910.44122        22.000           2.156
 91  7 26  1 41 29.9980000  0  3G 3G17G23
  20128849.490    -2756792.114 7  -2148149.01322        23.750           1.906
  19946580.693    -5589732.917 7  -4355631.50123        26.250           3.219
  21395508.740   -15319436.709 7 -11937186.76922        21.500           2.125
 91  7 26  1 41 44.9980000  0  3G 3G17G23
  20128955.467    -2756234.415 7  -2147714.44022        23.750           1.938
  19943950.748    -5603555.298 7  -4366402.17523        26.750           3.250
  21385693.100   -15371030.574 7 -11977389.73422        21.250           2.125
 91  7 26  1 41 59.9980000  0  3G 3G17G23
  20129083.982    -2755553.620 7  -2147183.95122        23.750           1.938
  19941336.686    -5617297.884 7  -4377110.67423        27.250           3.250
  21375890.920   -15422530.062 7 -12017519.15722        21.000           2.250
 91  7 26  1 42 14.9980000  0  3G 3G17G23
  20129234.701    -2754763.096 7  -2146567.95822        23.750           1.750
  19938734.045    -5630974.443 7  -4387767.72723        27.250           3.219
  21366107.459   -15473948.614 7 -12057585.50822        21.250           2.188
 91  7 26  1 42 29.9980000  0  3G 3G17G23
  20129406.131    -2753859.521 7  -2145863.87222        23.750           1.781
  19936142.842    -5644581.719 7  -4398370.78823        26.750           3.000
  21356337.256   -15525282.946 7 -12097586.24022        20.250           2.281
 91  7 26  1 42 44.9980000  0  3G 3G17G23
  20129599.615    -2752839.410 7  -2145068.98522        23.250           1.875
  19933568.537    -5658116.279 7  -4408917.19323        26.500           3.000
  21346587.639   -15576529.342 7 -12137518.45122        21.000           2.250
 91  7 26  1 42 59.9980000  0  3G 3G17G23
  20129815.631    -2751704.623 7  -2144184.72722        23.500           1.813
  19931005.951    -5671579.965 7  -4419408.36823        25.750           3.156
  21336850.631   -15627689.618 7 -12177383.55022        21.250           2.188
 91  7 26  1 43 14.9980000  0  3G 3G17G23
  20130052.967    -2750462.905 7  -2143217.15922        23.500           1.781
  19928456.381    -5684980.714 7  -4429850.50123        26.000           3.156
  21327132.139   -15678771.464 7 -12217187.53922        21.000           2.188
 91  7 26  1 43 29.9980000  0  3G 3G17G23
  20130310.068    -2749111.208 7  -2142163.89922        22.750           1.938
  19925919.600    -5698315.754 7  -4440241.43623        26.500           3.188
  21317425.709   -15729771.773 7 -12256927.98922        21.750           2.250
 91  7 26  1 43 44.9980000  0  3G 3G17G23
  20130589.037    -2747642.557 7  -2141019.50222        22.750           1.844
  19923394.826    -5711578.162 7  -4450575.76823        26.250           3.156
  21307739.889   -15780683.253 7 -12296599.23022        22.000           2.219
 91  7 26  1 43 59.9980000  0  3G 3G17G23
  20130890.764    -2746054.323 7  -2139781.91722        23.000           1.875
  19920886.568    -5724765.504 7  -4460851.60723        26.500           3.313
  21298065.420   -15831503.224 7 -12336199.16322        20.750           2.281
 91  7 26  1 44 14.9980000  0  3G 3G17G23
  20131216.959    -2744348.980 7  -2138453.07922        24.000           1.906
  19918390.693    -5737880.285 7  -4471070.91023        26.500           3.438
  21288412.404   -15882234.210 7 -12375729.75422        20.750           2.188
 91  7 26  1 44 29.9980000  0  3G 3G17G23
  20131561.732    -2742530.634 7  -2137036.19722        23.750           1.781
  19915906.217    -5750926.833 7  -4481237.04123        26.500           3.406
  21278775.623   -15932880.155 7 -12415194.08722        21.500           2.156
 91  7 26  1 44 44.9980000  0  3G 3G17G23
  20131931.225    -2740591.119 7  -2135524.89122        23.250           1.844
  19913439.178    -5763897.060 7  -4491343.70424        26.750           3.500
  21269157.865   -15983432.924 7 -12454585.80522        22.000           2.250
 91  7 26  1 44 59.9980000  0  3G 3G17G23
  20132321.100    -2738534.607 7  -2133922.41422        23.000           1.875
  19910984.693    -5776794.997 7  -4501394.03323        27.250           3.375
  21259551.006   -16033896.363 7 -12493907.91922        20.750           2.125
 91  7 26  1 45 14.9980000  0  3G 3G17G23
  20132736.576    -2736353.958 7  -2132223.22022        23.250           1.906
  19908545.834    -5789613.966 7  -4511382.82623        27.250           3.406
  21249970.686   -16084263.458 7 -12533154.96222        21.000           2.031
 91  7 26  1 45 29.9980000  0  3G 3G17G23
  20133175.107    -2734058.582 7  -2130434.62322        24.250           2.000
  19906118.584    -5802363.392 7  -4521317.43623        27.750           3.438
  21240398.529   -16134543.288 7 -12572334.00722        20.750           2.094
 91  7 26  1 45 44.9980000  0  3G 3G17G23
  20133633.990    -2731638.785 7  -2128549.07922        23.500           2.031
  19903708.178    -5815033.755 7  -4531190.44123        27.250           3.469
  21230853.357   -16184726.468 7 -12611437.74422        21.500           2.125
 91  7 26  1 45 59.9980000  0  3G 3G17G23
  20134119.201    -2729095.634 7  -2126567.40922        24.250           1.906
  19901311.014    -5827626.277 7  -4541002.78224        27.000           3.563
  21221316.201   -16234813.774 7 -12650466.76522        21.250           2.219
 91  7 26  1 46 14.9980000  0  3G 3G17G23
  20134625.193    -2726429.043 7  -2124489.55422        23.500           1.844
  19898931.326    -5840140.698 7  -4550754.27023        27.750           3.406
  21211806.803   -16284804.731 7 -12689420.71722        21.250           2.313
 91  7 26  1 46 29.9980000  0  3G 3G17G23
  20135156.678    -2723640.816 7  -2122316.92422        23.750           1.969
  19896562.404    -5852579.174 7  -4560446.58423        27.000           3.438
  21202309.678   -16334701.477 7 -12728301.25022        21.500           2.281
 91  7 26  1 46 44.9980000  0  3G 3G17G23
  20135708.732    -2720733.594 7  -2120051.56622        23.500           2.031
  19894211.248    -5864944.207 7  -4570081.67424        27.000           3.563
  21192833.498   -16384506.271 7 -12767110.13622        21.750           2.313
 91  7 26  1 46 59.9980000  0  3G 3G17G23
  20136283.975    -2717699.520 7  -2117687.37022        23.250           2.000
  19891873.154    -5877228.199 7  -4579653.60324        26.750           3.563
  21183376.186   -16434211.081 7 -12805841.11022        22.500           2.406
 91  7 26  1 47 14.9980000  0  3G 3G17G23
  20136888.240    -2714541.974 7  -2115226.95822        24.000           1.969
  19889549.381    -5889434.792 7  -4589165.22324        26.500           3.656
  21173932.592   -16483819.638 7 -12844497.08622        21.500           2.344
 91  7 26  1 47 29.9980000  0  3G 3G17G23
  20137512.006    -2711262.510 7  -2112671.54322        24.500           1.938
  19887241.475    -5901565.507 7  -4598617.71924        26.500           3.500
  21164511.350   -16533333.274 7 -12883079.09822        21.500           2.219
 91  7 26  1 47 44.9980000  0  3G 3G17G23
  20138159.068    -2707862.722 7  -2110022.37022        24.500           2.031
  19884946.201    -5913622.093 7  -4608012.45824        26.250           3.531
  21155107.756   -16582753.198 7 -12921588.08422        22.250           2.094
 91  7 26  1 47 59.9980000  0  3G 3G17G23
  20138830.139    -2704339.185 7  -2107276.77522        24.250           1.906
  19882667.553    -5925601.238 7  -4617346.84624        27.000           3.500
  21145720.014   -16632076.059 7 -12960021.44122        21.250           2.219
 91  7 26  1 48 14.9980000  0  3G 3G17G23
  20139523.772    -2700693.687 7  -2104436.13122        24.000           1.906
  19880402.186    -5937504.634 7  -4626622.20923        26.750           3.469
  21136356.373   -16681303.551 7 -12998380.48022        22.750           2.125
 91  7 26  1 48 29.9980000  0  3G 3G17G23
  20140240.264    -2696918.489 7  -2101494.43322        23.000           2.125
  19878153.217    -5949325.041 7  -4635832.91723        27.750           3.438
  21127006.295   -16730428.153 7 -13036659.34522        23.000           2.281
 91  7 26  1 48 44.9980000  0  3G 3G17G23
  20140983.084    -2693017.808 7  -2098454.95522        23.250           2.094
  19875919.100    -5961066.578 7  -4644982.15423        27.500           3.406
  21117675.865   -16779453.600 7 -13074860.95022        22.750           2.094
 91  7 26  1 48 59.9980000  0  3G 3G17G23
  20141751.803    -2688983.491 7  -2095311.33522        23.750           1.938
  19873699.443    -5972721.114 7  -4654063.60923        26.500           3.344
  21108367.022   -16828371.765 7 -13112978.95922        23.250           2.188
 91  7 26  1 49 14.9980000  0  3G 3G17G23
  20142539.482    -2684837.455 7  -2092080.66822        22.500           2.000
  19871494.631    -5984310.887 7  -4663094.58723        27.000           3.188
  21099075.998   -16877204.457 7 -13151030.35822        24.000           2.188
 91  7 26  1 49 29.9980000  0  3G 3G17G23
  20143351.014    -2680573.170 7  -2088757.85922        22.500           2.000
  19869303.662    -5995829.198 7  -4672069.88923        26.750           3.313
  21089801.397   -16925944.828 7 -13189009.82222        24.250           2.188
 91  7 26  1 49 44.9980000  0  3G 3G17G23
  20144187.818    -2676182.135 7  -2085336.28822        23.000           1.938
  19867127.201    -6007267.642 7  -4680982.95624        27.500           3.500
  21080544.850   -16974584.465 7 -13226910.78922        22.500           2.219
 91  7 26  1 49 59.9980000  0  3G 3G17G23
  20145048.936    -2671666.658 7  -2081817.74022        23.500           2.000
  19864964.514    -6018628.816 7  -4689835.81623        26.500           3.250
  21071308.920   -17023125.555 7 -13264734.98422        24.500           2.188
 91  7 26  1 50 14.9980000  0  3G 3G17G23
  20145928.350    -2667028.224 7  -2078203.39122        23.000           2.125
  19862816.889    -6029914.425 7  -4698629.78923        26.500           3.313
  21062091.498   -17071569.759 7 -13302483.66422        23.500           2.219
 91  7 26  1 50 29.9980000  0  3G 3G17G23
  20146837.709    -2662260.617 7  -2074488.37722        22.750           2.094
  19860684.482    -6041118.168 7  -4707359.97323        26.500           3.188
  21052888.865   -17119910.539 7 -13340151.75122        23.250           2.281
 91  7 26  1 50 44.9980000  0  3G 3G17G23
  20147769.889    -2657366.177 7  -2070674.54022        22.250           2.000
  19858567.928    -6052242.805 7  -4716028.51723        26.500           3.094
  21043710.170   -17168150.402 7 -13377741.21922        23.250           2.313
 91  7 26  1 50 59.9980000  0  3G 3G17G23
  20148721.506    -2652346.513 7  -2066763.12622        21.750           2.031
  19856466.889    -6063289.376 7  -4724636.23123        26.750           3.219
  21034549.311   -17216290.592 7 -13415253.00822        23.000           2.188
 91  7 26  1 51 14.9980000  0  3G 3G17G23
  20149704.607    -2647200.190 7  -2062753.00822        22.500           1.938
  19854378.607    -6074256.883 7  -4733182.32723        26.750           3.344
  21025407.412   -17264329.476 7 -13452685.86522        22.750           2.313
 91  7 26  1 51 29.9980000  0  3G 3G17G23
  20150705.115    -2641934.338 7  -2058649.75822        22.750           1.969
  19852305.147    -6085152.408 7  -4741672.33923        26.250           3.344
  21016284.131   -17312274.136 7 -13490045.30022        23.250           2.219
 91  7 26  1 51 44.9980000  0  3G 3G17G23
  20151730.568    -2636549.903 7  -2054454.10222        22.750           1.969
  19850244.397    -6095977.246 7  -4750107.27223        26.500           3.250
  21007177.607   -17360125.621 7 -13527332.12822        23.250           2.219
 91  7 26  1 51 59.9980000  0  3G 3G17G23
  20152777.811    -2631038.267 7  -2050159.32922        22.250           1.969
  19848201.920    -6106722.658 7  -4758480.30523        27.000           3.313
  20998092.162   -17407875.050 7 -13564539.42622        23.750           2.281
 91  7 26  1 52 14.9980000  0  3G 3G17G23
  20153851.647    -2625395.164 7  -2045762.11222        22.250           1.969
  19846170.787    -6117384.653 7  -4766788.35123        26.250           3.250
  20989026.326   -17455518.165 7 -13601663.89222        24.250           2.313
 91  7 26  1 52 29.9980000  0  3G 3G17G23
  20154952.240    -2619623.459 7  -2041264.69322        22.250           1.938
  19844158.139    -6127966.126 7  -4775033.64223        26.750           3.219
  20979978.772   -17503057.638 7 -13638707.59222        23.750           2.406
 91  7 26  1 52 44.9980000  0  3G 3G17G23
  20156073.787    -2613720.992 7  -2036665.38122        22.250           2.000
  19842160.928    -6138464.962 7  -4783214.54023        27.000           3.250
  20970954.256   -17550491.204 7 -13675668.77222        23.500           2.406
 91  7 26  1 52 59.9980000  0  3G 3G17G23
  20157221.943    -2607688.965 7  -2031965.11022        22.000           2.000
  19840178.553    -6148882.340 7  -4791331.96923        27.250           3.250
  20961946.662   -17597820.081 7 -13712548.37522        23.750           2.344
 91  7 26  1 53 14.9980000  0  3G 3G17G23
  20158393.537    -2601528.899 7  -2027165.06222        21.750           2.031
  19838210.826    -6159219.871 7  -4799387.18323        26.500           3.375
  20952960.639   -17645045.400 7 -13749347.27622        23.500           2.438
 91  7 26  1 53 29.9980000  0  3G 3G17G23
  20159590.607    -2595237.315 7  -2022262.54122        22.250           1.969
  19836258.162    -6169474.519 7  -4807377.81223        26.750           3.313
  20943995.475   -17692163.927 7 -13786062.97323        23.000           2.500
 91  7 26  1 53 44.9980000  0  3G 3G17G23
  20160811.186    -2588828.711 7  -2017268.83722        22.250           1.969
  19834321.826    -6179660.616 7  -4815315.02423        27.000           3.313
  20935042.881   -17739190.131 7 -13822706.72322        23.000           2.438
 91  7 26  1 53 59.9980000  0  3G 3G17G23
  20162052.912    -2582294.484 7  -2012177.24222        22.000           2.000
  19832396.123    -6189769.561 7  -4823192.11923        26.500           3.313
  20926114.936   -17786115.029 7 -13859271.54622        23.250           2.469
 91  7 26  1 54 14.9980000  0  3G 3G17G23
  20163321.764    -2575633.989 7  -2006987.26022        22.750           2.031
  19830487.545    -6199800.734 7  -4831008.61023        26.250           3.375
  20917206.139   -17832937.907 7 -13895756.86623        23.250           2.500
 91  7 26  1 54 29.9980000  0  3G 3G17G23
  20164616.998    -2568841.160 7  -2001694.15722        23.000           2.000
  19828595.904    -6209748.372 7  -4838760.01023        26.000           3.438
  20908317.225   -17879652.843 7 -13932158.07223        23.750           2.625
 91  7 26  1 54 44.9980000  0  3G 3G17G23
  20165929.092    -2561916.632 7  -1996298.43722        21.500           2.094
  19826716.381    -6219613.173 7  -4846446.85224        26.000           3.625
  20899446.311   -17926260.024 7 -13968475.31923        23.750           2.625
 91  7 26  1 54 59.9980000  0  3G 3G17G23
  20167272.873    -2554863.257 7  -1990802.30522        21.750           2.094
  19824857.357    -6229398.009 7  -4854071.39724        26.500           3.656
  20890597.842   -17972762.386 7 -14004710.88323        24.000           2.625
 91  7 26  1 55 14.9980000  0  3G 3G17G23
  20168639.303    -2547678.001 7  -1985203.42522        21.750           2.094
  19823010.022    -6239100.015 7  -4861631.39124        26.500           3.563
  20881768.084   -18019156.716 7 -14040862.26423        23.250           2.500
 91  7 26  1 55 29.9980000  0  3G 3G17G23
  20170032.756    -2540363.130 7  -1979503.53722        22.250           1.969
  19821179.162    -6248721.227 7  -4869128.43824        26.750           3.656
  20872961.193   -18065445.214 7 -14076931.19223        23.000           2.719
 91  7 26  1 55 44.9980000  0  3G 3G17G23
  20171449.107    -2532917.968 7  -1973702.12622        21.750           1.906
  19819363.725    -6258261.226 7  -4876562.19724        26.750           3.688
  20864172.139   -18111627.120 7 -14112917.04623        23.250           2.656
 91  7 26  1 55 59.9980000  0  3G 3G17G23
  20172893.467    -2525337.954 7  -1967795.64122        22.000           2.000
  19817565.303    -6267715.694 7  -4883929.30524        26.750           3.625
  20855403.256   -18157697.909 7 -14148816.32323        22.750           2.625
 91  7 26  1 56 14.9980000  0  3G 3G17G23
  20174358.272    -2517629.308 7  -1961788.91822        21.750           1.844
  19815778.959    -6277090.607 7  -4891234.42424        26.250           3.750
  20846659.928   -18203663.548 7 -14184633.67023        24.000           2.594
 91  7 26  1 56 29.9980000  0  3G 3G17G23
  20175853.787    -2509792.571 7  -1955682.38222        22.250           1.906
  19814011.631    -6286386.703 7  -4898478.12924        26.000           3.594
  20837929.686   -18249524.592 7 -14220369.50723        23.000           2.656
 91  7 26  1 56 44.9980000  0  3G 3G17G23
  20177367.397    -2501825.625 7  -1949474.39822        21.750           1.969
  19812258.607    -6295601.961 7  -4905658.83924        26.750           3.594
  20829224.107   -18295278.516 7 -14256021.88523        23.000           2.719
 91  7 26  1 56 59.9980000  0  3G 3G17G23
  20178904.443    -2493726.691 7  -1943163.55222        21.000           1.938
  19810519.975    -6304735.044 7  -4912775.52224        26.500           3.563
  20820536.475   -18340924.037 7 -14291589.78123        23.000           2.688
 91  7 26  1 57 14.9980000  0  3G 3G17G23
  20180474.006    -2485495.550 7  -1936749.67822        21.500           2.000
  19808798.678    -6313785.235 7  -4919827.60924        26.750           3.563
  20811873.404   -18386460.315 7 -14327072.55723        23.250           2.750
 91  7 26  1 57 29.9980000  0  3G 3G17G23
  20182063.357    -2477133.648 7  -1930233.93022        21.500           1.938
  19807091.772    -6322754.192 7  -4926816.40624        27.000           3.656
  20803227.982   -18431888.719 7 -14362471.27223        23.000           2.781
 91  7 26  1 57 44.9980000  0  3G 3G17G23
  20183683.217    -2468638.816 7  -1923614.59022        22.250           1.906
  19805401.193    -6331639.904 7  -4933740.33024        26.750           3.563
  20794604.420   -18477207.056 7 -14397784.22723        23.000           2.781
 91  7 26  1 57 59.9980000  0  3G 3G17G23
  20185324.311    -2460008.336 7  -1916889.55222        22.500           1.844
  19803725.889    -6340439.818 7  -4940597.39724        26.500           3.563
  20786000.756   -18522412.583 7 -14433009.27523        22.750           2.813
 91  7 26  1 58 14.9980000  0  3G 3G17G23
  20186991.451    -2451251.013 7  -1910065.68022        22.250           1.875
  19802064.584    -6349162.646 7  -4947394.39424        27.000           3.563
  20777417.342   -18567514.077 7 -14468153.25823        22.250           2.875
 91  7 26  1 58 29.9980000  0  3G 3G17G23
  20188684.232    -2442360.645 7  -1903138.13822        22.000           1.781
  19800422.248    -6357802.100 7  -4954126.42824        27.500           3.531
  20768857.100   -18612504.986 7 -14503211.07423        22.500           2.875
 91  7 26  1 58 44.9980000  0  3G 3G17G23
  20190399.482    -2433341.751 7  -1896110.44722        21.750           1.781
  19798791.889    -6366362.958 7  -4960797.21724        27.000           3.563
  20760316.607   -18657389.815 7 -14538186.22723        22.500           2.875
 91  7 26  1 58 59.9980000  0  3G 3G17G23
  20192139.287    -2424191.260 7  -1888980.21322        20.500           1.719
  19797180.193    -6374842.118 8  -4967404.34924        28.000           3.656
  20751795.303   -18702165.482 7 -14573076.31923        23.250           2.938
 91  7 26  1 59 14.9980000  0  3G 3G17G23
  20193904.662    -2414913.953 7  -1881751.15522        20.750           1.750
  19795580.373    -6383244.394 7  -4973951.56724        27.000           3.563
  20743294.967   -18746836.517 7 -14607884.88323        22.750           2.875
 91  7 26  1 59 29.9980000  0  3G 3G17G23
  20195696.107    -2405506.810 7  -1874420.92322        21.000           1.719
  19793996.498    -6391567.019 7  -4980436.72624        27.000           3.500
  20734815.857   -18791399.932 7 -14642609.59423        22.750           2.969
 91  7 26  1 59 44.9980000  0  3G 3G17G23
  20197508.115    -2395974.535 7  -1866993.18822        21.500           1.813
  19792427.178    -6399814.708 7  -4986863.48823        26.250           3.406
  20726354.365   -18835860.226 7 -14677253.94323        23.000           3.125
 91  7 26  1 59 59.9980000  0  3G 3G17G23
  20199350.365    -2386315.235 7  -1859466.47322        22.750           1.688
  19790872.068    -6407985.603 7  -4993230.41723        26.000           3.344
  20717912.498   -18880215.569 7 -14711816.51323        22.500           3.063
 91  7 26  2  0 14.9980000  0  3G 3G17G23
  20201214.975    -2376517.572 7  -1851831.93922        22.750           1.750
  19789333.232    -6416068.309 7  -4999528.61923        25.250           3.219
  20709496.568   -18924454.319 7 -14746288.23323        23.500           3.000
 91  7 26  2  0 29.9980000  0  3G 3G17G23
  20203097.701    -2366597.687 7  -1844102.18122        21.500           1.688
  19787811.553    -6424079.140 7  -5005770.81823        26.250           3.375
  20701097.037   -18968592.628 7 -14780681.67923        23.000           3.031
 91  7 26  2  0 44.9980000  0  3G 3G17G23
  20205011.217    -2356555.075 7  -1836276.77622        22.250           1.688
  19786299.459    -6432017.555 7  -5011956.59523        26.250           3.281
  20692715.334   -19012629.854 7 -14814996.37823        22.750           3.125
 91  7 26  2  0 59.9980000  0  3G 3G17G23
  20206947.834    -2346384.975 7  -1828352.03922        22.000           1.656
  19784802.678    -6439879.005 7  -5018082.39323        25.750           3.281
  20684354.889   -19056561.200 7 -14849228.56423        23.000           3.063
 91  7 26  2  1 14.9980000  0  3G 3G17G23
  20208904.740    -2336085.799 7  -1820326.72422        21.750           1.656
  19783322.232    -6447661.677 7  -5024146.80423        25.750           3.313
  20676018.256   -19100384.867 7 -14883376.84523        24.000           3.156
 91  7 26  2  1 29.9980000  0  3G 3G17G23
  20210894.998    -2325645.755 7  -1812191.65022        22.750           1.594
  19781857.498    -6455353.856 7  -5030140.70223        25.250           3.250
  20667700.889   -19144088.928 7 -14917431.91223        23.750           3.031
 91  7 26  2  1 44.9980000  0  3G 3G17G23
  20212904.139    -2315087.102 7  -1803964.13722        22.750           1.625
  19780407.592    -6462978.127 7  -5036081.68523        25.750           3.250
  20659401.475   -19187695.858 7 -14951411.30623        23.750           3.094
 91  7 26  2  1 59.9980000  0  3G 3G17G23
  20214939.154    -2304402.122 7  -1795638.19022        23.500           1.625
  19778970.678    -6470526.504 7  -5041963.53123        25.250           3.313
  20651124.959   -19231197.540 7 -14985308.68923        23.750           3.125
 91  7 26  2  2 14.9980000  0  3G 3G17G23
  20216994.459    -2293587.770 7  -1787211.44122        23.500           1.688
  19777549.498    -6477996.093 7  -5047783.98823        25.250           3.313
  20642865.365   -19274590.821 7 -15019121.60923        23.750           3.063
 91  7 26  2  2 29.9980000  0  3G 3G17G23
  20219077.436    -2282645.687 7  -1778685.16222        23.500           1.625
  19776144.357    -6485388.802 7  -5053544.53223        25.750           3.281
  20634629.943   -19317877.218 7 -15052851.23923        24.000           3.063
 91  7 26  2  2 44.9980000  0  3G 3G17G23
  20221182.287    -2271571.428 7  -1770055.89222        22.500           1.656
  19774750.873    -6492700.007 7  -5059241.57423        25.250           3.375
  20626413.654   -19361052.180 7 -15086494.03423        24.000           3.031
 91  7 26  2  2 59.9980000  0  3G 3G17G23
  20223315.686    -2260372.268 7  -1761329.28722        23.250           1.719
  19773374.615    -6499937.111 7  -5064880.87223        25.250           3.281
  20618216.686   -19404122.873 7 -15120055.58423        24.000           3.000
 91  7 26  2  3 14.9980000  0  3G 3G17G23
  20225467.147    -2249048.132 7  -1752505.30222        23.000           1.688
  19772011.490    -6507099.866 7  -5070462.23923        25.000           3.438
  20610040.686   -19447089.103 7 -15153535.73323        24.250           3.000
 91  7 26  2  3 29.9980000  0  3G 3G17G23
  20227647.764    -2237596.773 7  -1743582.17622        22.750           1.625
  19770662.803    -6514186.179 7  -5075984.04123        25.250           3.406
  20601885.303   -19489948.644 7 -15186932.74323        24.250           3.000
 91  7 26  2  3 44.9980000  0  3G 3G17G23
  20229853.006    -2226018.933 7  -1734560.50122        23.500           1.594
  19769328.193    -6521196.893 7  -5081446.93123        25.000           3.406
  20593750.467   -19532702.203 7 -15220247.17023        24.000           2.938
 91  7 26  2  3 59.9980000  0  3G 3G17G23
  20232080.381    -2214315.981 7  -1725441.33422        23.500           1.781
  19768007.647    -6528133.209 7  -5086851.84823        24.750           3.344
  20585633.334   -19575350.666 7 -15253479.70923        24.250           3.063
 91  7 26  2  4 14.9980000  0  3G 3G17G23
  20234331.467    -2202484.371 7  -1716221.91722        23.000           1.719
  19766705.139    -6534991.796 7  -5092196.20023        26.000           3.313
  20577538.647   -19617890.478 7 -15286627.58023        24.500           3.031
 91  7 26  2  4 29.9980000  0  3G 3G17G23
  20236606.850    -2190526.057 7  -1706903.77022        23.750           1.750
  19765412.225    -6541774.838 7  -5097481.67823        25.500           3.313
  20569463.006   -19660323.731 7 -15319692.41523        24.000           3.094
 91  7 26  2  4 44.9980000  0  3G 3G17G23
  20238905.740    -2178437.057 7  -1697483.80022        23.250           1.906
  19764139.365    -6548478.242 7  -5102705.11023        27.250           3.469
  20561409.498   -19702646.340 7 -15352671.03923        24.000           3.031
 91  7 26  2  4 59.9980000  0  3G 3G17G23
  20241234.537    -2166209.175 7  -1687955.59022        23.000           1.719
  19762879.006    -6555093.868 7  -5107860.14424        26.750           3.500
  20553380.732   -19744849.854 7 -15385556.86423        24.750           3.094
 91  7 26  2  5 14.9980000  0  3G 3G17G23
  20243588.264    -2153840.915 7  -1678318.00722        22.500           1.781
  19761635.318    -6561620.060 7  -5112945.48924        26.250           3.625
  20545373.139   -19786932.692 7 -15418348.65523        25.500           3.063
 91  7 26  2  5 29.9980000  0  3G 3G17G23
  20245966.147    -2141341.203 7  -1668577.98522        22.250           1.875
  19760409.162    -6568065.927 7  -5117968.23824        26.500           3.531
  20537383.209   -19828903.672 7 -15451053.27823        24.750           3.094
 91  7 26  2  5 44.9980000  0  3G 3G17G23
  20248364.748    -2128725.468 7  -1658747.55722        21.500           1.750
  19759195.045    -6574446.825 7  -5122940.36424        27.250           3.719
  20529416.178   -19870777.921 7 -15483682.53223        24.750           3.063
 91  7 26  2  5 59.9980000  0  3G 3G17G23
  20250794.147    -2115976.917 7  -1648813.62422        22.500           1.719
  19757996.436    -6580745.902 7  -5127848.72924        26.750           3.563
  20521468.639   -19912538.699 7 -15516223.36223        23.750           3.063
 91  7 26  2  6 14.9980000  0  3G 3G17G23
  20253240.287    -2103101.019 7  -1638780.48522        21.750           1.781
  19756811.201    -6586968.710 7  -5132697.66924        26.750           3.719
  20513543.170   -19954191.420 7 -15548680.00023        24.250           2.969
 91  7 26  2  6 29.9980000  0  3G 3G17G23
  20255717.225    -2090093.314 7  -1628644.62622        21.750           1.781
  19755643.139    -6593110.578 7  -5137483.54024        26.500           3.656
  20505637.904   -19995731.338 7 -15581048.73123        24.500           2.969
 91  7 26  2  6 44.9980000  0  3G 3G17G23
  20258216.764    -2076954.615 7  -1618406.69522        21.500           1.719
  19754490.748    -6599172.864 7  -5142207.39424        27.000           3.719
  20497754.967   -20037159.375 7 -15613330.28623        24.500           2.969
 91  7 26  2  6 59.9980000  0  3G 3G17G23
  20260741.420    -2063680.135 7  -1608062.95922        21.250           1.688
  19753352.943    -6605150.659 7  -5146865.41624        26.500           3.719
  20489891.959   -20078470.503 7 -15645520.75123        24.500           3.031
 91  7 26  2  7 14.9980000  0  3G 3G17G23
  20263294.264    -2050276.357 7  -1597618.48122        21.000           1.625
  19752229.498    -6611050.522 7  -5151462.71224        26.250           3.688
  20482054.397   -20119671.096 7 -15677625.08223        25.500           3.031
 91  7 26  2  7 29.9980000  0  3G 3G17G23
  20265869.701    -2036740.429 7  -1587071.03022        20.250           1.656
  19751122.209    -6616869.410 7  -5155996.90624        26.250           3.625
  20474234.303   -20160758.209 7 -15709640.97423        25.500           3.000
 91  7 26  2  7 44.9980000  0  3G 3G17G23
  20268471.670    -2023075.679 7  -1576423.18822        20.750           1.563
  19750030.818    -6622610.707 7  -5160470.64124        26.750           3.813
  20466435.748   -20201735.088 7 -15741570.98623        25.250           3.000
 91  7 26  2  7 59.9980000  0  3G 3G17G23
  20271097.201    -2009284.474 7  -1565676.81422        21.250           1.625
  19748953.420    -6628276.849 7  -5164885.80924        27.000           3.844
  20458660.350   -20242604.058 7 -15773416.90323        24.750           2.969
 91  7 26  2  8 14.9970000  0  3G 3G17G23
  20273744.415    -1995364.122 7  -1554829.79722        21.000           1.625
  19747888.040    -6633863.750 7  -5169239.23524        26.250           3.844
  20450903.673   -20283358.589 7 -15805173.65123        25.250           3.094
 91  7 26  2  8 29.9970000  0  3G 3G17G23
  20276416.392    -1981313.077 7  -1543880.94422        20.750           1.656
  19746840.540    -6639372.513 7  -5173531.76724        26.500           3.750
  20443169.540   -20324003.982 7 -15836845.35023        25.000           3.031
 91  7 26  2  8 44.9970000  0  3G 3G17G23
  20279116.009    -1967130.926 7  -1532829.93522        21.250           1.625
  19745808.540    -6644801.427 7  -5177762.09024        27.000           3.688
  20435455.884   -20364536.371 7 -15868429.00523        24.500           2.969
 91  7 26  2  8 59.9970000  0  3G 3G17G23
  20281840.149    -1952820.833 7  -1521679.23522        21.500           1.625
  19744788.126    -6650153.858 7  -5181932.80724        26.000           3.688
  20427761.962   -20404958.925 7 -15899927.06523        24.750           2.906
 91  7 26  2  9 14.9970000  0  3G 3G17G23
  20284585.985    -1938382.588 7  -1510428.67622        20.750           1.531
  19743785.751    -6655429.608 7  -5186043.77724        26.250           3.594
  20420093.337   -20445271.158 7 -15931339.16423        25.000           3.000
 91  7 26  2  9 29.9970000  0  3G 3G17G23
  20287358.595    -1923812.058 7  -1499075.02922        21.000           1.500
  19742796.790    -6660624.663 7  -5190091.87324        25.750           3.625
  20412444.407   -20485468.959 7 -15962662.09823        26.000           2.969
 91  7 26  2  9 44.9970000  0  3G 3G17G23
  20290158.845    -1909107.570 7  -1487616.99822        21.500           1.500
  19741823.845    -6665736.925 7  -5194075.45124        26.000           3.719
  20404816.228   -20525550.377 7 -15993894.33523        25.500           2.875
 91  7 26  2  9 59.9970000  0  3G 3G17G23
  20292981.313    -1894274.694 7  -1476058.94321        21.750           1.469
  19740865.024    -6670772.137 7  -5197998.98224        25.500           3.719
  20397211.938   -20565520.800 7 -16025040.09423        25.750           2.969
 91  7 26  2 10 14.9970000  0  3G 3G17G23
  20295830.517    -1879312.131 7  -1464399.81422        22.000           1.500
  19739921.493    -6675729.021 7  -5201861.48324        25.250           3.656
  20389624.610   -20605379.073 7 -16056098.46223        25.500           3.000
 91  7 26  2 10 29.9970000  0  3G 3G17G23
  20298698.642    -1864222.726 7  -1452641.85222        21.000           1.594
  19738992.196    -6680610.482 7  -5205665.21824        25.500           3.563
  20382062.478   -20645127.817 7 -16087071.47923        26.000           3.094
 91  7 26  2 10 44.9970000  0  3G 3G17G23
  20301594.923    -1849007.752 7  -1440786.05022        21.500           1.531
  19738078.290    -6685417.749 7  -5209411.14124        25.500           3.500
  20374518.899   -20684768.230 7 -16117960.08123        25.750           3.031
 91  7 26  2 10 59.9970000  0  3G 3G17G23
  20304513.774    -1833664.479 7  -1428830.27622        21.250           1.625
  19737178.571    -6690147.997 7  -5213097.03624        26.250           3.531
  20366995.774   -20724297.183 7 -16148761.83223        25.000           3.063
 91  7 26  2 11 14.9970000  0  3G 3G17G23
  20307456.774    -1818193.238 7  -1416774.78822        21.500           1.625
  19736292.743    -6694801.585 7  -5216723.20623        26.000           3.469
  20359496.032   -20763715.055 7 -16179477.02823        25.500           3.125
 91  7 26  2 11 29.9970000  0  3G 3G17G23
  20310426.282    -1802594.003 7  -1404619.55822        21.250           1.688
  19735423.454    -6699378.643 7  -5220289.73823        27.250           3.438
  20352013.821   -20803021.716 7 -16210105.56523        24.500           3.156
 91  7 26  2 11 44.9970000  0  3G 3G17G23
  20313419.532    -1786869.824 7  -1392366.96422        22.000           1.781
  19734565.618    -6703882.003 7  -5223798.84823        26.250           3.406
  20344554.063   -20842220.170 7 -16240649.78823        25.000           3.125
 91  7 26  2 11 59.9970000  0  3G 3G17G23
  20316436.642    -1771015.992 7  -1380013.35622        22.000           1.719
  19733721.024    -6708307.094 7  -5227246.97023        25.750           3.406
  20337118.743   -20881305.732 7 -16271106.04323        25.750           3.094
 91  7 26  2 12 14.9970000  0  3G 3G17G23
  20319478.462    -1755029.883 7  -1367556.65822        22.000           1.594
  19732895.665    -6712651.257 7  -5230632.03224        25.750           3.500
  20329701.720   -20920275.427 7 -16301472.01223        25.000           3.063
 91  7 26  2 12 29.9970000  0  3G 3G17G23
  20322543.368    -1738916.333 7  -1355000.66822        22.250           1.594
  19732083.720    -6716919.529 7  -5233957.96224        25.500           3.594
  20322306.790   -20959134.212 7 -16331751.55523        25.000           3.094
 91  7 26  2 12 44.9970000  0  3G 3G17G23
  20325635.603    -1722673.726 7  -1342344.11122        22.250           1.719
  19731286.649    -6721109.986 7  -5237223.24424        25.500           3.688
  20314933.579   -20997879.868 7 -16361942.94523        25.000           3.125
 91  7 26  2 12 59.9970000  0  3G 3G17G23
  20328748.204    -1706306.533 7  -1329590.47222        22.000           1.625
  19730502.337    -6725227.279 7  -5240431.52424        25.500           3.625
  20307582.845   -21036517.102 7 -16392049.85223        25.500           3.063
 91  7 26  2 13 14.9970000  0  3G 3G17G23
  20331891.735    -1689809.055 7  -1316735.31022        22.500           1.719
  19729734.970    -6729265.648 7  -5243578.29824        26.250           3.688
  20300249.438   -21075039.951 7 -16422067.62723        24.750           3.125
 91  7 26  2 13 29.9970000  0  3G 3G17G23
  20335053.290    -1673181.520 7  -1303778.81322        22.250           1.563
  19728981.353    -6733225.193 7  -5246663.66224        25.500           3.531
  20292943.556   -21113448.786 7 -16451996.57023        26.250           3.156
 91  7 26  2 13 44.9970000  0  3G 3G17G23
  20338241.923    -1656428.036 7  -1290724.16722        22.000           1.688
  19728241.251    -6737110.147 7  -5249690.89124        25.500           3.656
  20285656.978   -21151747.328 7 -16481839.55623        26.750           3.125
 91  7 26  2 13 59.9970000  0  3G 3G17G23
  20341454.978    -1639544.621 7  -1277568.27122        21.750           1.688
  19727517.048    -6740916.684 7  -5252657.02323        26.250           3.469
  20278387.462   -21189931.671 7 -16511593.56623        25.750           3.219
 91  7 26  2 14 14.9970000  0  3G 3G17G23
  20344691.376    -1622528.926 7  -1264309.30422        21.000           1.688
  19726808.579    -6744642.122 7  -5255559.96023        26.250           3.375
  20271145.571   -21227999.100 7 -16541256.47523        26.750           3.188
 91  7 26  2 14 29.9970000  0  3G 3G17G23
  20347954.821    -1605385.743 7  -1250950.99522        21.500           1.656
  19726112.345    -6748291.213 7  -5258403.41323        25.500           3.406
  20263922.642   -21265954.379 7 -16570831.98423        26.500           3.250
 91  7 26  2 14 44.9970000  0  3G 3G17G23
  20351240.438    -1588111.145 7  -1237490.29722        20.250           1.688
  19725435.423    -6751860.171 7  -5261184.42123        26.750           3.375
  20256720.837   -21303793.441 7 -16600316.93823        25.750           3.094
 91  7 26  2 14 59.9970000  0  3G 3G17G23
  20354554.540    -1570707.844 7  -1223929.29022        20.750           1.688
  19724769.876    -6755351.509 7  -5263904.94123        26.750           3.438
  20249541.978   -21341519.062 7 -16629713.50623        25.250           3.125
 91  7 26  2 15 14.9970000  0  3G 3G17G23
  20357893.040    -1553172.473 7  -1210265.38022        21.000           1.750
  19724119.657    -6758761.992 7  -5266562.45924        26.500           3.500
  20242384.728   -21379127.590 7 -16659018.82723        24.750           3.000
 91  7 26  2 15 29.9970000  0  3G 3G17G23
  20361251.337    -1535503.649 7  -1196497.49622        20.250           1.750
  19723489.048    -6762090.227 7  -5269155.89024        27.000           3.531
  20235249.556   -21416617.490 7 -16688231.70623        24.750           2.969
 91  7 26  2 15 44.9970000  0  3G 3G17G23
  20364638.313    -1517707.336 7  -1182630.25022        20.750           1.625
  19722869.142    -6765341.946 7  -5271689.70124        26.250           3.500
  20228138.923   -21453994.582 7 -16717356.68923        25.500           3.000
 91  7 26  2 15 59.9970000  0  3G 3G17G23
  20368052.329    -1499781.295 7  -1168661.93322        20.500           1.688
  19722266.571    -6768515.107 7  -5274162.29424        26.750           3.656
  20221047.540   -21491256.798 7 -16746392.15123        25.500           3.094
 91  7 26  2 16 14.9970000  0  3G 3G17G23
  20371486.235    -1481724.533 7  -1154591.75022        20.250           1.781
  19721676.657    -6771608.829 7  -5276572.98524        26.750           3.500
  20213979.017   -21528402.863 7 -16775337.10623        25.500           3.031
 91  7 26  2 16 29.9970000  0  3G 3G17G23
  20374948.298    -1463540.562 7  -1140422.43922        20.000           1.656
  19721103.274    -6774626.402 7  -5278924.35324        27.000           3.500
  20206931.813   -21565436.025 7 -16804194.08323        25.250           3.031
 91  7 26  2 16 44.9970000  0  3G 3G17G23
  20378432.470    -1445219.604 6  -1126146.38722        19.750           1.688
  19720544.274    -6777558.195 7  -5281208.86924        26.500           3.531
  20199906.782   -21602346.570 7 -16832955.51623        25.750           3.219
 91  7 26  2 16 59.9970000  0  3G 3G17G23
  20381946.298    -1426764.795 7  -1111766.03222        20.250           1.531
  19720002.517    -6780407.008 7  -5283428.71724        26.250           3.594
  20192906.556   -21639137.336 7 -16861623.61923        25.500           3.063
 91  7 26  2 17 14.9970000  0  3G 3G17G23
  20385483.282    -1408176.956 7  -1097282.02221        21.000           1.438
  19719476.423    -6783173.912 7  -5285584.75324        26.000           3.625
  20185928.923   -21675809.100 7 -16890198.99723        25.750           3.125
 91  7 26  2 17 29.9970000  0  3G 3G17G23
  20389045.415    -1389457.095 7  -1082695.14622        21.000           1.531
  19718964.735    -6785859.603 7  -5287677.50024        25.750           3.531
  20178973.048   -21712362.586 7 -16918682.21123        25.750           3.063
 91  7 26  2 17 44.9970000  0  3G 3G17G23
  20392632.884    -1370606.748 7  -1068006.58421        20.500           1.469
  19718469.298    -6788465.833 7  -5289708.33323        25.750           3.438
  20172039.032   -21748799.310 7 -16947074.43323        26.000           3.094
 91  7 26  2 17 59.9970000  0  3G 3G17G23
  20396244.853    -1351621.366 7  -1053212.80321        20.250           1.406
  19717989.274    -6790987.833 7  -5291673.52923        26.000           3.438
  20165126.704   -21785114.776 7 -16975372.16923        25.250           3.063
 91  7 26  2 18 14.9970000  0  3G 3G17G23
  20399884.548    -1332499.189 7  -1038312.43221        20.250           1.438
  19717525.337    -6793424.053 7  -5293571.88424        26.000           3.500
  20158242.892   -21821306.893 7 -17003573.80023        26.000           3.125
 91  7 26  2 18 29.9970000  0  3G 3G17G23
  20403545.985    -1313242.865 7  -1023307.52522        20.750           1.500
  19717075.368    -6795776.938 7  -5295405.31024        25.250           3.531
  20151376.009   -21857377.988 7 -17031681.12423        25.500           3.219
 91  7 26  2 18 44.9970000  0  3G 3G17G23
  20407240.095    -1293852.949 7  -1008198.52421        21.250           1.469
  19716645.712    -6798047.002 7  -5297174.19124        25.750           3.531
  20144536.642   -21893328.929 7 -17059694.81523        25.000           3.156
 91  7 26  2 18 59.9970000  0  3G 3G17G23
  20410953.610    -1274333.148 7   -992988.31121        21.250           1.406
  19716228.384    -6800237.882 7  -5298881.37824        26.000           3.594
  20137718.274   -21929163.144 7 -17087617.55623        25.500           3.219
 91  7 26  2 19 14.9970000  0  4G 3G21G17G23
  20414692.337    -1254682.291 7   -977675.98421        21.000           1.406
  23745243.165          -0.06914                         6.250
  19715825.806    -6802348.569 7  -5300526.07124        25.250           3.656
  20130919.157   -21964879.385 7 -17115448.36123        25.250           3.156
 91  7 26  2 19 29.9970000  0  4G 3G21G17G23
  20418454.376    -1234903.276 7   -962263.78221        20.500           1.469
  23733156.040      -63515.641 4                         6.750
  19715439.837    -6804381.778 7  -5302110.39324        25.500           3.719
  20124147.384   -22000480.445 7 -17143189.42523        26.250           3.125
 91  7 26  2 19 44.9970000  0  4G 3G21G17G23
  20422243.173    -1214994.631 7   -946750.57521        21.500           1.438
  23721076.923     -126990.225 4                         6.750
  19715069.157    -6806336.007 7  -5303633.16724        25.000           3.719
  20117391.688   -22035964.641 7 -17170839.42223        25.250           3.000
 91  7 26  2 19 59.9970000  0  4G 3G21G17G23
  20426056.337    -1194951.445 7   -931132.54021        21.000           1.313
  23709000.095     -190418.731 4                         6.250
  19714712.642    -6808206.188 7  -5305090.46224        25.750           3.719
  20110663.462   -22071326.914 7 -17198394.42423        25.250           3.094
 91  7 26  2 20 14.9970000  0  4G 3G21G17G23
  20429896.478    -1174771.023 7   -915407.55721        21.250           1.375
  23696946.118     -253798.278 4        -0.49631         6.750           0.375
  19714372.970    -6809989.886 7  -5306480.35724        25.250           3.719
  20103958.899   -22106564.464 7 -17225852.23823        25.250           3.000
 91  7 26  2 20 29.9970000  0  4G 3G21G17G23
  20433765.978    -1154454.974 7   -899576.89221        21.250           1.406
  23684892.235     -317130.168 4    -49349.80321         6.750           0.344
  19714051.478    -6811688.553 7  -5307803.99924        26.000           3.719
  20097275.978   -22141678.712 7 -17253213.96023        24.750           3.000
 91  7 26  2 20 44.9970000  0  4G 3G21G17G23
  20437654.571    -1134003.325 7   -883640.56821        21.500           1.406
  23672853.790     -380414.045 4    -98661.73221         7.000           0.281
  19713742.399    -6813301.676 7  -5309060.98624        25.750           3.594
  20090617.087   -22176669.501 7 -17280479.48023        24.750           3.063
 91  7 26  2 20 59.9970000  0  4G 3G21G17G23
  20441577.970    -1113405.164 7   -867590.08021        21.500           1.375
  23660812.931     -443638.970 4   -147927.70721         6.500           0.375
  19713453.478    -6814818.848 7  -5310243.19724        25.750           3.625
  20083984.993   -22211525.977 7 -17307640.34723        25.250           2.969
 91  7 26  2 21 14.9970000  0  4G 3G21G17G23
  20445524.267    -1092663.145 7   -851427.48721        22.500           1.406
  23648799.923     -506807.195 4   -197149.51621         6.750           0.281
  19713183.157    -6816242.620 7  -5311352.63624        25.500           3.625
  20077376.665   -22246250.572 7 -17334698.44923        24.750           3.031
 91  7 26  2 21 29.9970000  0  4G 3G21G17G23
  20449496.837    -1071785.915 7   -835159.54521        22.250           1.313
  23636794.415     -569927.211 4   -246333.74121         7.000           0.313
  19712929.321    -6817581.468 7  -5312395.89823        26.000           3.469
  20070791.321   -22280851.875 7 -17361660.47123        24.000           3.000
 91  7 26  2 21 44.9970000  0  4G 3G21G17G23
  20453498.345    -1050761.853 7   -818777.18321        21.500           1.281
  23624790.517     -632987.004 4   -295471.04721         6.750           0.313
  19712691.782    -6818823.673 7  -5313363.84724        26.250           3.563
  20064232.563   -22315318.117 7 -17388517.25223        24.500           3.063
 91  7 26  2 21 59.9970000  0  4G 3G21G17G23
  20457522.063    -1029601.495 7   -802288.62221        20.500           1.438
  23612795.165     -695996.947 4   -344569.54621         7.000           0.281
  19712470.103    -6819979.637 7  -5314264.60223        25.750           3.406
  20057700.267   -22349659.684 7 -17415276.89123        25.250           3.000
 91  7 26  2 22 14.9970000  0  4G 3G21G17G23
  20461578.438    -1008304.152 7   -785693.30921        20.750           1.406
  23600817.845     -758956.000 4   -393628.33021         6.750           0.344
  19712269.181    -6821048.737 7  -5315097.67623        26.000           3.375
  20051186.853   -22383875.552 7 -17441938.58223        24.750           3.094
 91  7 26  2 22 29.9970000  0  4G 3G21G17G23
  20465655.407     -986869.607 7   -768991.08421        20.500           1.438
  23588842.532     -821863.667 4   -442647.12521         6.750           0.344
  19712083.407    -6822030.809 7  -5315862.92823        26.500           3.375
  20044699.845   -22417965.622 7 -17468502.25023        24.250           3.219
 91  7 26  2 22 44.9970000  0  4G 3G21G17G23
  20469762.610     -965296.199 7   -752180.65821        20.750           1.406
  23576877.423     -884718.150 4   -491624.46921         7.000           0.313
  19711912.923    -6822924.174 7  -5316559.06223        26.000           3.344
  20038236.946   -22451927.955 7 -17494966.38023        24.250           3.250
 91  7 26  2 22 59.9970000  0  4G 3G21G17G23
  20473891.993     -943590.201 7   -735266.91921        20.000           1.406
  23564934.509     -947525.576 5   -540565.11221         7.500           0.281
  19711759.610    -6823734.803 7  -5317190.72223        26.000           3.469
  20031797.493   -22485768.864 7 -17521335.89123        25.500           3.125
 91  7 26  2 23 14.9970000  0  4G 3G21G17G23
  20478045.118     -921749.174 6   -718247.96321        19.500           1.469
  23552986.790    -1010283.093 5   -589466.88721         7.750           0.344
  19711620.267    -6824460.370 7  -5317756.09524        26.000           3.500
  20025381.845   -22519485.727 7 -17547608.74923        26.250           3.219
 91  7 26  2 23 29.9970000  0  4G 3G21G17G23
  20482230.782     -899767.653 7   -701119.52221        21.000           1.406
  23541062.103    -1072984.940 5   -638325.28921         7.750           0.313
  19711499.087    -6825095.112 7  -5318250.70524        26.000           3.594
  20018988.626   -22553072.865 7 -17573780.52023        24.750           3.063
 91  7 26  2 23 44.9970000  0  4G 3G21G17G23
  20486438.110     -877651.117 7   -683885.88621        20.250           1.375
  23529134.501    -1135636.618 5   -687144.60921         7.750           0.281
  19711393.899    -6825644.794 7  -5318679.02824        25.250           3.531
  20012622.743   -22586535.881 7 -17599855.57623        25.750           3.125
 91  7 26  2 23 59.9970000  0  4G 3G21G17G23
  20490671.876     -855405.691 7   -666551.80421        20.250           1.438
  23517223.392    -1198243.641 5   -735929.10421         8.250           0.281
  19711304.618    -6826115.308 7  -5319045.66224        25.500           3.531
  20006276.774   -22619880.429 7 -17625838.31123        25.250           2.969
 91  7 26  2 24 14.9970000  0  4G 3G21G17G23
  20494930.149     -833030.352 7   -649116.50121        20.250           1.406
  23505316.188    -1260804.936 5   -784677.98421         8.500           0.313
  19711228.126    -6826505.526 7  -5319349.72624        25.250           3.594
  19999955.110   -22653105.674 7 -17651728.08823        25.500           2.938
 91  7 26  2 24 29.9970000  0  4G 3G21G17G23
  20499210.384     -810528.445 6   -631582.57821        19.750           1.438
  23493421.485    -1323323.567 5   -833393.63621         9.000           0.188
  19711174.212    -6826818.825 7  -5319593.85823        25.500           3.406
  19993654.978   -22686214.619 7 -17677527.24423        25.500           2.906
 91  7 26  2 24 44.9970000  0  4G 3G21G17G23
  20503515.806     -787905.533 6   -613954.35822        19.500           1.500
  23481534.353    -1385804.837 5   -882080.15721         9.500           0.188
  19711125.032    -6827060.749 7  -5319782.36923        25.500           3.313
  19987375.790   -22719212.718 7 -17703240.02423        25.250           2.906
 91  7 26  2 24 59.9970000  0  4G 3G21G17G23
  20507842.813     -765162.069 6   -596232.20322        19.500           1.563
  23469647.298    -1448248.805 5   -930737.62621         9.500           0.188
  19711093.556    -6827231.516 7                        25.500
  19981114.767   -22752100.237 7 -17728866.63323        24.750           2.969
 91  7 26  2 25 14.9970000  0  4G 3G21G17G23
  20512195.774     -742294.579 7   -578413.39921        20.250           1.375
  23457772.001    -1510651.675 5   -979363.06621         9.250           0.188
  19711073.165    -6827327.645 7                        25.250
  19974880.860   -22784873.450 7 -17754404.18223        25.250           2.938
 91  7 26  2 25 29.9970000  0  4G 3G21G17G23
  20516570.845     -719299.376 7   -560495.08621        20.750           1.469
  23445908.337    -1573009.757 5  -1027953.56521        10.000           0.219
  19711070.110    -6827345.434 7                        24.750
  19968666.251   -22817528.820 7 -17779849.90023        25.000           2.906
 91  7 26  2 25 44.9970000  0  4G 3G21G17G23
  20520967.626     -696189.812 7   -542487.66021        20.500           1.313
  23434047.118    -1635335.937 5  -1076519.26221         9.000           0.281
  19711077.048    -6827298.088 7                        24.500
  19962472.759   -22850079.392 7 -17805213.96123        25.250           3.031
 91  7 26  2 25 59.9970000  0  4G 3G21G17G23
  20525391.993     -672956.271 7   -524383.62621        20.750           1.406
  23422192.962    -1697620.373 5  -1125052.40521         8.750           0.250
  19711103.165    -6827175.906 7                        25.500
  19956299.063   -22882515.529 7 -17830488.84723        25.250           2.969
 91  7 26  2 26 14.9970000  0  4G 3G21G17G23
  20529837.220     -649590.374 7   -506176.45321        20.500           1.406
  23410351.478    -1759854.357 5  -1173546.26421         8.750           0.125
  19711142.353    -6826970.556 7                        26.000
  19950149.267   -22914828.660 7 -17855667.88523        25.000           2.906
 91  7 26  2 26 29.9970000  0  4G 3G21G17G23
  20534312.501     -626089.012 7   -487863.72621        21.000           1.344
  23398513.274    -1822034.451 5  -1221998.08821         8.500           0.313
  19711197.259    -6826678.840 7                        26.000
  19944024.759   -22947015.488 7 -17880748.50723        24.750           3.125
 91  7 26  2 26 44.9970000  0  4G 3G21G17G23
  20538809.438     -602448.619 7   -469442.66821        20.750           1.313
  23386692.321    -1884157.069 5  -1270405.16721         8.750           0.219
  19711268.767    -6826297.042 7  -5319187.27024        25.750           3.594
  19937924.126   -22979072.594 7 -17905728.04723        24.500           2.875
 91  7 26  2 26 59.9970000  0  4G 3G21G17G23
  20543332.079     -578676.219 6   -450918.75221        19.750           1.375
  23374883.251    -1946228.892 5  -1318772.61321         9.000           0.313
  19711358.470    -6825832.064 7  -5318824.94724        25.750           3.531
  19931848.407   -23011006.720 7 -17930611.75723        25.000           3.031
 91  7 26  2 27 14.9970000  0  4G 3G21G17G23
  20547879.759     -554767.544 6   -432288.64221        19.750           1.375
  23363081.142    -2008245.294 5  -1367096.90821         8.750           0.313
  19711465.001    -6825279.477 7  -5318394.35324        25.500           3.688
  19925796.188   -23042813.459 7 -17955396.20423        25.000           2.969
 91  7 26  2 27 29.9970000  0  4G 3G21G17G23
  20552458.517     -530717.375 7   -413548.27121        20.250           1.406
  23351290.454    -2070200.952 5  -1415373.87821         8.250           0.156
  19711585.126    -6824634.440 7  -5317891.72524        25.500           3.750
  19919766.712   -23074487.536 7 -17980077.28023        24.250           3.031
 91  7 26  2 27 44.9970000  0  4G 3G21G17G23
  20557059.962     -506528.641 6   -394699.93221        19.500           1.406
  23339511.899    -2132098.292 5  -1463605.40921         8.750           0.219
  19711727.485    -6823899.562 7  -5317319.08824        26.250           3.625
  19913767.087   -23106031.496 7 -18004656.96923        24.750           3.031
 91  7 26  2 27 59.9970000  0  4G 3G21G17G23
  20561693.306     -482186.219 6   -375731.84621        19.000           1.344
  23327750.259    -2193922.016 5  -1511779.59821         9.500           0.219
  19711885.860    -6823059.530 7  -5316664.51724        26.750           3.750
  19907791.071   -23137430.003 7 -18029123.31123        25.000           2.969
 91  7 26  2 28 14.9970000  0  4G 3G21G17G23
  20566352.056     -457705.146 6   -356655.70221        19.500           1.250
  23315997.438    -2255686.878 5  -1559907.90821        10.000           0.250
  19712063.821    -6822129.098 7  -5315939.51124        26.250           3.625
  19901840.001   -23168698.098 7 -18053488.04123        24.500           2.906
 91  7 26  2 28 29.9970000  0  4G 3G21G17G23
  20571037.204     -433085.308 7   -337471.43821        20.000           1.313
  23304255.204    -2317392.611 5  -1607990.12021        10.250           0.281
  19712257.782    -6821108.496 7  -5315144.23624        25.500           3.719
  19895915.493   -23199835.711 7 -18077751.09423        24.750           2.969
 91  7 26  2 28 44.9970000  0  4G 3G21G17G23
  20575744.548     -408334.042 6   -318184.76221        19.250           1.344
  23292521.282    -2379046.051 5  -1656031.60221        10.250           0.281
  19712467.704    -6820004.529 7  -5314284.00024        25.500           3.719
  19890014.360   -23230849.746 7 -18101917.85423        25.000           3.031
 91  7 26  2 28 59.9970000  0  4G 3G21G17G23
  20580479.657     -383461.733 6   -298803.77521        19.000           1.250
  23280802.407    -2440657.546 5  -1704040.41121        11.000           0.313
  19712691.329    -6818827.953 7  -5313367.19524        25.500           3.688
  19884131.423   -23261750.659 7 -18125996.46123        24.750           3.000
 91  7 26  2 29 14.9970000  0  4G 3G21G17G23
  20585239.587     -358452.860 6   -279316.36621        19.500           1.344
  23269079.978    -2502211.180 5  -1752004.13921        10.000           0.281
  19712932.228    -6817562.723 7  -5312381.29624        25.250           3.625
  19878275.962   -23292522.824 7 -18149974.75423        25.000           3.031
 91  7 26  2 29 29.9970000  0  4G 3G21G17G23
  20590025.720     -333304.710 6   -259720.44121        19.500           1.250
  23257383.079    -2563703.889 5  -1799920.37021        10.250           0.281
  19713188.923    -6816206.270 7  -5311324.32224        24.500           3.688
  19872447.720   -23323163.227 7 -18173850.36923        25.250           3.125
 91  7 26  2 29 44.9970000  0  4G 3G21G17G23
  20594837.188     -308015.464 6   -240014.56521        19.000           1.250
  23245687.188    -2625133.685 5  -1847787.59821         9.250           0.375
  19713465.603    -6814756.571 7  -5310194.68724        25.000           3.688
  19866640.892   -23353670.155 7 -18197621.97923        25.000           3.000
 91  7 26  2 29 59.9970000  0  4G 3G21G17G23
  20599673.071     -282588.212 6   -220201.16921        19.000           1.250
  23234018.571    -2686503.192 5  -1895607.83821        10.000           0.313
  19713759.142    -6813216.582 7  -5308994.69424        24.750           3.625
  19860860.688   -23384046.270 7 -18221291.65723        25.750           3.000
 91  7 26  2 30 14.9970000  0  4G 3G21G17G23
  20604541.423     -257024.087 7   -200281.09921        20.000           1.281
  23222340.665    -2747813.514 5  -1943381.97021         9.000           0.313
  19714068.329    -6811587.638 7  -5307725.38924        24.000           3.594
  19855104.751   -23414292.814 7 -18244860.36723        25.500           2.875
 91  7 26  2 30 29.9970000  0  4G 3G21G17G23
  20609432.524     -231321.565 6   -180253.19321        19.750           1.344
  23210687.407    -2809062.721 5  -1991108.45521        10.000           0.313
  19714397.634    -6809868.232 7  -5306385.59524        25.000           3.563
  19849374.165   -23444408.052 7 -18268326.77023        25.500           2.938
 91  7 26  2 30 44.9970000  0  4G 3G21G17G23
  20614348.079     -205481.361 6   -160118.00621        19.250           1.281
  23199041.423    -2870251.124 5  -2038787.58321         8.750           0.500
  19714741.282    -6808058.582 7  -5304975.48523        24.750           3.406
  19843668.892   -23474392.430 7 -18291691.19623        25.750           2.750
 91  7 26  2 30 59.9970000  0  4G 3G21G17G23
  20619292.454     -179503.870 6   -139875.83021        19.500           1.188
  23187411.907    -2931379.098 5  -2086419.63321         9.000           0.500
  19715101.634    -6806159.264 7  -5303495.49823        24.500           3.469
  19837987.907   -23504246.462 7 -18314954.04923        25.750           2.906
 91  7 26  2 31 14.9970000  0  4G 3G21G17G23
  20624264.267     -153385.843 6   -119524.14121        19.750           1.281
  23175790.853    -2992442.992 5  -2134001.73121         8.750           0.438
  19715481.267    -6804166.674 7  -5301942.83123        24.000           3.438
  19832332.063   -23533966.503 7 -18338112.50523        26.500           2.781
 91  7 26  2 31 29.9970000  0  4G 3G21G17G23
  20629261.329     -127126.055 6    -99062.00121        19.500           1.219
  23164184.454    -3053441.246 5  -2181532.69521         8.500           0.500
  19715876.532    -6802079.499 7  -5300316.46223        23.750           3.313
  19826703.767   -23563551.277 7 -18361165.55323        27.000           2.844
 91  7 26  2 31 44.9970000  0  4G 3G21G17G23
  20634281.899     -100729.050 6    -78492.94421        18.750           1.219
  23152587.978    -3114378.191 5  -2229015.89421         8.250           0.531
  19716293.095    -6799902.403 7  -5298620.01923        25.000           3.406
  19821096.743   -23593005.382 7 -18384116.78423        26.250           2.781
 91  7 26  2 31 59.9970000  0  4G 3G21G17G23
  20639329.337      -74195.308 6    -57817.33621        18.000           1.250
  23141004.618    -3175253.796 5  -2276451.29421         9.250           0.438
  19716723.540    -6797635.562 7  -5296853.65823        24.250           3.438
  19815518.665   -23622328.835 7 -18406966.20623        27.000           2.875
 91  7 26  2 32 14.9970000  0  4G 3G21G17G23
  20644405.399      -47519.497 6    -37031.01921        18.000           1.125
  23129428.181    -3236062.592 5  -2323834.59421         8.500           0.406
  19717174.423    -6795273.669 7  -5295013.22123        24.750           3.438
  19809963.978   -23651516.376 7 -18429709.72323        26.250           2.813
 91  7 26  2 32 29.9970000  0  4G 3G21G17G23
  20649509.399      -20701.889 6    -16134.22121        18.000           1.250
  23117872.493    -3296804.540 5  -2371165.86021         8.750           0.531
  19717641.657    -6792816.795 7  -5293098.78023        24.500           3.313
  19804434.313   -23680568.070 7 -18452347.38423        26.250           3.063
 91  7 26  2 32 44.9970000  0  4G 3G21G17G23
  20654643.235        6259.546 6      4874.65721        18.250           1.094
  23106329.126    -3357477.202 5  -2418443.09921         8.750           0.469
  19718125.563    -6790262.694 7  -5291108.57323        24.000           3.438
  19798931.040   -23709481.670 7 -18474877.44623        26.500           2.906
 91  7 26  2 32 59.9970000  0  4G 3G21G17G23
  20659800.095       33363.788 6     25994.80921        18.750           1.250
  23094796.438    -3418081.558 5  -2465667.11421         8.750           0.469
  19718630.040    -6787612.502 7  -5289043.49523        23.250           3.438
  19793456.603   -23738258.185 7 -18497300.68923        26.750           2.969
 91  7 26  2 33 14.9970000  0  4G 3G21G17G23
  20664984.009       60607.779 6     47223.85521        19.250           1.219
  23083274.196    -3478620.188 5  -2512839.92221         8.500           0.531
  19719151.001    -6784869.087 7  -5286905.77123        23.250           3.375
  19788005.228   -23766900.389 7 -18519619.27023        26.750           2.875
 91  7 26  2 33 29.9970000  0  4G 3G21G17G23
  20670193.110       87991.762 6     68561.98921        18.000           1.156
  23071772.063    -3539092.594 5  -2559961.12521         8.500           0.500
  19719693.532    -6782032.110 7  -5284695.14023        23.500           3.313
  19782580.321   -23795407.974 7 -18541832.95623        27.250           2.875
 91  7 26  2 33 44.9970000  0  4G 3G21G17G23
  20675433.313      115519.341 6     90012.03321        18.250           1.188
  23060273.657    -3599495.035 5  -2607027.81121         8.750           0.500
  19720250.892    -6779098.302 7  -5282409.06623        23.750           3.344
  19777183.501   -23823777.353 8 -18563938.94523        28.000           2.969
 91  7 26  2 33 59.9970000  0  4G 3G21G17G23
  20680699.993      143190.139 6    111573.65921        18.750           1.250
  23048796.923    -3659827.434 5  -2654039.94521         7.750           0.469
  19720827.251    -6776067.377 7  -5280047.30424        23.750           3.563
  19771810.423   -23852008.640 7 -18585937.32823        27.250           2.875
 91  7 26  2 34 14.9970000  0  4G 3G21G17G23
  20685990.306      171003.178 6    133246.12221        18.500           1.063
  23037321.228    -3720090.566 4  -2700998.06821         7.250           0.563
  19721422.868    -6772940.259 7  -5277610.58624        23.500           3.500
  19766464.392   -23880102.757 7 -18607828.83223        27.750           2.938
 91  7 26  2 34 29.9970000  0  4G 3G21G17G23
  20691310.048      198962.470 6    155032.54321        18.500           1.188
  23025877.728    -3780279.911 5  -2747898.73321         7.750           0.438
  19722037.017    -6769712.724 7  -5275095.63124        24.250           3.531
  19761145.056   -23908055.281 7 -18629610.00223        27.750           2.844
 91  7 26  2 34 44.9970000  0  4G 3G21G17G23
  20696661.735      227065.280 6    176930.80021        19.000           1.094
  23014433.556    -3840398.038 5  -2794743.87621         8.250           0.469
  19722668.985    -6766387.730 7  -5272504.72923        24.500           3.469
  19755851.860   -23935869.062 7 -18651283.05923        27.750           2.875
 91  7 26  2 34 59.9970000  0  4G 3G21G17G23
  20702037.704      255311.730 6    198940.98221        19.500           1.094
  23003002.517    -3900444.598 5  -2841533.23721         8.500           0.563
  19723321.485    -6762964.870 7  -5269837.56423        24.500           3.406
  19750583.696   -23963543.815 7 -18672847.78123        27.000           2.844
 91  7 26  2 35 14.9970000  0  4G 3G21G17G23
  20707436.907      283697.407 6    221059.66121        19.250           1.031
  22991586.915    -3960423.505 5  -2888269.90621         8.750           0.406
  19723990.431    -6759448.388 7  -5267097.46423        24.500           3.344
  19745344.751   -23991083.568 7 -18694307.31323        27.750           2.969
 91  7 26  2 35 29.9970000  0  4G 3G21G17G23
  20712865.993      312228.607 6    243291.73221        18.500           1.000
  22980191.415    -4020328.308 5  -2934948.83221         9.000           0.500
  19724680.782    -6755832.152 7  -5264279.61523        25.250           3.344
  19740131.056   -24018482.221 7 -18715656.88923        27.750           2.969
 91  7 26  2 35 44.9970000  0  4G 3G21G17G23
  20718319.735      340899.580 6    265632.71821        17.750           1.125
  22968804.837    -4080164.387 5  -2981574.19921         9.250           0.406
  19725384.970    -6752121.546 7  -5261388.23823        25.250           3.344
  19734943.728   -24045745.034 8 -18736900.62023        28.250           3.031
 91  7 26  2 35 59.9970000  0  4G 3G21G17G23
  20723805.149      369710.466 6    288082.72421        17.750           1.094
  22957437.407    -4139931.318 5  -3028145.67721         9.500           0.313
  19726108.688    -6748316.132 7  -5258422.98223        24.750           3.375
  19729782.642   -24072871.806 8 -18758038.34623        28.250           2.969
 91  7 26  2 36 14.9970000  0  4G 3G21G17G23
  20729315.603      398665.250 6    310644.84521        18.000           1.094
  22946074.376    -4199625.091 5  -3074660.17921        10.000           0.531
  19726851.806    -6744412.166 7  -5255380.92923        24.500           3.281
  19724645.353   -24099858.758 8 -18779067.12323        28.250           2.969
 91  7 26  2 36 29.9970000  0  4G 3G21G17G23
  20734849.767      427758.394 6    333314.79821        18.250           1.094
  22934728.220    -4259250.700 5  -3121121.54621         9.750           0.406
  19727612.259    -6740414.910 7  -5252266.19223        24.750           3.406
  19719536.032   -24126711.107 8 -18799991.01623        28.000           2.938
 91  7 26  2 36 44.9970000  0  4G 3G21G17G23
  20740413.829      456992.921 6    356094.91321        18.250           1.125
  22923394.681    -4318804.786 5  -3167527.19421         9.000           0.406
  19728391.454    -6736321.137 7  -5249076.24523        24.250           3.313
  19714452.853   -24153425.516 8 -18820807.42623        28.000           3.031
 91  7 26  2 36 59.9970000  0  4G 3G21G17G23
  20746002.853      486369.847 6    378985.97821        18.250           1.125
  22912072.579    -4378286.254 5  -3213876.26321         9.750           0.438
  19729191.579    -6732129.954 7  -5245810.39723        25.250           3.313
  19709395.337   -24180001.143 7 -18841515.68223        27.500           3.000
 91  7 26  2 37 14.9970000  0  4G 3G21G17G23
  20751624.345      515893.170 6    401991.13321        19.500           1.031
  22900763.931    -4437690.576 5  -3260165.18821         9.250           0.438
  19730006.188    -6727837.009 7  -5242465.24523        24.250           3.219
  19704365.228   -24206433.476 7 -18862112.28923        26.750           2.906
 91  7 26  2 37 29.9970000  0  4G 3G21G17G23
  20757268.642      545556.554 6    425105.41421        18.750           0.938
  22889481.485    -4497023.851 5  -3306398.78821        10.000           0.406
  19730841.665    -6723448.614 7  -5239045.72323        24.000           3.313
  19699360.540   -24232728.839 7 -18882602.17023        27.500           2.906
 91  7 26  2 37 44.9970000  0  4G 3G21G17G23
  20762940.063      575363.397 6    448331.49121        17.750           1.031
  22878202.860    -4556282.456 5  -3352574.16621         9.500           0.344
  19731695.673    -6718961.138 7  -5235548.98823        24.000           3.250
  19694384.618   -24258883.722 8 -18902982.57723        28.250           2.969
 91  7 26  2 37 59.9970000  0  4G 3G21G17G23
  20768637.337      605309.642 6    471666.19621        17.750           0.938
  22866938.610    -4615469.821 5  -3398694.04921         9.750           0.281
  19732567.079    -6714378.353 7  -5231977.99823        24.000           3.406
  19689433.368   -24284901.871 7 -18923256.44323        27.750           2.875
 91  7 26  2 38 14.9970000  0  4G 3G21G17G23
  20774363.368      635399.486 6    495112.79521        17.250           0.938
  22855690.907    -4674581.653 5  -3444755.09121        10.000           0.344
  19733458.446    -6709696.178 7  -5228329.54923        24.750           3.250
  19684508.204   -24310779.212 7 -18943420.59123        27.750           2.906
 91  7 26  2 38 29.9970000  0  4G 3G21G17G23
  20780117.743      665631.654 6    518670.29121        16.750           0.938
  22844459.251    -4733619.101 5  -3490758.18121        10.750           0.344
  19734367.720    -6704916.032 7  -5224604.76723        25.000           3.313
  19679610.829   -24336516.873 7 -18963475.88423        27.500           2.813
 91  7 26  2 38 44.9970000  0  4G 3G21G17G23
  20785899.642      696009.803 6    542341.54021        17.750           1.000
  22833236.329    -4792577.909 5  -3536699.96821        10.000           0.250
  19735297.259    -6700033.648 7  -5220800.31923        25.250           3.313
  19674741.485   -24362110.875 7 -18983419.24623        27.500           2.938
 91  7 26  2 38 59.9970000  0  4G 3G21G17G23
  20791702.556      726529.039 6    566122.71521        16.500           1.063
  22822028.774    -4851462.884 5  -3582584.24221         9.500           0.313
  19736243.970    -6695053.957 7  -5216920.04223        24.750           3.188
  19669897.095   -24387566.225 8 -19003254.56823        28.250           2.906
 91  7 26  2 39 14.9970000  0  4G 3G21G17G23
  20797541.087      757191.954 6    590015.86721        18.250           0.938
  22810834.579    -4910271.099 5  -3628408.69321         9.000           0.406
  19737211.204    -6689974.244 7  -5212961.82523        25.500           3.313
  19665079.032   -24412880.008 7 -19022979.57923        27.250           2.969
 91  7 26  2 39 29.9970000  0  4G 3G21G17G23
  20803401.720      787995.898 6    614018.89221        18.750           1.000
  22799659.806    -4969004.695 5  -3674175.02821         9.000           0.219
  19738195.657    -6684797.027 7  -5208927.63623        25.000           3.281
  19660288.759   -24438054.583 7 -19042596.11323        26.750           3.000
 91  7 26  2 39 44.9970000  0  4G 3G21G17G23
  20809291.079      818939.552 6    638130.78421        18.000           0.938
  22788498.032    -5027664.735 5  -3719884.03021         8.750           0.313
  19739200.415    -6679523.146 7  -5204818.12323        25.250           3.188
  19655525.384   -24463091.143 7 -19062105.10423        27.250           3.000
 91  7 26  2 39 59.9970000  0  4G 3G21G17G23
  20815206.649      850022.167 6    662350.96021        17.750           0.906
  22777353.001    -5086251.861 5  -3765536.20421        10.000           0.219
  19740222.407    -6674153.703 7  -5200634.14823        24.750           3.281
  19650785.978   -24487990.590 7 -19081507.25623        27.250           3.125
 91  7 26  2 40 14.9970000  0  4G 3G21G17G23
  20821150.181      881246.806 6    686681.81121        18.250           0.844
  22766213.860    -5144762.457 5  -3811128.75421         9.750           0.281
  19741261.892    -6668685.464 7  -5196373.19223        25.000           3.313
  19646075.228   -24512749.421 7 -19100799.83623        27.000           3.000
 91  7 26  2 40 29.9970000  0  4G 3G21G17G23
  20827115.978      912615.825 6    711125.15221        17.500           0.906
  22755099.571    -5203193.858 5  -3856659.60921        10.500           0.250
  19742321.267    -6663115.775 7  -5192033.18023        24.500           3.344
  19641391.501   -24537365.211 7 -19119980.95723        27.750           3.125
 91  7 26  2 40 44.9970000  0  4G 3G21G17G23
  20833111.438      944123.898 6    735676.84721        17.250           0.781
  22743993.579    -5261551.351 5  -3902132.86521        10.250           0.281
  19743400.853    -6657450.098 7  -5187618.36823        25.000           3.219
  19636732.313   -24561843.350 7 -19139054.81623        27.000           3.063
 91  7 26  2 40 59.9970000  0  4G 3G21G17G23
  20839133.360      975770.426 6    760336.43521        17.250           0.969
  22732900.259    -5319834.936 5  -3947548.51221        10.000           0.281
  19744495.985    -6651688.629 7  -5183128.92223        24.750           3.250
  19632099.376   -24586184.161 7 -19158021.67123        27.000           3.000
 91  7 26  2 41 14.9970000  0  4G 3G21G17G23
  20845180.774     1007551.577 6    785100.93321        17.500           0.844
  22721829.204    -5378048.087 5  -3992909.31521        10.750           0.438
  19745609.579    -6645834.968 7  -5178567.63723        24.500           3.344
  19627494.306   -24610391.411 7 -19176884.44523        27.250           3.031
 91  7 26  2 41 29.9970000  0  4G 3G21G17G23
  20851253.728     1039471.418 6    809973.50521        17.500           1.000
  22710758.938    -5436186.589 5  -4038211.93321        10.000           0.406
  19746744.767    -6639885.052 7  -5173931.34323        25.000           3.313
  19622912.376   -24634460.806 7 -19195639.80023        27.500           3.063
 91  7 26  2 41 44.9970000  0  4G 3G21G17G23
  20857358.095     1071534.266 6    834957.50721        18.000           1.000
  22699709.978    -5494245.796 5  -4083452.77321        10.000           0.375
  19747893.509    -6633834.400 7  -5169216.56123        24.750           3.406
  19618362.384   -24658387.751 7 -19214284.16423        27.750           2.875
 91  7 26  2 41 59.9970000  0  4G 3G21G17G23
  20863488.001     1103739.129 6    860052.16221        18.000           0.969
  22688679.470    -5552226.311 5  -4128632.29521        10.250           0.344
  19749065.196    -6627683.829 7  -5164423.91223        25.000           3.375
  19613834.376   -24682173.087 7 -19232818.17423        27.500           2.875
 91  7 26  2 42 14.9970000  0  4G 3G21G17G23
  20869639.079     1136081.812 6    885254.22221        17.500           1.000
  22677657.313    -5610132.196 5  -4173753.65621        10.750           0.469
  19750252.282    -6621437.385 7  -5159556.55723        25.000           3.469
  19609334.368   -24705821.079 7 -19251245.16623        27.000           2.938
 91  7 26  2 42 29.9970000  0  4G 3G21G17G23
  20875822.579     1168564.708 6    910565.53421        18.250           0.875
  22666653.532    -5667960.577 5  -4218814.62921        10.750           0.563
  19751458.642    -6615092.373 7  -5154612.39624        24.250           3.531
  19604861.095   -24729328.977 7 -19269562.99623        27.250           2.844
 91  7 26  2 42 44.9970000  0  4G 3G21G17G23
  20882031.149     1201186.103 6    935984.76221        18.250           0.938
  22655663.157    -5725712.805 5  -4263816.26321        10.500           0.438
  19752686.024    -6608650.636 7  -5149592.86623        24.250           3.469
  19600414.634   -24752698.350 7 -19287772.87923        27.500           2.875
 91  7 26  2 42 59.9970000  0  4G 3G21G17G23
  20888265.595     1233950.032 6    961515.06221        19.000           0.969
  22644692.423    -5783384.673 5  -4308755.28121        11.000           0.563
  19753931.774    -6602107.731 7  -5144494.49924        24.250           3.625
  19595991.884   -24775925.098 7 -19305871.62523        26.500           2.938
 91  7 26  2 43 14.9970000  0  4G 3G21G17G23
  20894527.048     1266856.276 6    987156.25221        18.500           0.906
  22633729.556    -5840976.188 5  -4353631.66021        10.500           0.531
  19755195.642    -6595463.972 7  -5139317.55623        24.250           3.469
  19591600.798   -24799009.431 7 -19323859.40723        27.000           2.844
 91  7 26  2 43 29.9960000  0  4G 3G21G17G23
  20900814.348     1299896.760 6   1012902.05821        18.000           0.875
  22622785.676    -5898488.773 5  -4398446.58121        11.000           0.594
  19756478.684    -6588725.647 7  -5134066.91623        25.000           3.469
  19587233.152   -24821955.562 7 -19341739.48823        26.750           2.813
 91  7 26  2 43 44.9960000  0  4G 3G21G17G23
  20907128.559     1333078.036 6   1038757.55421        18.500           0.844
  22611856.215    -5955927.524 5  -4443203.94421        11.500           0.625
  19757779.145    -6581888.983 7  -5128739.65124        24.750           3.563
  19582894.793   -24844764.009 7 -19359512.29023        27.000           2.906
 91  7 26  2 43 59.9960000  0  4G 3G21G17G23
  20913467.918     1366399.292 6   1064722.12821        18.000           0.844
  22600941.473    -6013287.158 5  -4487899.66421        11.750           0.594
  19759098.840    -6574953.230 7  -5123335.17624        23.750           3.500
  19578580.066   -24867431.831 7 -19377175.51423        27.500           2.875
 91  7 26  2 44 14.9960000  0  4G 3G21G17G23
  20919832.793     1399854.127 6   1090790.80521        18.000           0.875
  22590037.324    -6070573.669 5  -4532538.38421        11.500           0.594
  19760438.606    -6567924.719 7  -5117858.41523        24.250           3.406
  19574292.254   -24889965.226 7 -19394733.99023        27.500           2.813
 91  7 26  2 44 29.9960000  0  4G 3G21G17G23
  20926229.293     1433450.225 6   1116969.54921        18.750           0.844
  22579149.262    -6127778.997 5  -4577113.86621        10.750           0.563
  19761792.504    -6560795.453 7  -5112303.15123        24.000           3.406
  19570031.871   -24912356.335 7 -19412181.59523        27.500           2.906
 91  7 26  2 44 44.9960000  0  4G 3G21G17G23
  20932646.809     1467184.220 6   1143255.74021        18.000           0.781
  22568283.231    -6184906.253 5  -4621628.50821        11.000           0.594
  19763167.371    -6553568.798 7  -5106671.99723        24.500           3.313
  19565799.512   -24934608.403 7 -19429520.85523        27.750           2.906
 91  7 26  2 44 59.9960000  0  4G 3G21G17G23
  20939095.160     1501059.600 6   1169652.10021        18.750           0.875
  22557425.762    -6241951.664 5  -4666079.37821        10.750           0.688
  19764562.426    -6546241.172 7  -5100962.16523        25.000           3.344
  19561591.152   -24956717.855 7 -19446748.98523        27.000           2.875
 91  7 26  2 45 14.9960000  0  4G 3G21G17G23
  20945566.856     1535075.052 6   1196157.60821        18.500           0.906
  22546587.777    -6298916.096 5  -4710467.14221        10.500           0.688
  19765976.348    -6538813.420 7  -5095174.31023        24.500           3.438
  19557409.176   -24978685.910 7 -19463866.93923        27.000           2.906
 91  7 26  2 45 29.9960000  0  4G 3G21G17G23
  20952065.551     1569223.697 6   1222766.89621        17.750           0.781
  22535759.590    -6355806.179 5  -4754796.96921        11.000           0.656
  19767405.816    -6531292.664 7  -5089313.98323        24.750           3.469
  19553255.395   -25000519.220 7 -19480879.89623        27.250           2.813
 91  7 26  2 45 44.9960000  0  4G 3G21G17G23
  20958590.731     1603506.378 6   1249480.64221        18.000           0.813
  22524950.637    -6412620.789 5  -4799067.99921        11.750           0.656
  19768856.926    -6523677.812 7  -5083380.33423        24.750           3.375
  19549126.324   -25022216.840 7 -19497787.12223        27.250           2.875
 91  7 26  2 45 59.9960000  0  4G 3G21G17G23
  20965139.363     1637928.184 6   1276302.78821        17.250           0.906
  22514156.402    -6469354.496 6  -4843275.96721        12.500           0.719
  19770322.731    -6515963.135 7  -5077368.90923        24.250           3.438
  19545023.731   -25043773.444 7 -19514584.46223        27.250           2.813
 91  7 26  2 46 14.9960000  0  4G 3G21G17G23
  20971711.887     1672484.630 6   1303229.84321        16.500           0.906
  22503365.809    -6526011.329 6  -4887424.05021        12.000           0.688
  19771811.363    -6508153.209 7  -5071283.25724        25.000           3.531
  19540948.598   -25065193.331 8 -19531275.26923        28.000           2.719
 91  7 26  2 46 29.9960000  0  4G 3G21G17G23
  20978316.949     1707177.177 6   1330262.98521        16.750           0.781
  22492603.965    -6582589.615 6  -4931510.93921        12.750           0.594
  19773316.598    -6500246.422 7  -5065122.12924        25.250           3.531
  19536898.902   -25086474.984 7 -19547858.35923        27.750           2.719
 91  7 26  2 46 44.9960000  0  4G 3G21G17G23
  20984943.981     1742001.995 6   1357399.16621        17.000           0.781
  22481854.324    -6639092.793 6  -4975539.27021        12.750           0.656
  19774836.918    -6492246.479 7  -5058888.41024        25.250           3.625
  19532874.731   -25107622.002 7 -19564336.54323        27.250           2.688
 91  7 26  2 46 59.9960000  0  4G 3G21G17G23
  20991599.402     1776964.384 6   1384642.55521        17.000           0.750
  22471116.145    -6695515.274 6  -5019504.75821        12.750           0.594
  19776377.598    -6484147.963 7  -5052577.89224        25.000           3.531
  19528878.246   -25128629.040 7 -19580705.64723        27.250           2.719
 91  7 26  2 47 14.9960000  0  4G 3G21G17G23
  20998275.707     1812057.193 6   1411987.56221        16.500           0.688
  22460393.629    -6751864.001 6  -5063412.75321        12.500           0.563
  19777938.621    -6475958.135 7  -5046196.21524        25.750           3.750
  19524904.066   -25149503.138 7 -19596971.16523        26.750           2.625
 91  7 26  2 47 29.9960000  0  4G 3G21G17G23
  21004979.207     1847284.180 6   1439437.12321        16.000           0.688
  22449681.457    -6808134.798 6  -5107260.02221        12.250           0.438
  19779514.676    -6467672.685 7  -5039740.02324        25.500           3.531
  19520958.059   -25170240.225 7 -19613129.92123        27.000           2.625
 91  7 26  2 47 44.9960000  0  4G 3G21G17G23
  21011708.035     1882648.691 6   1466993.85321        16.000           0.750
  22438991.949    -6864323.901 6  -5151043.65121        12.250           0.469
  19781110.035    -6459288.047 7  -5033206.54823        25.500           3.406
  19517039.106   -25190836.914 7 -19629179.27323        27.250           2.688
 91  7 26  2 47 59.9960000  0  4G 3G21G17G23
  21018467.184     1918148.519 6   1494656.01621        16.750           0.750
  22428317.762    -6920433.237 6  -5194765.11121        13.000           0.625
  19782722.645    -6450806.373 7  -5026597.45823        25.000           3.344
  19513145.324   -25211295.149 7 -19645120.74123        27.250           2.688
 91  7 26  2 48 14.9960000  0  4G 3G21G17G23
  21025246.145     1953782.474 6   1522422.69621        17.000           0.844
  22417650.113    -6976463.676 5  -5238425.07021        11.750           0.563
  19784355.621    -6442228.592 7  -5019913.48323        25.250           3.406
  19509278.762   -25231615.878 7 -19660955.06623        27.500           2.625
 91  7 26  2 48 29.9960000  0  4G 3G21G17G23
  21032050.465     1989548.044 6   1550291.93221        17.000           0.781
  22407004.082    -7032417.528 6  -5282025.36921        12.000           0.531
  19786006.684    -6433557.438 7  -5013156.74023        25.000           3.250
  19505437.574   -25251801.722 7 -19676684.28223        27.000           2.781
 91  7 26  2 48 44.9960000  0  4G 3G21G17G23
  21038881.793     2025448.210 6   1578266.04421        17.250           0.875
  22396371.043    -7088291.247 6  -5325563.23921        12.250           0.563
  19787675.113    -6424789.444 7  -5006324.54623        24.250           3.250
  19501622.113   -25271849.451 7 -19692305.87723        26.750           2.719
 91  7 26  2 48 59.9960000  0  4G 3G21G17G23
  21045737.793     2061478.935 6   1606341.88221        17.000           0.844
  22385755.301    -7144088.636 6  -5369041.62321        12.750           0.531
  19789359.191    -6415928.445 7  -4999419.88423        23.250           3.125
  19497834.606   -25291763.089 7 -19707822.98723        27.250           2.719
 91  7 26  2 49 14.9960000  0  4G 3G21G17G23
  21052623.566     2097647.549 6   1634525.18821        17.500           0.906
  22375153.356    -7199801.744 6  -5412454.35321        12.750           0.438
  19791067.160    -6406966.585 7  -4992436.62123        24.500           3.250
  19494070.738   -25311534.865 7 -19723229.55323        27.000           2.719
 91  7 26  2 49 29.9960000  0  4G 3G21G17G23
  21059529.035     2133945.350 6   1662809.13921        17.000           0.938
  22364562.738    -7255439.284 6  -5455808.17821        12.500           0.438
  19792787.949    -6397912.946 7  -4985381.84323        24.750           3.219
  19490333.066   -25331173.745 7 -19738532.56523        27.000           2.719
 91  7 26  2 49 44.9960000  0  4G 3G21G17G23
  21066459.574     2170377.783 6   1691198.01821        16.500           0.813
  22353994.106    -7310995.397 6  -5499098.58321        13.250           0.594
  19794529.340    -6388761.900 7  -4978251.17323        24.500           3.313
  19486622.832   -25350673.806 7 -19753727.40623        26.750           2.625
 91  7 26  2 49 59.9960000  0  4G 3G21G17G23
  21073421.832     2206941.998 6   1719689.57921        16.000           0.938
  22343436.160    -7366472.313 6  -5542327.23821        12.750           0.500
  19796290.418    -6379515.782 7  -4971046.41324        25.000           3.594
  19482938.606   -25370037.623 7 -19768816.08323        27.750           2.625
 91  7 26  2 50 14.9960000  0  4G 3G21G17G23
  21080402.152     2243639.333 6   1748284.86121        15.750           0.938
  22332895.559    -7421868.731 6  -5585493.20821        12.500           0.438
  19798067.231    -6370173.671 7  -4963766.84724        24.250           3.500
  19479280.012   -25389264.079 7 -19783797.72423        27.750           2.750
 91  7 26  2 50 29.9960000  0  4G 3G21G17G23
  21087412.051     2280465.826 6   1776980.79421        16.000           0.938
  22322367.231    -7477188.118 6  -5628599.13021        12.750           0.531
  19799861.910    -6360738.721 7  -4956414.94924        24.750           3.531
  19475646.066   -25408356.830 7 -19798675.18323        27.250           2.656
 91  7 26  2 50 44.9960000  0  4G 3G21G17G23
  21094440.199     2317422.345 6   1805778.03121        15.000           0.875
  22311854.793    -7532429.200 6  -5671644.03921        12.750           0.500
  19801675.387    -6351209.867 7  -4948989.87724        25.250           3.750
  19472037.824   -25427314.661 7 -19813447.50423        27.250           2.656
 91  7 26  2 50 59.9960000  0  4G 3G21G17G23
  21101499.574     2354513.378 6   1834680.09521        15.250           0.938
  22301361.129    -7587587.235 6  -5714624.23321        13.000           0.563
  19803508.660    -6341582.854 7  -4941488.31924        25.250           3.625
  19468457.613   -25446133.004 7 -19828111.13323        27.500           2.625
 91  7 26  2 51 14.9960000  0  4G 3G21G17G23
  21108585.668     2391733.864 6   1863683.03621        15.500           0.844
  22290876.731    -7642666.966 6  -5757543.42221        12.750           0.594
  19805357.371    -6331862.185 7  -4933913.77524        25.750           3.719
  19464901.731   -25464816.658 7 -19842669.81023        27.000           2.625
 91  7 26  2 51 29.9960000  0  4G 3G21G17G23
  21115691.988     2429085.546 6   1892788.20921        15.250           0.719
  22280410.434    -7697666.237 6  -5800399.90221        12.250           0.688
  19807226.012    -6322046.395 7  -4926265.11624        25.500           3.656
  19461373.215   -25483364.214 7 -19857122.44223        27.000           2.563
 91  7 26  2 51 44.9960000  0  4G 3G21G17G23
  21122822.574     2466561.292 6   1921990.05121        15.500           0.813
  22269956.785    -7752592.042 6  -5843199.15121        12.250           0.563
  19809108.996    -6312142.335 7  -4918547.67724        25.250           3.813
  19457868.199   -25501782.367 7 -19871474.23923        27.000           2.625
 91  7 26  2 51 59.9960000  0  4G 3G21G17G23
  21129979.309     2504165.017 6   1951291.61621        16.000           0.844
  22259520.520    -7807439.853 6  -5885937.61921        12.250           0.531
  19811012.262    -6302145.597 7  -4910758.01924        25.250           3.656
  19454388.270   -25520066.836 7 -19885721.86723        27.000           2.531
 91  7 26  2 52 14.9960000  0  4G 3G21G17G23
  21137161.793     2541899.037 6   1980694.70221        16.250           0.781
  22249104.629    -7862207.269 6  -5928613.45221        12.750           0.563
  19812933.637    -6292053.845 7  -4902894.32824        25.250           3.719
  19450935.066   -25538215.575 7 -19899863.73123        26.750           2.531
 91  7 26  2 52 29.9960000  0  4G 3G21G17G23
  21144365.965     2579762.577 6   2010198.70621        16.000           0.844
  22238688.707    -7916894.542 6  -5971226.82521        12.000           0.594
  19814870.973    -6281867.356 7  -4894956.81324        25.750           3.594
  19447505.754   -25556228.723 7 -19913899.93323        26.250           2.563
 91  7 26  2 52 44.9960000  0  4G 3G21G17G23
  21151595.863     2617752.861 6   2039801.49221        16.750           0.750
  22228301.035    -7971504.226 6  -6013779.78621        12.000           0.500
  19816827.348    -6271589.043 7  -4886947.74323        24.750           3.438
  19444105.910   -25574109.258 7 -19927832.81123        27.500           2.563
 91  7 26  2 52 59.9960000  0  4G 3G21G17G23
  21158846.129     2655877.505 6   2069508.96421        15.750           0.781
  22217924.418    -8026028.297 6  -6056265.98821        12.250           0.656
  19818801.996    -6261211.136 7  -4878861.07424        25.250           3.500
  19440729.184   -25591849.370 7 -19941656.26423        27.500           2.594
 91  7 26  2 53 14.9960000  0  4G 3G21G17G23
  21166127.652     2694132.936 6   2099318.34921        15.500           0.844
  22207567.027    -8080469.899 6  -6098687.96421        12.750           0.625
  19820794.723    -6250736.952 7  -4870699.38123        25.500           3.469
  19437378.965   -25609452.398 7 -19955372.89323        27.250           2.594
 91  7 26  2 53 29.9960000  0  4G 3G21G17G23
  21173431.051     2732517.046 6   2129228.00721        15.000           0.781
  22197223.715    -8134830.822 6  -6141047.05121        14.000           0.719
  19822806.340    -6240168.282 7  -4862464.06324        26.000           3.500
  19434053.871   -25626920.219 7 -19968984.17823        26.750           2.563
 91  7 26  2 53 44.9960000  0  4G 3G21G17G23
  21180762.316     2771025.702 6   2159234.69821        15.250           0.813
  22186892.934    -8189115.051 6  -6183346.38121        13.500           0.719
  19824835.645    -6229509.276 7  -4854158.35824        26.000           3.563
  19430756.090   -25644257.083 7 -19982493.41023        27.250           2.656
 91  7 26  2 53 59.9960000  0  4G 3G21G17G23
  21188114.121     2809656.441 6   2189336.52721        15.750           0.688
  22176575.082    -8243324.427 6  -6225587.39121        13.000           0.688
  19826879.988    -6218762.172 7  -4845783.99624        25.750           3.594
  19427481.246   -25661465.171 7 -19995902.29623        27.250           2.625
 91  7 26  2 54 14.9960000  0  4G 3G21G17G23
  21195487.645     2848412.215 6   2219535.77921        15.000           0.656
  22166272.551    -8297455.833 6  -6267767.64421        12.750           0.594
  19828943.590    -6207923.786 7  -4837338.50924        26.750           3.563
  19424231.027   -25678541.437 7 -20009208.46323        26.750           2.563
 91  7 26  2 54 29.9960000  0  4G 3G21G17G23
  21202887.215     2887298.217 6   2249836.51821        14.500           0.656
  22155986.754    -8351503.307 6  -6309882.50821        12.750           0.719
  19831023.012    -6196988.560 7  -4828817.56824        26.250           3.531
  19421008.699   -25695480.168 7 -20022407.47023        27.250           2.531
 91  7 26  2 54 44.9960000  0  4G 3G21G17G23
  21210311.098     2926311.810 6   2280236.67021        14.750           0.781
  22145719.574    -8405469.652 6  -6351934.14121        13.500           0.656
  19833121.988    -6185959.140 7  -4820223.22324        25.750           3.531
  19417811.551   -25712284.268 7 -20035501.56023        27.500           2.531
 91  7 26  2 54 59.9960000  0  4G 3G21G17G23
  21217755.801     2965446.668 6   2310731.32921        13.500           0.656
  22135463.645    -8459360.578 6  -6393927.00921        13.250           0.625
  19835239.723    -6174841.487 7  -4811560.13123        26.750           3.469
  19414636.543   -25728959.677 7 -20048495.37123        27.000           2.531
 91  7 26  2 55 14.9960000  0  4G 3G21G17G23
  21225229.598     3004708.786 6   2341325.15121        14.250           0.719
  22125227.199    -8513169.820 6  -6435856.21721        14.250           0.719
  19837369.770    -6163629.543 7  -4802823.55424        24.750           3.500
  19411489.668   -25745500.281 7 -20061384.14823        27.250           2.500
 91  7 26  2 55 29.9960000  0  4G 3G21G17G23
  21232727.035     3044092.124 6   2372013.42021        14.750           0.719
  22115000.566    -8566903.066 6  -6477726.21521        13.750           0.656
  19839522.379    -6152329.186 7  -4794018.09224        25.250           3.500
  19408367.348   -25761912.158 7 -20074172.61222        27.500           2.375
 91  7 26  2 55 44.9960000  0  4G 3G21G17G23
  21240243.270     3083599.681 6   2402798.47621        15.000           0.781
  22104789.770    -8620556.977 6  -6519534.40321        13.750           0.719
  19841689.379    -6140937.144 7  -4785141.18524        25.500           3.563
  19405268.418   -25778191.835 7 -20086858.06322        26.750           2.344
 91  7 26  2 55 59.9960000  0  4G 3G21G17G23
  21247786.004     3123228.699 6   2433678.18921        15.500           0.750
  22094596.520    -8674133.927 6  -6561282.63121        13.250           0.781
  19843874.106    -6129456.091 7  -4776194.91923        25.500           3.469
  19402195.160   -25794342.135 7 -20099442.70322        26.250           2.438
 91  7 26  2 56 14.9960000  0  4G 3G21G17G23
  21255351.262     3162985.611 6   2464657.55221        15.250           0.594
  22084414.090    -8727627.322 6  -6602965.74421        12.750           0.688
  19846077.543    -6117879.344 7  -4767174.08323        25.500           3.438
  19399148.824   -25810356.649 7 -20111921.54022        27.250           2.375
 91  7 26  2 56 29.9960000  0  4G 3G21G17G23
  21262937.637     3202867.473 6   2495734.27921        15.250           0.719
  22074248.582    -8781039.490 6  -6644585.55821        13.250           0.813
  19848298.043    -6106209.561 7  -4758080.75423        25.500           3.469
  19396125.801   -25826237.802 7 -20124296.45122        26.750           2.375
 91  7 26  2 56 44.9960000  0  4G 3G21G17G23
  21270547.152     3242871.013 6   2526905.81521        14.750           0.750
  22064101.621    -8834373.650 6  -6686144.58521        13.250           0.844
  19850536.848    -6094449.911 7  -4748917.40123        26.000           3.281
  19393129.660   -25841989.024 7 -20136570.12122        27.000           2.281
 91  7 26  2 56 59.9960000  0  4G 3G21G17G23
  21278186.691     3283000.095 6   2558175.18521        15.250           0.719
  22053968.254    -8887625.287 6  -6727639.31421        13.000           0.844
  19852792.832    -6082595.907 7  -4739680.52623        26.000           3.281
  19390157.184   -25857605.911 7 -20148739.11322        26.750           2.438
 91  7 26  2 57 14.9960000  0  4G 3G21G17G23
  21285844.395     3323247.762 6   2589536.94521        15.000           0.719
  22043850.113    -8940801.153 6  -6769075.00321        13.750           0.813
  19855062.801    -6070654.682 7  -4730375.68023        25.750           3.281
  19387209.504   -25873095.378 7 -20160808.82222        27.000           2.406
 91  7 26  2 57 29.9960000  0  4G 3G21G17G23
  21293526.660     3363614.806 6   2620991.73921        15.000           0.750
  22033746.941    -8993900.062 6  -6810450.71021        13.750           0.813
  19857353.910    -6058625.217 7  -4721002.08523        25.750           3.156
  19384285.879   -25888456.581 7 -20172778.58022        26.750           2.406
 91  7 26  2 57 44.9960000  0  4G 3G21G17G23
  21301233.106     3404102.981 6   2652540.92021        15.000           0.625
  22023656.598    -9046919.832 6  -6851764.75621        13.750           0.875
  19859659.926    -6046505.579 7  -4711558.21023        26.250           3.250
  19381387.684   -25903687.446 7 -20184646.77622        26.750           2.344
 91  7 26  2 57 59.9960000  0  4G 3G21G17G23
  21308964.934     3444711.583 6   2684183.94521        15.750           0.656
  22013583.606    -9099860.899 6  -6893017.46421        13.750           0.813
  19861982.535    -6034296.192 7  -4702044.40523        25.500           3.281
  19378513.910   -25918788.747 7 -20196414.01323        27.000           2.531
 91  7 26  2 58 14.9960000  0  4G 3G21G17G23
  21316711.434     3485441.782 6   2715921.69721        15.250           0.625
  22003520.395    -9152721.881 6  -6934207.79021        13.000           0.875
  19864322.387    -6021995.803 7  -4692459.69823        25.750           3.344
  19375665.066   -25933759.318 7 -20208079.38423        26.750           2.531
 91  7 26  2 58 29.9960000  0  4G 3G21G17G23
  21324483.973     3526293.363 6   2747754.06121        14.500           0.625
  21993480.816    -9205502.309 6  -6975335.35421        13.250           0.813
  19866682.254    -6009603.919 7  -4682803.69823        26.500           3.469
  19372840.371   -25948598.849 7 -20219642.64523        26.500           2.531
 91  7 26  2 58 44.9960000  0  4G 3G21G17G23
  21332279.801     3567262.201 6   2779677.79521        14.000           0.688
  21983446.871    -9258206.165 6  -7016403.23721        13.000           0.844
  19869054.770    -5997124.871 7  -4673079.77223        25.250           3.438
  19370041.684   -25963311.431 7 -20231106.99023        27.000           2.594
 91  7 26  2 58 59.9960000  0  4G 3G21G17G23
  21340101.121     3608353.300 6   2811696.79921        15.000           0.563
  21973434.129    -9310827.952 6  -7057407.15521        13.000           0.938
  19871447.137    -5984553.446 7  -4663283.86624        25.000           3.563
  19367267.637   -25977891.582 7 -20242468.13423        27.000           2.500
 91  7 26  2 59 14.9960000  0  4G 3G21G17G23
  21347940.418     3649561.322 6   2843806.87721        15.000           0.625
  21963437.324    -9363372.835 6  -7098351.18621        12.500           0.844
  19873856.590    -5971894.923 7  -4653420.09424        25.250           3.531
  19364516.879   -25992344.959 7 -20253730.49522        27.000           2.469
 91  7 26  2 59 29.9960000  0  4G 3G21G17G23
  21355808.074     3690888.565 6   2876009.88821        15.750           0.625
  21953453.863    -9415837.835 6  -7139232.95821        13.000           0.781
  19876284.668    -5959146.326 7  -4643486.12724        25.500           3.531
  19361790.027   -26006668.924 7 -20264892.01923        26.500           2.500
 91  7 26  2 59 44.9960000  0  4G 3G21G17G23
  21363695.754     3732340.346 6   2908309.93721        15.250           0.594
  21943486.824    -9468217.665 6  -7180048.36221        13.500           0.781
  19878726.918    -5946302.728 7  -4633478.13924        25.000           3.531
  19359090.856   -26020858.230 7 -20275948.61922        27.250           2.438
 91  7 26  2 59 59.9960000  0  4G 3G21G17G23
  21371604.707     3773907.064 6   2940699.53421        14.750           0.656
  21933531.707    -9520521.418 6  -7220804.46921        13.750           0.750
  19881186.848    -5933373.135 7  -4623403.13724        24.750           3.656
  19356413.598   -26034922.094 7 -20286907.46522        27.250           2.375
 91  7 26  3  0 14.9960000  0  4G 3G21G17G23
  21379533.871     3815588.581 6   2973178.59921        13.750           0.594
  21923590.606    -9572748.828 6  -7261501.10421        13.500           0.750
  19883665.660    -5920357.581 7  -4613261.15524        25.250           3.688
  19353761.402   -26048860.451 7 -20297768.51622        27.750           2.281
 91  7 26  3  0 29.9960000  0  4G 3G21G17G23
  21387492.996     3857387.896 6   3005749.45621        14.750           0.625
  21913670.418    -9624896.663 6  -7302135.70521        14.500           0.938
  19886157.520    -5907252.891 7  -4603049.71424        25.250           3.656
  19351134.637   -26062670.393 8 -20308529.50322        28.250           2.281
 91  7 26  3  0 44.9960000  0  4G 3G21G17G23
  21395463.637     3899307.338 6   3038413.91021        13.750           0.625
  21903760.926    -9676962.249 6  -7342706.24221        14.500           0.906
  19888669.996    -5894056.449 7  -4592766.77423        26.000           3.469
  19348530.418   -26076349.318 8 -20319188.39222        28.000           2.438
 91  7 26  3  0 59.9960000  0  4G 3G21G17G23
  21403468.441     3941339.100 6   3071165.89221        14.250           0.719
  21893868.863    -9728952.947 6  -7383218.41421        14.500           0.781
  19891196.090    -5880775.916 7  -4582418.31323        26.000           3.375
  19345951.973   -26089904.729 8 -20329751.04322        28.000           2.375
 91  7 26  3  1 14.9960000  0  4G 3G21G17G23
  21411488.629     3983487.661 6   3104008.87521        13.500           0.625
  21883989.699    -9780863.763 6  -7423668.34521        14.750           0.781
  19893740.324    -5867406.537 7  -4572000.62223        25.750           3.406
  19343396.512   -26103331.823 8 -20340213.70622        28.000           2.344
 91  7 26  3  1 29.9960000  0  4G 3G21G17G23
  21419525.668     4025756.096 6   3136945.26621        12.250           0.719
  21874127.082    -9832691.326 6  -7464053.40221        15.000           0.750
  19896302.731    -5853944.797 7  -4561510.96523        26.000           3.375
  19340865.668   -26116627.753 8 -20350574.16722        28.250           2.281
 91  7 26  3  1 44.9960000  0  4G 3G21G17G23
  21427596.496     4068140.956 6   3169972.39021        12.750           0.656
  21864283.004    -9884438.668 6  -7504375.95221        15.250           0.750
  19898882.676    -5840394.020 7  -4550951.91723        26.250           3.156
  19338359.832   -26129795.676 7 -20360834.88122        27.750           2.344
 91  7 26  3  1 59.9960000  0  4G 3G21G17G23
  21435683.434     4110635.794 6   3203085.20521        13.250           0.625
  21854445.535    -9936112.104 6  -7544640.90521        14.000           0.813
  19901475.754    -5826760.469 7  -4540328.38123        26.500           3.219
  19335876.066   -26142842.004 7 -20371000.84322        27.250           2.438
 91  7 26  3  2 14.9960000  0  4G 3G21G17G23
  21443788.121     4153246.709 6   3236288.45121        13.250           0.656
  21844626.004    -9987705.051 6  -7584843.14121        13.750           0.938
  19904086.449    -5813037.874 7  -4529635.44823        26.750           3.188
  19333418.816   -26155760.321 7 -20381067.05722        27.750           2.406
 91  7 26  3  2 29.9960000  0  4G 3G21G17G23
  21451921.770     4195970.983 6   3269580.05621        13.500           0.563
  21834826.637   -10039219.948 6  -7624984.56821        14.250           0.781
  19906715.777    -5799228.854 7  -4518875.17223        27.500           3.063
  19330984.043   -26168553.295 7 -20391035.60522        27.500           2.406
 91  7 26  3  2 44.9960000  0  4G 3G21G17G23
  21460077.879     4238808.616 6   3302959.99521        13.500           0.625
  21825039.645   -10090656.319 6  -7665064.79521        15.000           0.625
  19909359.988    -5785333.322 7  -4508047.48423        27.250           3.188
  19328574.121   -26181220.541 7 -20400906.18122        27.750           2.406
 91  7 26  3  2 59.9960000  0  4G 3G21G17G23
  21468247.020     4281758.605 6   3336427.46121        13.500           0.500
  21815266.902   -10142014.802 6  -7705084.32021        15.000           0.875
  19912018.004    -5771351.852 7  -4497152.83523        26.250           3.094
  19326186.832   -26193763.126 8 -20410679.61522        28.250           2.469
 91  7 26  3  3 14.9960000  0  4G 3G21G17G23
  21476441.176     4324824.059 6   3369984.90721        13.500           0.563
  21805506.816   -10193292.099 6  -7745040.59221        14.250           0.844
  19914697.348    -5757281.271 7  -4486188.74323        26.500           3.156
  19323824.957   -26206177.834 8 -20420353.41222        28.250           2.406
 91  7 26  3  3 29.9960000  0  4G 3G21G17G23
  21484658.324     4368007.110 6   3403633.99421        13.000           0.563
  21795762.379   -10244485.478 6  -7784931.46721        14.500           0.781
  19917392.020    -5743118.976 7  -4475153.19923        26.500           3.188
  19321487.371   -26218462.271 8 -20429925.69522        28.000           2.344
 91  7 26  3  3 44.9960000  0  4G 3G21G17G23
  21492895.848     4411306.624 6   3437373.82721        13.000           0.469
  21786036.340   -10295595.896 6  -7824757.69321        14.500           0.750
  19920104.621    -5728865.912 7  -4464046.91623        27.000           3.188
  19319174.434   -26230617.537 8 -20439397.32722        28.000           2.469
 91  7 26  3  3 59.9960000  0  4G 3G21G17G23
  21501158.059     4454719.050 6   3471201.63021        13.000           0.438
  21776328.176   -10346626.194 6  -7864521.49221        14.500           0.719
  19922834.902    -5714525.240 7  -4452872.37523        27.250           3.156
  19316885.645   -26242646.553 7 -20448770.57822        27.500           2.375
 91  7 26  3  4 14.9960000  0  4G 3G21G17G23
  21509442.660     4498241.527 6   3505115.20421        13.000           0.406
  21766631.184   -10397579.047 6  -7904224.97121        15.000           0.656
  19925577.731    -5700099.828 7  -4441631.79723        26.250           3.156
  19314620.191   -26254552.420 8 -20458047.87422        28.000           2.375
 91  7 26  3  4 29.9960000  0  4G 3G21G17G23
  21517743.910     4541873.956 6   3539114.44821        13.000           0.438
  21756951.004   -10448454.147 6  -7943867.84121        15.250           0.813
  19928340.746    -5685589.417 7  -4430324.99223        26.500           3.313
  19312378.238   -26266334.925 8 -20467229.03722        28.000           2.313
 91  7 26  3  4 44.9960000  0  4G 3G21G17G23
  21526070.356     4585620.167 6   3573202.35121        12.750           0.531
  21747284.191   -10499247.575 6  -7983447.08321        15.000           0.844
  19931118.129    -5670990.086 7  -4418948.89423        26.750           3.156
  19310159.356   -26277990.239 8 -20476311.09822        28.250           2.281
 91  7 26  3  4 59.9960000  0  4G 3G21G17G23
  21534409.332     4629475.953 6   3607375.62521        12.750           0.438
  21737631.582   -10549963.027 6  -8022965.55921        15.000           0.938
  19933913.215    -5656305.876 7  -4407506.66823        26.500           3.250
  19307965.895   -26289522.383 8 -20485297.18222        28.500           2.344
 91  7 26  3  5 14.9960000  0  4G 3G21G17G23
  21542780.910     4673441.416 6   3641634.38821        13.000           0.500
  21727998.176   -10600599.951 6  -8062422.83621        15.500           0.813
  19936722.027    -5641536.286 7  -4395997.91523        25.750           3.125
  19305794.441   -26300930.933 8 -20494186.95722        28.500           2.375
 91  7 26  3  5 29.9960000  0  4G 3G21G17G23
  21551165.660     4717518.127 6   3675979.82621        13.750           0.531
  21718375.731   -10651156.528 6  -8101817.52121        15.000           0.875
  19939548.582    -5626679.552 7  -4384421.23523        25.000           3.188
  19303646.637   -26312214.367 8 -20502979.23222        28.750           2.375
 91  7 26  3  5 44.9960000  0  4G 3G21G17G23
  21559577.363     4761705.858 6   3710411.76221        13.500           0.438
  21708768.551   -10701632.559 6  -8141149.43121        14.500           0.938
  19942394.098    -5611735.710 7  -4372776.69423        25.250           3.219
  19301523.613   -26323372.627 8 -20511673.98122        28.750           2.438
 91  7 26  3  5 59.9960000  0  4G 3G21G17G23
  21568005.434     4806007.816 6   3744932.71521        13.250           0.406
  21699186.379   -10752024.350 6  -8180415.69621        15.250           1.000
  19945252.223    -5596701.370 7  -4361061.63923        24.750           3.156
  19299425.293   -26334402.291 8 -20520268.51722        29.000           2.375
 91  7 26  3  6 14.9960000  0  4G 3G21G17G23
  21576459.324     4850425.765 6   3779544.06521        13.000           0.438
  21689609.848   -10802329.897 6  -8219614.77321        15.250           0.906
  19948133.863    -5581574.490 7  -4349274.46323        25.500           3.219
  19297350.309   -26345301.474 8 -20528761.38022        28.000           2.406
 91  7 26  3  6 29.9960000  0  4G 3G21G17G23
  21584930.582     4894951.180 6   3814239.12421        12.750           0.406
  21680053.590   -10852557.420 6  -8258753.03821        16.000           1.063
  19951028.996    -5566363.384 7  -4337421.66123        26.250           3.344
  19295299.551   -26356078.414 7 -20537158.99722        27.750           2.219
 91  7 26  3  6 44.9960000  0  4G 3G21G17G23
  21593427.012     4939584.642 6   3849018.38921        12.750           0.438
  21670510.668   -10902705.929 6  -8297829.73721        16.000           0.906
  19953939.215    -5551067.247 7  -4325502.60323        26.250           3.219
  19293272.293   -26366732.502 7 -20545460.87522        27.750           2.344
 91  7 26  3  6 59.9960000  0  4G 3G21G17G23
  21601939.027     4984324.887 6   3883880.86121        12.500           0.469
  21660979.973   -10952776.360 6  -8336845.60121        15.250           0.906
  19956866.715    -5535687.074 7  -4313518.06123        26.000           3.188
  19291268.941   -26377265.085 8 -20553668.07822        28.500           2.313
 91  7 26  3  7 14.9960000  0  4G 3G21G17G23
  21610474.106     5029171.659 6   3918826.33921        12.750           0.375
  21651464.785   -11002768.342 6  -8375800.32221        15.500           0.906
  19959807.723    -5520222.540 7  -4301467.78523        25.750           3.281
  19289286.957   -26387675.969 8 -20561780.44522        28.250           2.344
 91  7 26  3  7 29.9960000  0  4G 3G21G17G23
  21619026.496     5074131.205 6   3953859.69121        12.500           0.438
  21641974.988   -11052675.665 6  -8414689.08721        16.750           1.031
  19962770.621    -5504667.816 7  -4289347.22723        26.000           3.063
  19287329.637   -26397959.079 8 -20569793.26022        28.250           2.406
 91  7 26  3  7 44.9960000  0  4G 3G21G17G23
  21627604.309     5119197.664 6   3988976.36321        12.500           0.406
  21632488.402   -11102503.482 6  -8453515.87821        16.250           1.125
  19965743.488    -5489028.058 7  -4277160.41823        25.000           3.125
  19285396.496   -26408119.748 8 -20577710.65722        28.500           2.406
 91  7 26  3  7 59.9960000  0  4G 3G21G17G23
  21636203.520     5164371.642 6   4024176.79621        13.000           0.250
  21623023.113   -11152250.846 6  -8492280.01021        16.000           1.000
  19968738.020    -5473302.455 7  -4264906.71323        25.250           2.938
  19283486.082   -26418157.222 8 -20585532.06522        28.250           2.406
 91  7 26  3  8 14.9960000  0  4G 3G21G17G23
  21644817.731     5209650.019 6   4059458.59221        12.750           0.375
  21613571.777   -11201920.718 6  -8530983.74321        16.250           1.188
  19971743.566    -5457494.152 7  -4252588.56523        24.500           2.906
  19281598.606   -26428074.571 8 -20593259.86022        28.250           2.375
 91  7 26  3  8 29.9960000  0  4G 3G21G17G23
  21653458.871     5255026.520 6   4094816.83621        13.250           0.281
  21604135.910   -11251518.927 6  -8569631.65121        16.750           1.094
  19974766.777    -5441608.856 7  -4240210.41823        24.500           2.969
  19279732.879   -26437877.760 8 -20600898.69922        28.000           2.438
 91  7 26  3  8 44.9960000  0  4G 3G21G17G23
  21662105.598     5300507.779 6   4130256.71521        12.500           0.281
  21594708.926   -11301038.448 6  -8608218.23321        16.500           1.031
  19977806.996    -5425640.018 7  -4227767.17523        24.000           2.906
  19277891.074   -26447560.185 8 -20608443.44522        28.250           2.438
 91  7 26  3  8 59.9960000  0  4G 3G21G17G23
  21670785.199     5346091.480 6   4165776.43421        13.250           0.313
  21585303.551   -11350481.118 6  -8646744.93521        17.000           1.063
  19980859.973    -5409589.586 7  -4215260.35923        23.250           2.781
  19276071.543   -26457123.980 8 -20615895.74722        28.500           2.344
 91  7 26  3  9 14.9960000  0  4G 3G21G17G23
  21679478.309     5391773.159 6   4201372.48621        12.750           0.313
  21575904.410   -11399851.111 6  -8685215.00021        16.250           1.063
  19983931.418    -5393461.764 7  -4202693.23623        24.000           2.844
  19274274.168   -26466573.478 8 -20623258.98522        28.750           2.375
 91  7 26  3  9 29.9960000  0  4G 3G21G17G23
  21688183.410     5437557.140 6   4237048.25421        12.250           0.375
  21566525.145   -11449143.713 6  -8723624.76821        15.750           1.031
  19987011.152    -5377251.808 7  -4190062.11623        23.500           2.875
  19272498.543   -26475904.169 8 -20630529.64922        28.750           2.313
 91  7 26  3  9 44.9960000  0  4G 3G21G17G23
  21696921.004     5483442.738 6   4272803.21621        12.750           0.406
  21557158.762   -11498359.270 6  -8761974.48621        15.500           1.063
  19990112.762    -5360960.415 7  -4177367.53823        24.250           2.844
  19270745.184   -26485116.721 8 -20637708.25422        28.250           2.281
 91  7 26  3  9 59.9960000  0  4G 3G21G17G23
  21705668.965     5529435.821 5   4308641.91421        11.750           0.375
  21547810.066   -11547491.519 6  -8800259.29721        15.000           1.125
  19993231.465    -5344581.564 7  -4164604.79923        24.500           2.906
  19269014.731   -26494204.865 8 -20644789.91922        28.000           2.281
 91  7 26  3 10 14.9960000  0  4G 3G21G17G23
  21714444.606     5575533.985 5   4344562.50721        11.750           0.375
  21538478.832   -11596542.422 6  -8838480.73221        15.750           1.188
  19996364.754    -5328117.089 7  -4151775.35123        24.750           3.000
  19267308.918   -26503170.812 8 -20651776.36622        28.250           2.219
 91  7 26  3 10 29.9960000  0  4G 3G21G17G23
  21723226.770     5621737.569 5   4380565.23421        11.500           0.406
  21529158.059   -11645511.316 6  -8876638.25921        15.750           1.094
  19999514.332    -5311566.648 7  -4138878.91523        25.250           2.875
  19265625.481   -26512014.313 7 -20658667.39622        27.750           2.250
 91  7 26  3 10 44.9960000  0  4G 3G21G17G23
  21732052.504     5668041.430 6   4416646.11621        13.250           0.313
  21519852.731   -11694402.878 6  -8914735.54421        15.750           1.188
  20002678.371    -5294934.907 7  -4125919.12823        24.500           3.031
  19263965.223   -26520740.052 7 -20665466.67222        27.750           2.313
 91  7 26  3 10 59.9960000  0  4G 3G21G17G23
  21740877.613     5714439.526 6   4452800.42421        12.000           0.375
  21510563.902   -11743223.021 6  -8952777.15921        16.000           1.125
  20005857.488    -5278227.861 7  -4112900.65823        24.750           3.094
  19262325.762   -26529353.976 7 -20672178.80922        27.750           2.313
 91  7 26  3 11 14.9960000  0  4G 3G21G17G23
  21749722.332     5760937.264 6   4489032.35221        12.250           0.563
  21501287.731   -11791965.593 6  -8990758.33621        16.000           1.125
  20009053.879    -5261439.687 7  -4099818.97023        25.250           2.938
  19260709.816   -26537850.583 8 -20678799.53622        28.500           2.375
 91  7 26  3 11 29.9960000  0  4G 3G21G17G23
  21758593.082     5807536.068 6   4525343.06021        12.000           0.344
  21492028.465   -11840629.024 6  -9028677.84321        16.000           1.125
  20012260.566    -5244569.188 7  -4086673.13223        24.500           3.000
  19259115.027   -26546228.401 8 -20685327.69722        28.000           2.313
 91  7 26  3 11 44.9960000  0  4G 3G21G17G23
  21767479.527     5854239.320 6   4561735.13421        12.500           0.531
  21482784.816   -11889209.573 6  -9066532.76821        16.000           1.000
  20015488.098    -5227612.501 7  -4073460.13323        24.500           3.063
  19257543.863   -26554483.694 7 -20691760.38922        27.750           2.469
 91  7 26  3 11 59.9960000  0  4G 3G21G17G23
  21776384.645     5901040.717 6   4598203.69621        12.000           0.375
  21473556.777   -11937712.880 6  -9104327.51321        16.500           1.188
  20018731.473    -5210575.270 7  -4060184.37023        24.500           3.094
  19255996.434   -26562622.396 8 -20698102.23322        28.500           2.313
 91  7 26  3 12 14.9960000  0  4G 3G21G17G23
  21785312.043     5947942.594 6   4634750.54121        12.500           0.531
  21464336.074   -11986136.631 6  -9142060.25421        15.500           1.031
  20021989.621    -5193455.326 7  -4046844.16623        24.500           3.031
  19254470.262   -26570642.704 8 -20704351.81122        28.500           2.469
 91  7 26  3 12 29.9960000  0  4G 3G21G17G23
  21794257.652     5994941.524 6   4671373.01721        12.750           0.500
  21455137.801   -12034483.854 6  -9179733.37821        15.250           1.094
  20025261.840    -5176255.848 7  -4033441.97923        24.750           2.969
  19252964.426   -26578547.529 8 -20710511.41122        28.000           2.375
 91  7 26  3 12 44.9960000  0  4G 3G21G17G23
  21803216.059     6042043.025 6   4708075.42921        12.000           0.469
  21445952.957   -12082748.393 6  -9217342.05721        15.250           1.063
  20028551.059    -5158970.759 7  -4019973.08623        24.250           3.063
  19251484.418   -26586330.936 8 -20716576.39822        28.500           2.406
 91  7 26  3 12 59.9960000  0  4G 3G21G17G23
  21812199.324     6089243.861 5   4744855.25321        11.500           0.469
  21436782.973   -12130933.179 6  -9254888.59721        14.750           0.969
  20031856.863    -5141603.318 7  -4006440.01123        24.750           3.000
  19250025.949   -26593996.191 8 -20722549.31622        28.750           2.375
 91  7 26  3 13 14.9960000  0  4G 3G21G17G23
  21821202.527     6136541.423 6   4781710.42521        12.000           0.469
  21427630.676   -12179040.619 6  -9292374.87121        15.000           1.094
  20035177.316    -5124155.912 7  -3992844.64323        25.000           3.063
  19248588.481   -26601545.909 8 -20728432.21022        28.500           2.344
 91  7 26  3 13 29.9960000  0  4G 3G21G17G23
  21830216.512     6183936.882 5   4818641.89921        11.500           0.375
  21418487.699   -12227068.936 6  -9329799.48121        15.250           1.031
  20038511.738    -5106626.750 7  -3979185.55923        23.750           3.031
  19247174.363   -26608978.339 8 -20734223.70622        29.000           2.438
 91  7 26  3 13 44.9960000  0  4G 3G21G17G23
  21839256.879     6231432.958 5   4855651.77121        10.750           0.500
  21409366.238   -12275015.239 6  -9367160.19621        15.500           1.000
  20041865.090    -5089013.286 7  -3965460.79123        24.000           3.094
  19245784.129   -26616291.080 8 -20739921.93722        29.500           2.406
 91  7 26  3 13 59.9960000  0  4G 3G21G17G23
  21848310.457     6279023.676 5   4892735.38121        10.250           0.500
  21400256.074   -12322885.033 6  -9404461.28821        15.750           1.031
  20045230.012    -5071321.079 7  -3951674.66323        23.500           2.969
  19244413.770   -26623489.670 8 -20745531.22023        29.250           2.500
 91  7 26  3 14 14.9960000  0  4G 3G21G17G23
  21857387.660     6326708.971 5   4929892.69721        10.750           0.469
  21391161.723   -12370678.028 6  -9441702.52821        15.750           1.031
  20048612.957    -5053549.895 7  -3937826.98823        24.000           3.031
  19243065.684   -26630574.062 8 -20751051.51922        28.750           2.344
 91  7 26  3 14 29.9960000  0  4G 3G21G17G23
  21866479.606     6374495.701 5   4967129.03621        10.250           0.438
  21382084.207   -12418386.930 6  -9478878.24721        16.000           1.063
  20052008.043    -5035692.727 7  -3923912.32423        23.250           3.000
  19241739.184   -26637537.133 8 -20756477.28422        28.750           2.469
 91  7 26  3 14 44.9960000  0  4G 3G21G17G23
  21875596.277     6422377.813 5   5004439.71821        11.250           0.469
  21373017.012   -12466017.524 6  -9515992.94621        16.500           1.031
  20055424.238    -5017755.371 7  -3909935.16023        23.500           3.125
  19240435.395   -26644384.961 8 -20761813.24522        28.000           2.344
 91  7 26  3 14 59.9960000  0  4G 3G21G17G23
  21884721.856     6470358.420 5   5041827.13621        11.500           0.281
  21363973.621   -12513566.256 6  -9553043.87021        17.250           0.875
  20058854.043    -4999734.392 7  -3895892.84923        23.500           3.000
  19239155.676   -26651114.153 7 -20767056.76822        27.750           2.375
 91  7 26  3 15 14.9960000  0  4G 3G21G17G23
  21893876.106     6518436.330 6   5079290.38221        12.250           0.344
  21354939.582   -12561033.958 6  -9590031.64021        17.500           1.000
  20062298.707    -4981630.789 7  -3881786.15523        23.500           3.094
  19237897.668   -26657725.837 7 -20772208.72322        27.500           2.406
 91  7 26  3 15 29.9960000  0  4G 3G21G17G23
  21903043.676     6566605.164 6   5116824.48821        12.000           0.406
  21345922.340   -12608426.671 6  -9626960.97921        18.250           1.063
  20065757.316    -4963450.731 7  -3867619.88223        22.750           3.188
  19236663.324   -26664226.237 7 -20777273.97022        27.750           2.375
 91  7 26  3 15 44.9960000  0  4G 3G21G17G23
  21912225.363     6614869.113 6   5154432.68621        13.250           0.500
  21336914.910   -12655739.981 6  -9663828.44221        17.500           1.031
  20069233.723    -4945189.740 7  -3853390.54923        24.000           3.188
  19235446.566   -26670611.112 7 -20782249.18522        27.500           2.438
 91  7 26  3 15 59.9960000  0  4G 3G21G17G23
  21921427.785     6663227.759 6   5192114.69321        13.000           0.375
  21327929.160   -12702973.494 6  -9700633.73721        18.250           1.125
  20072722.731    -4926847.782 7  -3839098.12323        23.250           3.125
  19234252.254   -26676880.290 7 -20787134.25322        27.000           2.469
 91  7 26  3 16 14.9960000  0  4G 3G21G17G23
  21930642.434     6711677.785 6   5229867.89621        12.500           0.375
  21318956.715   -12750130.467 6  -9737379.38821        18.000           1.156
  20076228.168    -4908428.273 7  -3824745.26923        22.750           3.000
  19233082.348   -26683037.264 8 -20791931.89422        28.000           2.344
 91  7 26  3 16 29.9960000  0  4G 3G21G17G23
  21939887.832     6760223.354 6   5267695.55821        13.000           0.406
  21309996.965   -12797206.232 6  -9774061.75021        17.000           1.188
  20079749.785    -4889926.567 7  -3810328.36423        24.250           3.031
  19231932.160   -26689077.585 7 -20796638.63122        27.750           2.469
 91  7 26  3 16 44.9960000  0  4G 3G21G17G23
  21949142.082     6808861.583 6   5305595.41521        13.250           0.375
  21301053.856   -12844203.205 6  -9810682.73321        17.750           1.188
  20083284.027    -4871345.412 7  -3795849.55223        23.500           3.000
  19230804.395   -26695003.911 7 -20801256.53823        27.250           2.500
 91  7 26  3 16 59.9960000  0  4G 3G21G17G23
  21958410.832     6857594.331 6   5343568.92121        12.000           0.375
  21292125.949   -12891119.293 6  -9847240.67421        18.250           1.125
  20086835.840    -4852682.554 7  -3781307.07323        23.250           2.938
  19229697.473   -26700814.423 7 -20805784.21223        27.500           2.563
 91  7 26  3 17 14.9960000  0  4G 3G21G17G23
  21967702.934     6906421.665 5   5381616.14021        11.750           0.438
  21283212.793   -12937953.973 6  -9883735.19321        17.750           1.094
  20090403.637    -4833937.641 7  -3766700.66223        23.000           2.969
  19228615.957   -26706508.717 8 -20810221.32123        28.500           2.563
 91  7 26  3 17 29.9960000  0  4G 3G21G17G23
  21977012.754     6955339.465 5   5419733.84321        11.000           0.344
  21274315.238   -12984711.129 6  -9920169.29521        17.250           1.156
  20093984.473    -4815114.808 7  -3752033.52523        22.750           3.031
  19227553.145   -26712090.694 8 -20814570.90722        28.250           2.469
 91  7 26  3 17 44.9960000  0  4G 3G21G17G23
  21986339.934     7004348.393 5   5457922.56221        11.000           0.313
  21265432.231   -13031389.582 6  -9956542.07721        18.500           1.063
  20097580.981    -4796212.707 7  -3737304.62523        22.000           2.844
  19226512.707   -26717559.555 8 -20818832.35022        28.000           2.469
 91  7 26  3 17 59.9960000  0  4G 3G21G17G23
  21995682.418     7053444.810 5   5496179.43521        11.250           0.469
  21256564.606   -13077992.579 6  -9992856.05221        18.250           1.125
  20101194.551    -4777234.940 7  -3722516.76123        23.500           2.969
  19225492.137   -26722918.867 7 -20823008.42723        27.250           2.500
 91  7 26  3 18 14.9960000  0  4G 3G21G17G23
  22005042.895     7102631.310 5   5534506.52321        11.500           0.313
  21247709.629   -13124517.259 6 -10029109.00321        17.750           1.063
  20104823.004    -4758178.831 7  -3707667.84623        24.250           2.781
  19224493.988   -26728165.934 7 -20827097.04323        27.000           2.563
 91  7 26  3 18 29.9960000  0  4G 3G21G17G23
  22014420.356     7151906.767 5   5572902.91521        11.500           0.406
  21238870.535   -13170964.241 6 -10065301.40921        17.750           1.156
  20108462.020    -4739044.942 7  -3692758.33723        24.250           2.813
  19223515.481   -26733301.652 7 -20831098.89623        27.000           2.500
 91  7 26  3 18 44.9960000  0  4G 3G21G17G23
  22023810.262     7201269.333 5   5611367.19421        11.500           0.438
  21230047.332   -13217335.029 6 -10101434.45121        17.250           1.281
  20112114.965    -4719834.890 7  -3677789.47723        23.500           2.656
  19222559.926   -26738327.553 7 -20835015.17523        27.000           2.500
 91  7 26  3 18 59.9960000  0  4G 3G21G17G23
  22033223.238     7250723.033 6   5649902.49721        12.000           0.344
  21221239.418   -13263625.234 6 -10137504.70521        18.000           1.313
  20115784.012    -4700544.391 7  -3662757.92223        22.500           2.688
  19221624.957   -26743239.731 7 -20838842.83722        27.000           2.375
 91  7 26  3 19 14.9960000  0  4G 3G21G17G23
  22042647.684     7300267.251 5   5688508.31821        11.000           0.375
  21212446.309   -13309835.215 6 -10173512.43621        18.250           1.281
  20119473.863    -4681173.775 7  -3647663.93223        23.000           2.719
  19220712.535   -26748038.555 7 -20842582.17723        27.500           2.531
 91  7 26  3 19 29.9960000  0  4G 3G21G17G23
  22052094.246     7349902.092 5   5727184.76721        11.500           0.375
  21203666.051   -13355964.365 6 -10209457.18121        17.750           1.188
  20123174.848    -4661722.883 7  -3632507.40523        22.750           2.813
  19219820.770   -26752723.705 7 -20846232.93823        27.000           2.531
 91  7 26  3 19 44.9960000  0  4G 3G21G17G23
  22061561.098     7399623.311 6   5765928.51721        12.000           0.313
  21194903.832   -13402016.566 6 -10245341.96821        17.750           1.375
  20126892.559    -4642195.583 7  -3617291.33323        23.500           2.750
  19218949.043   -26757299.158 7 -20849798.22023        26.750           2.531
 91  7 26  3 19 59.9960000  0  4G 3G21G17G23
  22071032.660     7449433.752 5   5804741.79621        10.750           0.406
  21186156.027   -13447988.527 6 -10281164.22521        18.000           1.156
  20130621.473    -4622588.809 7  -3602013.33323        23.250           2.813
  19218099.043   -26761761.978 7 -20853275.73622        27.000           2.469
 91  7 26  3 20 14.9960000  0  4G 3G21G17G23
  22080531.668     7499331.279 5   5843622.94221        10.250           0.281
  21177422.652   -13493882.172 6 -10316925.47021        17.250           1.250
  20134367.793    -4602904.427 7  -3586674.86023        22.750           2.688
  19217273.738   -26766114.127 8 -20856667.01723        28.000           2.500
 91  7 26  3 20 29.9960000  0  4G 3G21G17G23
  22090040.207     7549315.936 5   5882571.94521        10.250           0.313
  21168703.277   -13539696.933 6 -10352625.24221        18.250           1.375
  20138128.371    -4583142.090 7  -3571275.64423        23.000           2.656
  19216465.324   -26770355.447 7 -20859971.93622        27.250           2.406
 91  7 26  3 20 44.9960000  0  4G 3G21G17G23
  22099573.066     7599387.847 5   5921588.96121        10.000           0.313
  21159999.856   -13585432.194 6 -10388263.06721        17.500           1.188
  20141902.809    -4563301.563 7  -3555815.49823        23.000           2.656
  19215678.879   -26774485.656 7 -20863190.27923        27.750           2.531
 91  7 26  3 20 59.9960000  0  4G 3G21G17G23
  22109117.996     7649552.278 5   5960678.09721         9.500           0.344
  21151315.863   -13631082.420 6 -10423834.63121        18.250           1.375
  20145694.176    -4543377.206 7  -3540290.02123        22.500           2.656
  19214916.129   -26778499.350 8 -20866317.82323        28.250           2.500
 91  7 26  3 21 14.9960000  0  4G 3G21G17G23
  22118683.332     7699801.264 5   5999833.07021        10.000           0.219
  21142644.231   -13676655.116 6 -10459345.76621        19.000           1.313
  20149500.129    -4523376.482 7  -3524705.04923        22.250           2.719
  19214171.231   -26782404.097 7 -20869360.47322        27.500           2.438
 91  7 26  3 21 29.9960000  0  4G 3G21G17G23
  22128258.113     7750134.937 5   6039054.04421         9.500           0.406
  21133984.356   -13722149.997 6 -10494796.27121        18.500           1.469
  20153322.621    -4503299.290 7  -3509060.49523        23.250           2.813
  19213450.676   -26786200.023 8 -20872318.33923        28.000           2.594
 91  7 26  3 21 44.9960000  0  4G 3G21G17G23
  22137853.082     7800551.092 5   6078339.31221         9.000           0.313
  21125340.731   -13767568.730 6 -10530187.46121        19.500           1.344
  20157153.879    -4483147.321 7  -3493357.66923        21.750           2.625
  19212748.020   -26789888.842 8 -20875192.73422        28.250           2.469
 91  7 26  3 21 59.9960000  0  4G 3G21G17G23
  22147462.465     7851052.455 5   6117690.95521         9.500           0.406
  21116714.598   -13812908.306 6 -10565516.93921        19.750           1.438
  20161005.840    -4462917.952 7  -3477594.51923        22.750           2.875
  19212066.566   -26793467.991 7 -20877981.67622        27.500           2.406
 91  7 26  3 22 14.9960000  0  4G 3G21G17G23
  22157091.246     7901642.199 5   6157111.48221         9.750           0.250
  21108100.387   -13858164.916 6 -10600781.77521        18.750           1.281
  20164870.348    -4442607.548 7  -3461768.23723        23.000           2.750
  19211407.613   -26796933.848 7 -20880682.33323        27.250           2.531
 91  7 26  3 22 29.9960000  0  4G 3G21G17G23
  22166731.277     7952314.504 5   6196596.32121         9.250           0.500
  21099505.613   -13903344.103 6 -10635986.31821        19.500           1.281
  20168749.887    -4422221.796 7  -3445883.23623        23.000           2.781
  19210768.668   -26800292.005 7 -20883299.07423        27.500           2.500
 91  7 26  3 22 44.9960000  0  4G 3G21G17G23
  22176388.332     8003067.734 5   6236144.24421         9.500           0.344
  21090921.176   -13948447.128 6 -10671131.47621        19.750           1.313
  20172642.410    -4401761.727 7  -3429940.32823        22.250           2.750
  19210150.434   -26803543.928 7 -20885833.03723        27.750           2.594
 91  7 26  3 22 59.9960000  0  4G 3G21G17G23
  22186059.738     8053903.686 5   6275756.60621         9.500           0.375
  21082353.481   -13993471.906 6 -10706215.66421        19.000           1.344
  20176551.629    -4381225.585 7  -3413938.14023        23.000           2.813
  19209551.590   -26806687.829 7 -20888282.81823        27.250           2.500
 91  7 26  3 23 14.9960000  0  4G 3G21G17G23
  22195757.207     8104827.200 5   6315437.21621        10.250           0.406
  21073801.387   -14038413.077 6 -10741234.72221        19.000           1.250
  20180476.215    -4360607.991 7  -3397872.48823        23.250           2.688
  19208974.527   -26809718.481 7 -20890644.36323        27.000           2.563
 91  7 26  3 23 29.9960000  0  4G 3G21G17G23
  22205463.348     8155834.466 5   6355183.05621         9.500           0.406
  21065262.582   -14083274.274 6 -10776191.44821        18.500           1.281
  20184413.965    -4339912.807 7  -3381746.37723        23.750           2.750
  19208418.262   -26812639.820 7 -20892920.72323        26.750           2.531
 91  7 26  3 23 44.9960000  0  4G 3G21G17G23
  22215181.293     8206930.955 5   6394998.45921         9.250           0.313
  21056743.113   -14128049.481 6 -10811081.18421        19.250           1.313
  20188367.574    -4319134.054 7  -3365555.15723        23.000           2.719
  19207884.848   -26815446.028 7 -20895107.37523        27.000           2.531
 91  7 26  3 23 59.9960000  0  4G 3G21G17G23
  22224922.270     8258116.124 5   6434882.94921         9.750           0.313
  21048240.645   -14172738.937 6 -10845904.10321        19.750           1.219
  20192334.488    -4298272.074 7  -3349299.07423        22.250           2.594
  19207371.629   -26818137.541 7 -20897204.65623        26.750           2.500
 91  7 26  3 24 14.9960000  0  4G 3G21G17G23
  22234676.004     8309374.377 5   6474824.38021         9.250           0.344
  21039749.488   -14217357.870 6 -10880672.06121        19.500           1.438
  20196318.918    -4277342.160 7  -3332990.04923        22.750           2.625
  19206878.981   -26820729.787 7 -20899224.58322        26.500           2.438
 91  7 26  3 24 29.9960000  0  4G 3G21G17G23
  22244446.207     8360708.613 5   6514825.04521         9.250           0.313
  21031271.910   -14261903.091 6 -10915382.58221        19.000           1.281
  20200315.168    -4256341.283 7  -3316625.73923        22.500           2.500
  19206406.270   -26823219.950 7 -20901164.96822        27.250           2.469
 91  7 26  3 24 44.9960000  0  4G 3G21G17G23
  22254227.848     8412125.890 5   6554890.41121         9.250           0.344
  21022809.965   -14306366.852 6 -10950029.62422        18.750           1.500
  20204327.457    -4235261.894 7  -3300200.24522        22.750           2.438
  19205951.957   -26825600.480 7 -20903019.92022        27.000           2.469
 91  7 26  3 24 59.9960000  0  4G 3G21G17G23
  22264032.324     8463630.167 5   6595023.56421         9.000           0.219
  21014365.598   -14350744.855 6 -10984609.85121        19.500           1.406
  20208354.285    -4214100.095 7  -3283710.53723        23.000           2.594
  19205520.785   -26827867.300 7 -20904786.27022        26.500           2.438
 91  7 26  3 25 14.9960000  0  4G 3G21G17G23
  22273850.754     8515213.542 5   6635218.32121         8.750           0.406
  21005935.231   -14395044.918 6 -11019129.33521        19.000           1.281
  20212397.082    -4192863.311 7  -3267162.39523        23.500           2.563
  19205109.543   -26830028.248 7 -20906470.12422        26.750           2.406
 91  7 26  3 25 29.9960000  0  4G 3G21G17G23
  22283682.457     8566880.551 5   6675478.27721         9.000           0.250
  20997522.934   -14439261.789 6 -11053583.99521        19.000           1.250
  20216451.504    -4171546.457 7  -3250551.86522        22.750           2.438
  19204719.785   -26832078.275 7 -20908067.54522        26.750           2.406
 91  7 26  3 25 44.9960000  0  4G 3G21G17G23
  22293531.754     8618626.951 5   6715800.10521         9.500           0.281
  20989124.191   -14483399.662 6 -11087977.10021        19.000           1.219
  20220522.301    -4150153.887 7  -3233882.33323        22.000           2.500
  19204350.574   -26834021.795 7 -20909581.97722        26.750           2.313
 91  7 26  3 25 59.9960000  0  4G 3G21G17G23
  22303385.004     8670447.999 5   6756180.08421         9.000           0.250
  20980740.215   -14527462.596 6 -11122311.81221        19.250           1.344
  20224608.074    -4128689.799 7  -3217157.07323        22.250           2.500
  19203999.512   -26835863.194 7 -20911016.82322        26.250           2.219
 91  7 26  3 26 14.9960000  0  4G 3G21G17G23
  22313268.035     8722348.922 5   6796622.30821         9.500           0.219
  20972369.754   -14571445.261 6 -11156583.97521        19.250           1.250
  20228706.918    -4107148.809 7  -3200371.90322        22.000           2.438
  19203670.059   -26837597.286 7 -20912368.06422        26.250           2.344
 91  7 26  3 26 29.9960000  0  4G 3G21G17G23
  22323156.441     8774324.207 5   6837122.49121        10.000           0.281
  20964012.457   -14615352.665 6 -11190797.49321        19.000           1.281
  20232819.496    -4085536.323 7  -3183531.00623        21.750           2.531
  19203359.363   -26839229.450 7 -20913639.88222        27.000           2.281
 91  7 26  3 26 44.9960000  0  4G 3G21G17G23
  22333064.918     8826376.361 5   6877682.56421        10.500           0.125
  20955671.332   -14659181.814 6 -11224950.03621        19.000           1.281
  20236947.176    -4063849.464 7  -3166632.16022        22.000           2.469
  19203068.332   -26840756.983 7 -20914830.16022        27.000           2.344
 91  7 26  3 26 59.9960000  0  4G 3G21G17G23
  22342980.402     8878509.733 5   6918305.88421        10.500           0.188
  20947349.418   -14702927.933 6 -11259037.88822        19.500           1.625
  20241088.129    -4042083.588 7  -3149671.76322        21.750           2.438
  19202799.215   -26842175.198 7 -20915935.26122        26.250           2.344
 91  7 26  3 27 14.9960000  0  4G 3G21G17G23
  22352920.059     8930718.986 5   6958988.36521        11.250           0.188
  20939036.223   -14746596.120 6 -11293065.00121        18.750           1.313
  20245243.035    -4020243.622 7  -3132653.60623        21.000           2.500
  19202548.481   -26843489.249 7 -20916959.19522        26.250           2.469
 91  7 26  3 27 29.9960000  0  4G 3G21G17G23
  22362871.074     8983003.524 5   6999729.53521        10.500           0.219
  20930742.629   -14790186.603 6 -11327031.55821        19.250           1.313
  20249415.027    -3998330.054 7  -3115578.09822        21.000           2.313
  19202318.660   -26844699.724 7 -20917902.42322        26.250           2.344
 91  7 26  3 27 44.9960000  0  4G 3G21G17G23
  22372831.496     9035365.504 5   7040531.00421        10.250           0.344
  20922464.387   -14833696.771 6 -11360935.55121        19.250           1.188
  20253599.348    -3976340.251 7  -3098443.19922        21.000           2.281
  19202108.199   -26845804.266 7 -20918763.09822        26.500           2.406
 91  7 26  3 27 59.9960000  0  4G 3G21G17G23
  22382808.316     9087804.078 5   7081392.17721        10.000           0.250
  20914198.754   -14877127.000 6 -11394777.25021        18.750           1.313
  20257795.027    -3954274.808 7  -3081249.36122        21.000           2.375
  19201918.754   -26846803.350 7 -20919541.60522        26.750           2.344
 91  7 26  3 28 14.9960000  0  4G 3G21G17G23
  22392802.395     9140316.426 5   7122310.82621         9.750           0.188
  20905949.395   -14920479.861 6 -11428558.66421        19.000           1.313
  20262009.145    -3932136.611 7  -3063998.83322        21.500           2.438
  19201746.801   -26847699.808 7 -20920240.14822        26.250           2.375
 91  7 26  3 28 29.9960000  0  4G 3G21G17G23
  22402811.801     9192904.288 5   7163288.32121         9.000           0.281
  20897714.676   -14963753.111 6 -11462278.03921        19.500           1.375
  20266237.684    -3909923.331 7  -3046689.79122        21.000           2.469
  19201596.981   -26848491.940 7 -20920857.39322        25.750           2.375
 91  7 26  3 28 44.9960000  0  4G 3G21G17G23
  22412827.238     9245570.507 5   7204326.85921         8.750           0.313
  20889495.129   -15006943.616 6 -11495932.93821        19.000           1.375
  20270479.371    -3887631.851 7  -3029319.82022        21.500           2.406
  19201465.215   -26849176.633 7 -20921390.91522        26.250           2.375
 91  7 26  3 28 59.9960000  0  4G 3G21G17G23
  22422869.270     9298310.718 5   7245423.07521         9.000           0.250
  20881287.918   -15050055.275 6 -11529526.40621        18.500           1.406
  20274734.785    -3865266.469 7  -3011892.25122        21.000           2.375
  19201352.418   -26849757.901 7 -20921843.85022        26.000           2.406
 91  7 26  3 29 14.9960000  0  4G 3G21G17G23
  22432918.473     9351124.811 5   7286576.83421         8.250           0.188
  20873100.434   -15093087.936 6 -11563058.31022        18.750           1.500
  20279006.340    -3842826.991 7  -2994406.94322        21.000           2.344
  19201265.012   -26850235.833 7 -20922216.26422        26.250           2.313
 91  7 26  3 29 29.9960000  0  4G 3G21G17G23
  22442982.043     9404012.048 5   7327787.61621         8.000           0.281
  20864928.668   -15136041.965 6 -11596528.94321        19.750           1.438
  20283288.637    -3820313.730 7  -2976864.15423        20.250           2.500
  19201193.066   -26850611.024 7 -20922508.62022        26.000           2.438
 91  7 26  3 29 44.9960000  0  5G 3G21G17G11G23
  22453058.441     9456973.807 5   7369056.46421         8.000           0.219
  20856770.473   -15178915.527 6 -11629936.87621        19.500           1.344
  20287587.231    -3797725.030 7  -2959262.57723        20.500           2.656
  23491501.199          -0.21715                         8.750
  19201140.949   -26850881.870 7 -20922719.67022        26.500           2.438
 91  7 26  3 29 59.9960000  0  5G 3G21G17G11G23
  22463153.176     9510010.622 5   7410383.78221         8.000           0.250
  20848624.301   -15221707.666 6 -11663281.34821        19.500           1.438
  20291901.910    -3775060.133 7  -2941601.63522        20.500           2.469
  23479847.332      -61249.178 5                         8.500
  19201110.356   -26851047.521 7                        26.500
 91  7 26  3 30 14.9960000  0  5G 3G21G17G11G23
  22473262.926     9563122.685 5   7451769.74221         8.000           0.313
  20840499.176   -15264417.900 7 -11696562.02121        20.250           1.406
  20296227.496    -3752318.677 7  -2923881.02722        20.250           2.469
  23468193.418     -122473.642 5                         7.750
  19201095.785   -26851107.686 7                        26.500
 91  7 26  3 30 29.9960000  0  5G 3G21G17G11G23
  22483381.840     9616309.704 5   7493214.08721         7.750           0.219
  20832386.652   -15307046.034 7 -11729778.71021        20.000           1.375
  20300569.941    -3729500.432 7  -2906100.58523        20.750           2.500
  23456549.809     -183673.314 5                         7.500
  19201108.262   -26851062.508 7                        27.000
 91  7 26  3 30 44.9960000  0  5G 3G21G17G11G23
  22493514.074     9669561.528 5   7534708.98021         7.750           0.344
  20824288.535   -15349601.839 7 -11762939.04721        20.000           1.406
  20304924.731    -3706615.370 7  -2888268.08622        20.500           2.469
  23444904.746     -244857.684 4        -0.15531         7.250           0.250
  19201132.387   -26850921.934 7                        27.000
 91  7 26  3 30 59.9960000  0  5G 3G21G17G11G23
  22503661.551     9722888.238 5   7576262.19121         7.750           0.281
  20816204.941   -15392074.999 6 -11796034.97422        19.500           1.500
  20309291.488    -3683653.316 6  -2870375.58922        19.750           2.438
  23433264.941     -306016.222 5    -47656.13721         7.750           0.281
  19201182.387   -26850675.788 7                        27.500
 91  7 26  3 31 14.9960000  0  5G 3G21G17G11G23
  22513827.145     9776284.991 5   7617870.01321         8.500           0.250
  20808140.246   -15434469.771 7 -11829069.82822        20.250           1.688
  20313680.863    -3660618.806 7  -2852426.62623        21.500           2.594
  23421636.277     -367152.899 5    -95295.07521         7.500           0.219
  19201245.324   -26850328.709 7 -20922288.62422        26.250           2.406
 91  7 26  3 31 29.9960000  0  5G 3G21G17G11G23
  22524006.777     9829756.170 5   7659535.77621         8.750           0.406
  20800086.356   -15476781.518 6 -11862039.97922        19.750           1.594
  20318076.051    -3637507.151 7  -2834417.55122        20.750           2.438
  23410002.231     -428262.799 5   -142913.14821         8.000           0.406
  19201333.059   -26849876.353 7 -20921936.13722        26.750           2.438
 91  7 26  3 31 44.9960000  0  5G 3G21G17G11G23
  22534186.715     9883300.288 5   7701258.41721         8.750           0.344
  20792050.231   -15519011.176 6 -11894946.17222        19.250           1.500
  20322488.574    -3614319.162 7  -2816348.99522        20.750           2.406
  23398381.926     -489346.732 5   -190510.95321         8.750           0.469
  19201439.902   -26849319.873 7 -20921502.51623        27.250           2.531
 91  7 26  3 31 59.9960000  0  5G 3G21G17G11G23
  22544394.426     9936912.544 5   7743034.14021         8.500           0.219
  20784030.762   -15561163.156 7 -11927791.83722        20.250           1.688
  20326915.324    -3591059.719 7  -2798224.76722        21.500           2.344
  23386760.332     -550408.965 5   -238091.85021         8.750           0.469
  19201562.902   -26848663.849 7 -20920991.32923        26.250           2.500
 91  7 26  3 32 14.9960000  0  5G 3G21G17G11G23
  22554607.535     9990593.535 5   7784863.45221         8.000           0.344
  20776024.426   -15603236.738 7 -11960576.41522        20.500           1.688
  20331352.809    -3567728.178 7  -2780044.35922        20.750           2.406
  23375146.527     -611448.417 5   -285654.99921         9.250           0.500
  19201706.848   -26847907.716 7 -20920402.12922        26.250           2.469
 91  7 26  3 32 29.9960000  0  5G 3G21G17G11G23
  22564837.066    10044339.645 5   7826743.45121         8.500           0.375
  20768031.902   -15645234.995 6 -11993302.28922        19.750           1.625
  20335807.324    -3544327.518 7  -2761810.08022        21.500           2.469
  23363533.426     -672467.856 5   -333202.55721         9.250           0.500
  19201868.004   -26847054.727 7 -20919737.46322        26.250           2.469
 91  7 26  3 32 44.9960000  0  5G 3G21G17G11G23
  22575077.606    10098160.191 5   7868681.48221         8.750           0.281
  20760053.934   -15687148.318 6 -12025961.99522        19.750           1.688
  20340276.356    -3520848.179 7  -2743514.50123        22.000           2.531
  23351929.223     -733457.474 5   -380726.89821         9.250           0.531
  19202049.566   -26846095.535 7 -20918990.04422        26.250           2.469
 91  7 26  3 32 59.9960000  0  5G 3G21G17G11G23
  22585326.270    10152048.589 5   7910672.37021         8.250           0.250
  20752095.699   -15728982.877 7 -12058560.31722        20.500           1.688
  20344759.262    -3497296.595 7  -2725162.62623        22.000           2.531
  23340326.074     -794423.208 5   -428232.62121         9.250           0.531
  19202253.957   -26845036.631 7 -20918164.91723        27.000           2.563
 91  7 26  3 33 14.9960000  0  5G 3G21G17G11G23
  22595594.652    10206003.452 5   7952715.05621         8.500           0.188
  20744148.340   -15770739.688 7 -12091098.05122        20.500           1.688
  20349251.785    -3473673.766 7  -2706755.23323        21.750           2.594
  23328728.504     -855365.730 5   -475720.26021         9.000           0.438
  19202473.871   -26843878.973 7 -20917262.85122        27.250           2.438
 91  7 26  3 33 29.9960000  0  5G 3G21G17G11G23
  22605872.434    10260025.288 5   7994809.91321         8.250           0.344
  20736219.660   -15812417.795 7 -12123574.47222        20.750           1.719
  20353763.262    -3449978.952 7  -2688291.75223        21.750           2.594
  23317141.512     -916283.849 5   -523188.88621         9.000           0.406
  19202711.887   -26842621.926 7 -20916283.33223        27.000           2.500
 91  7 26  3 33 44.9960000  0  5G 3G21G17G11G23
  22616172.191    10314117.298 5   8036959.49921         8.500           0.250
  20728302.824   -15854013.735 7 -12155986.85922        21.000           1.781
  20358285.731    -3426208.589 7  -2669769.40222        21.500           2.469
  23305552.207     -977173.937 5   -570635.65221         8.500           0.469
  19202972.402   -26841262.045 7 -20915223.68222        27.500           2.438
 91  7 26  3 33 59.9960000  0  5G 3G21G17G11G23
  22626486.106    10368278.390 5   8079162.88521         8.500           0.188
  20720402.996   -15895528.022 7 -12188335.61922        21.250           1.750
  20362821.887    -3402363.418 7  -2651188.77322        21.000           2.375
  23293968.824    -1038036.164 5   -618060.72321         8.500           0.500
  19203249.348   -26839800.282 7 -20914084.64622        27.750           2.438
 91  7 26  3 34 14.9960000  0  5G 3G21G17G11G23
  22636795.160    10422506.411 5   8121418.40621         7.750           0.156
  20712518.895   -15936962.539 7 -12220622.22722        22.000           1.781
  20367373.020    -3378445.608 7  -2632551.52723        21.000           2.500
  23282392.176    -1098872.274 5   -665465.45421         8.750           0.500
  19203547.113   -26838238.859 7 -20912867.94723        27.750           2.563
 91  7 26  3 34 29.9960000  0  5G 3G21G17G11G23
  22647132.613    10476800.963 4   8163725.78921         7.250           0.125
  20704646.496   -15978317.275 7 -12252846.66122        21.500           1.969
  20371941.965    -3354455.046 7  -2613857.59322        21.750           2.281
  23270821.613    -1159681.962 5   -712849.55921         8.500           0.313
  19203862.051   -26836577.970 7 -20911573.74123        27.250           2.531
 91  7 26  3 34 44.9960000  0  5G 3G21G17G11G23
  22657471.199    10531163.518 4   8206086.16721         7.000           0.156
  20696794.246   -16019590.322 7 -12285007.45322        22.250           2.000
  20376518.973    -3330390.224 7  -2595105.80122        21.250           2.344
  23259252.496    -1220463.175 5   -760211.50021         8.250           0.375
  19204198.981   -26834815.941 8 -20910200.74123        28.000           2.625
 91  7 26  3 34 59.9960000  0  5G 3G21G17G11G23
  22667828.004    10585584.929 4   8248492.37921         6.250           0.219
  20688953.340   -16060790.459 7 -12317111.42522        22.000           2.000
  20381109.520    -3306259.778 7  -2576302.86923        20.750           2.500
  23247687.824    -1281224.405 5   -807557.86221         7.750           0.313
  19204550.262   -26832961.732 8 -20908755.90023        28.000           2.750
 91  7 26  3 35 14.9960000  0  5G 3G21G17G11G23
  22678193.332    10640071.522 3   8290949.40921         6.000           0.156
  20681128.191   -16101911.027 7 -12349153.39222        22.000           1.875
  20385715.520    -3282057.016 7  -2557443.59222        20.500           2.438
  23236137.371    -1341958.643 5   -854883.17621         8.750           0.281
  19204922.527   -26831008.715 8 -20907234.07023        28.000           2.563
 91  7 26  3 35 29.9960000  0  5G 3G21G17G11G23
  22688577.387    10694624.781 3   8333458.35321         5.500           0.219
  20673319.277   -16142950.187 7 -12381131.92722        21.500           1.813
  20390338.824    -3257780.304 7  -2538526.68523        21.750           2.500
  23224584.395    -1402663.701 5   -902185.75821         9.500           0.188
  19205312.559   -26828955.408 7 -20905634.08723        27.500           2.594
 91  7 26  3 35 44.9960000  0  5G 3G21G17G11G23
  22698967.051    10749239.927 3   8376015.56721         5.500           0.219
  20665525.012   -16183912.180 7 -12413050.33522        21.750           1.906
  20394969.043    -3233433.914 7  -2519555.48722        21.000           2.438
  23213035.590    -1463343.633 5   -949468.80121         9.000           0.313
  19205722.074   -26826806.139 7 -20903959.33023        27.750           2.719
 91  7 26  3 35 59.9960000  0  5G 3G21G17G11G23
  22709375.379    10803915.889 3   8418620.14521         5.750           0.281
  20657743.098   -16224797.892 7 -12444909.29922        21.500           2.000
  20399615.535    -3209018.945 7  -2500530.84622        21.250           2.344
  23201496.106    -1523999.135 5   -996732.74621        10.750           0.188
  19206151.066   -26824562.227 7 -20902210.82523        27.250           2.625
 91  7 26  3 36 14.9960000  0  5G 3G21G17G11G23
  22719794.082    10858658.591 3   8461276.74921         6.000           0.281
  20649979.621   -16265600.868 7 -12476703.80322        21.750           1.938
  20404277.152    -3184529.079 7  -2481447.84622        20.750           2.313
  23189957.004    -1584623.594 5  -1043972.56721        10.000           0.281
  19206596.316   -26822217.372 8 -20900383.66723        28.000           2.688
 91  7 26  3 36 29.9960000  0  5G 3G21G17G11G23
  22730225.746    10913465.173 4   8503983.08921         6.250           0.344
  20642229.059   -16306323.781 7 -12508435.90822        22.250           1.875
  20408950.113    -3159967.112 7  -2462308.65322        20.500           2.406
  23178430.207    -1645219.332 5  -1091189.97721        11.500           0.219
  19207061.191   -26819774.340 7 -20898480.00123        27.250           2.688
 91  7 26  3 36 44.9960000  0  5G 3G21G17G11G23
  22740665.887    10968335.689 4   8546739.29321         6.250           0.188
  20634496.293   -16346965.969 7 -12540105.12422        22.500           1.969
  20413637.145    -3135332.269 7  -2443112.69222        20.500           2.281
  23166900.973    -1705785.454 5  -1138384.31521        11.000           0.375
  19207544.191   -26817232.620 7 -20896499.44123        27.250           2.719
 91  7 26  3 36 59.9960000  0  5G 3G21G17G11G23
  22751123.262    11023271.449 4   8589546.32621         7.000           0.281
  20626779.106   -16387525.799 7 -12571710.15822        23.000           1.906
  20418341.785    -3110623.152 7  -2423858.84322        21.250           2.281
  23155381.496    -1766319.964 5  -1185554.02521        10.250           0.375
  19208046.223   -26814590.834 7 -20894440.90423        26.750           2.594
 91  7 26  3 37 14.9960000  0  5G 3G21G17G11G23
  22761583.410    11078268.832 4   8632401.36021         7.000           0.313
  20619074.731   -16428006.701 7 -12603253.68822        23.000           2.000
  20423054.371    -3085843.356 7  -2404549.93122        21.000           2.344
  23143867.590    -1826826.216 5  -1232701.69621        10.500           0.344
  19208567.879   -26811852.749 7 -20892307.33223        27.000           2.750
 91  7 26  3 37 29.9960000  0  5G 3G21G17G11G23
  22772058.660    11133326.723 5   8675303.57621         8.000           0.219
  20611384.418   -16468409.125 7 -12634736.07022        22.250           1.969
  20427783.262    -3060993.428 7  -2385186.34822        20.750           2.250
  23132354.699    -1887304.347 5  -1279827.48021        10.000           0.375
  19209107.941   -26809019.141 7 -20890099.32423        27.500           2.625
 91  7 26  3 37 44.9960000  0  5G 3G21G17G11G23
  22782552.676    11188449.399 5   8718256.26121         8.000           0.250
  20603713.598   -16508728.544 7 -12666153.76422        22.250           1.875
  20432526.293    -3036068.951 7  -2365764.68722        20.750           2.313
  23120855.824    -1947749.385 5  -1326927.47121        10.000           0.531
  19209664.957   -26806085.399 7 -20887813.28723        27.250           2.656
 91  7 26  3 37 59.9960000  0  5G 3G21G17G11G23
  22793054.613    11243634.915 5   8761257.86221         8.500           0.281
  20596056.957   -16548966.548 7 -12697508.02422        22.750           1.938
  20437282.848    -3011071.495 7  -2346286.16322        20.250           2.188
  23109362.449    -2008162.697 5  -1374002.71321        10.500           0.438
  19210242.762   -26803053.549 7 -20885450.80423        27.500           2.594
 91  7 26  3 38 14.9960000  0  5G 3G21G17G11G23
  22803566.613    11298880.304 5   8804306.19721         8.500           0.313
  20588413.121   -16589125.659 7 -12728800.81522        21.500           2.063
  20442053.684    -2986003.770 7  -2326752.88322        20.500           2.219
  23097873.051    -2068546.585 5  -1421055.04221        10.500           0.563
  19210838.496   -26799926.272 7 -20883013.96523        27.750           2.625
 91  7 26  3 38 29.9960000  0  5G 3G21G17G11G23
  22814091.481    11354188.863 5   8847403.71621         8.250           0.281
  20580789.152   -16629202.057 7 -12760029.15422        21.250           2.031
  20446839.754    -2960861.935 7  -2307161.85122        21.750           2.281
  23086384.731    -2128896.920 5  -1468081.21021        10.250           0.563
  19211451.215   -26796700.038 7 -20880500.01423        27.750           2.625
 91  7 26  3 38 44.9960000  0  5G 3G21G17G11G23
  22824625.254    11409557.801 5   8890548.27521         8.250           0.281
  20573178.106   -16669198.388 7 -12791195.09522        21.750           2.125
  20451636.348    -2935648.868 7  -2287515.31322        21.750           2.188
  23074905.762    -2189216.236 5  -1515083.20221         9.250           0.500
  19212082.902   -26793377.626 7 -20877911.11923        27.250           2.625
 91  7 26  3 38 59.9960000  0  5G 3G21G17G11G23
  22835175.981    11464986.793 5   8933739.63721         8.250           0.281
  20565581.645   -16709114.362 7 -12822298.41922        21.750           2.125
  20456448.848    -2910364.345 7  -2267813.09322        21.500           2.219
  23063435.121    -2249503.958 5  -1562060.58921        10.000           0.469
  19212733.621   -26789959.100 7 -20875247.33323        27.500           2.625
 91  7 26  3 39 14.9960000  0  5G 3G21G17G11G23
  22845731.832    11520469.116 5   8976972.57421         8.250           0.281
  20557998.520   -16748956.402 7 -12853344.13822        22.500           2.063
  20461271.981    -2885015.076 7  -2248060.42822        20.250           2.313
  23051968.356    -2309766.213 5  -1609018.14321        10.250           0.438
  19213401.660   -26786451.118 7 -20872513.83623        27.750           2.750
 91  7 26  3 39 29.9960000  0  5G 3G21G17G11G23
  22856304.098    11576013.777 5   9020254.06721         7.500           0.250
  20550435.418   -16788715.184 7 -12884324.98522        22.500           2.000
  20466108.660    -2859591.660 7  -2228249.98622        20.250           2.188
  23040505.637    -2369993.426 5  -1655948.38721         9.500           0.406
  19214089.340   -26782844.485 7 -20869703.46923        27.500           2.781
 91  7 26  3 39 44.9960000  0  5G 3G21G17G11G23
  22866884.496    11631616.450 4   9063580.76121         7.250           0.313
  20542883.184   -16828394.597 7 -12915243.97222        22.500           2.156
  20470961.496    -2834098.021 7  -2208384.82122        21.000           2.156
  23029050.238    -2430189.223 5  -1702854.14621         9.500           0.438
  19214792.410   -26779143.262 7 -20866819.40523        26.750           2.813
 91  7 26  3 39 59.9950000  0  5G 3G21G17G11G23
  22877475.780    11687275.072 4   9106951.06921         6.500           0.250
  20535348.968   -16867990.103 7 -12946097.57822        21.250           2.000
  20475825.358    -2808534.063 7  -2188464.86422        21.500           2.219
  23017601.140    -2490347.213 5  -1749730.43621         9.250           0.438
  19215514.679   -26775345.994 7 -20863860.49623        26.750           2.813
 91  7 26  3 40 14.9950000  0  5G 3G21G17G11G23
  22888075.358    11742996.359 3   9150370.19021         5.750           0.125
  20527829.194   -16907507.046 7 -12976889.97422        21.500           2.156
  20480704.788    -2782896.821 7  -2168487.79822        22.750           2.156
  23006162.491    -2550475.343 5  -1796583.47421        10.000           0.500
  19216255.702   -26771452.520 7 -20860826.61623        27.000           2.813
 91  7 26  3 40 29.9950000  0  5G 3G21G17G11G23
  22898684.585    11798777.542 3   9193835.98021         5.250           0.281
  20520325.304   -16946941.787 7 -13007618.32122        22.250           2.156
  20485594.913    -2757186.909 7  -2148454.11422        22.000           2.063
  22994729.343    -2610568.376 5  -1843409.14221        10.000           0.625
  19217015.788   -26767462.223 7 -20857717.30023        26.500           2.781
 91  7 26  3 40 44.9950000  0  4G21G17G11G23
  20512834.866   -16986297.431 7 -13038285.02122        22.250           2.063
  20490501.187    -2731407.199 7  -2128366.04222        21.250           2.094
  22983298.858    -2670629.035 5  -1890209.59621        10.000           0.531
  19217791.640   -26763378.304 7 -20854535.02323        26.000           2.781
 91  7 26  3 40 59.9950000  0  4G21G17G11G23
  20505361.694   -17025573.239 7 -13068889.51922        22.000           1.969
  20495419.671    -2705557.478 7  -2108223.41222        20.750           2.063
  22971868.069    -2730656.333 5  -1936984.05821         9.250           0.531
  19218587.335   -26759200.339 7 -20851279.46923        26.500           2.781
 91  7 26  3 41 14.9950000  0  4G21G17G11G23
  20497901.827   -17064771.023 7 -13099433.20822        21.750           2.094
  20500352.905    -2679639.447 7  -2088027.55322        20.750           2.125
  22960452.015    -2790651.778 5  -1983733.69021         9.250           0.469
  19219399.179   -26754930.259 7 -20847952.12923        26.750           2.656
 91  7 26  3 41 29.9950000  0  4G21G17G11G23
  20490455.851   -17103890.617 7 -13129915.96422        21.750           2.125
  20505296.890    -2653653.067 7  -2067778.44222        21.000           2.156
  22949041.796    -2850614.960 5  -2030458.18021        10.000           0.438
  19220229.905   -26750568.336 7 -20844553.23523        26.750           2.625
 91  7 26  3 41 44.9950000  0  4G21G17G11G23
  20483029.335   -17142932.435 7 -13160338.13822        22.500           2.094
  20510256.241    -2627598.765 7  -2047476.40822        20.250           2.031
  22937640.452    -2910546.030 5  -2077157.67321        10.500           0.500
  19221077.835   -26746115.182 7 -20841083.24823        26.500           2.688
 91  7 26  3 41 59.9950000  0  4G21G17G11G23
  20475613.210   -17181893.993 7 -13190697.76322        22.000           1.969
  20515228.538    -2601474.249 7  -2027119.65122        20.500           2.031
  22926241.608    -2970442.105 5  -2123829.88121        10.000           0.656
  19221941.343   -26741568.354 7 -20837540.26123        26.250           2.656
 91  7 26  3 42 14.9950000  0  4G21G17G11G23
  20468216.538   -17220775.316 7 -13220994.87222        22.250           2.063
  20520210.671    -2575279.688 6  -2006708.32422        19.750           2.063
  22914850.898    -3030302.991 5  -2170474.66521        10.000           0.656
  19222825.905   -26736928.103 7 -20833924.48523        26.250           2.594
 91  7 26  3 42 29.9950000  0  4G21G17G11G23
  20460831.265   -17259577.859 7 -13251230.58622        21.750           1.969
  20525210.640    -2549016.464 7  -1986243.48322        20.250           2.000
  22903467.858    -3090129.825 5  -2217092.90921        10.000           0.563
  19223725.437   -26732196.112 7 -20830237.21623        25.750           2.563
 91  7 26  3 42 44.9950000  0  4G21G17G11G23
  20453461.507   -17298296.293 7 -13281400.76922        21.250           2.000
  20530220.671    -2522679.652 6  -1965721.31622        19.500           2.125
  22892085.312    -3149917.098 5  -2263680.35121        10.000           0.656
  19224645.694   -26727367.529 7 -20826474.69123        26.500           2.563
 91  7 26  3 42 59.9950000  0  4G21G17G11G23
  20446112.601   -17336935.030 7 -13311508.84422        21.750           1.906
  20535247.515    -2496273.602 7  -1945145.18922        20.000           2.031
  22880720.577    -3209668.890 5  -2310240.14821        11.000           0.531
  19225580.827   -26722446.703 7 -20822640.27423        26.000           2.656
 91  7 26  3 43 14.9950000  0  4G21G17G11G23
  20438772.390   -17375493.880 7 -13341554.66222        22.000           2.031
  20540281.827    -2469798.225 6  -1924515.04222        18.500           2.063
  22869357.093    -3269384.675 5  -2356771.86421        10.500           0.563
  19226535.718   -26717433.468 7 -20818733.85723        26.750           2.594
 91  7 26  3 43 29.9950000  0  4G21G17G11G23
  20431452.796   -17413972.456 7 -13371537.93722        22.500           1.969
  20545334.929    -2443252.983 6  -1903830.44622        19.000           1.969
  22857998.601    -3329063.733 5  -2403274.97421        10.000           0.656
  19227506.523   -26712327.885 7 -20814755.47923        25.750           2.625
 91  7 26  3 43 44.9950000  0  4G21G17G11G23
  20424142.358   -17452373.458 7 -13401460.76022        22.250           2.063
  20550400.390    -2416641.071 6  -1883093.90722        19.500           1.938
  22846646.874    -3388708.659 5  -2449751.47221        10.500           0.656
  19228495.655   -26707132.935 7 -20810707.47123        25.750           2.781
 91  7 26  3 43 59.9950000  0  4G21G17G11G23
  20416852.648   -17490692.239 7 -13431319.51422        22.500           2.000
  20555474.835    -2389957.957 6  -1862301.89222        19.000           1.969
  22835307.273    -3448314.453 5  -2496197.50321        11.500           0.625
  19229501.148   -26701844.067 7 -20806586.28123        25.750           2.563
 91  7 26  3 44 14.9950000  0  4G21G17G11G23
  20409574.991   -17528929.651 7 -13461114.86722        21.500           2.063
  20560565.405    -2363204.338 6  -1841454.93822        18.750           1.969
  22823970.921    -3507881.618 5  -2542613.41621        11.750           0.563
  19230526.163   -26696462.428 7 -20802392.79623        26.250           2.625
 91  7 26  3 44 29.9950000  0  4G21G17G11G23
  20402314.569   -17567085.885 7 -13490846.96222        22.000           2.031
  20565673.015    -2336380.598 6  -1820553.32922        19.250           1.938
  22812646.319    -3567410.078 5  -2588999.19121        11.750           0.656
  19231569.640   -26690988.298 7 -20798127.24223        26.250           2.625
 91  7 26  3 44 44.9950000  0  4G21G17G11G23
  20395070.405   -17605163.305 7 -13520517.64622        21.500           2.063
  20570790.249    -2309489.223 6  -1799599.03022        19.250           1.875
  22801324.351    -3626902.025 6  -2635356.50921        12.000           0.688
  19232626.390   -26685424.448 7 -20793791.77823        25.750           2.688
 91  7 26  3 44 59.9950000  0  4G21G17G11G23
  20387835.366   -17643160.072 7 -13550125.48122        20.750           1.969
  20575920.921    -2282528.304 6  -1778590.52922        19.750           1.906
  22790007.976    -3686355.252 5  -2681683.65121        11.750           0.750
  19233703.124   -26679769.095 7 -20789385.00623        26.000           2.688
 91  7 26  3 45 14.9950000  0  4G21G17G11G23
  20380620.804   -17681077.571 7 -13579671.55922        21.250           2.031
  20581063.835    -2255499.334 6  -1757529.00022        19.750           1.906
  22778702.460    -3745770.912 5  -2727981.52921        11.000           0.750
  19234796.038   -26674024.104 7 -20784908.39823        26.000           2.688
 91  7 26  3 45 29.9950000  0  4G21G17G11G23
  20373423.319   -17718915.472 7 -13609155.60622        22.750           2.063
  20586220.452    -2228402.137 6  -1736414.31122        19.500           1.875
  22767403.944    -3805148.269 5  -2774249.54721        11.000           0.719
  19235904.241   -26668189.104 7 -20780361.64923        24.500           2.531
 91  7 26  3 45 44.9950000  0  4G21G17G11G23
  20366237.171   -17756672.241 7 -13638576.42722        22.250           2.000
  20591390.858    -2201235.375 7  -1715245.40522        21.000           2.031
  22756112.710    -3864485.585 5  -2820486.36921        10.500           0.750
  19237033.757   -26662262.733 7 -20775743.69622        24.750           2.438
 91  7 26  3 45 59.9950000  0  4G21G17G11G23
  20359067.929   -17794346.457 7 -13667932.93622        23.500           2.063
  20596571.773    -2173997.405 6  -1694021.02322        19.500           1.938
  22744828.343    -3923780.987 5  -2866690.54221        10.750           0.688
  19238179.796   -26656243.970 7 -20771053.76122        25.250           2.469
 91  7 26  3 46 14.9950000  0  4G21G17G11G23
  20351914.960   -17831938.719 7 -13697225.57322        23.250           2.000
  20601768.413    -2146689.160 6  -1672741.87522        19.500           1.938
  22733553.405    -3983034.809 5  -2912862.31521        11.250           0.563
  19239341.218   -26650133.522 7 -20766292.36823        25.500           2.500
 91  7 26  3 46 29.9950000  0  4G21G17G11G23
  20344776.835   -17869448.199 7 -13726453.70722        23.000           2.156
  20606980.476    -2119309.722 6  -1651407.25422        19.500           1.969
  22722287.358    -4042245.943 5  -2959000.82021        10.750           0.688
  19240523.319   -26643930.552 7 -20761458.89223        25.500           2.563
 91  7 26  3 46 44.9950000  0  4G21G17G11G23
  20337653.608   -17906880.203 7 -13755621.46322        22.500           2.031
  20612200.554    -2091864.753 6  -1630021.57422        19.000           2.000
  22711024.858    -4101419.404 5  -3005109.96421        10.750           0.625
  19241718.358   -26637640.776 7 -20756557.77323        25.500           2.531
 91  7 26  3 46 59.9950000  0  4G21G17G11G23
  20330543.937   -17944231.406 7 -13784726.26022        21.500           2.063
  20617437.890    -2064351.012 7  -1608582.30322        20.250           1.906
  22699770.366    -4160551.518 5  -3051186.90321        10.750           0.656
  19242933.608   -26631261.112 7 -20751586.59723        25.750           2.500
 91  7 26  3 47 14.9950000  0  4G21G17G11G23
  20323451.921   -17981504.267 7 -13813770.02322        22.250           1.906
  20622688.866    -2036771.111 7  -1587091.48722        20.500           1.938
  22688532.538    -4219644.439 5  -3097233.29821        11.500           0.781
  19244164.069   -26624794.319 7 -20746547.53622        25.500           2.469
 91  7 26  3 47 29.9950000  0  4G21G17G11G23
  20316377.007   -18018698.140 7 -13842752.23422        23.000           1.969
  20627948.132    -2009124.375 6  -1565548.58622        19.500           1.938
  22677292.210    -4278697.292 6  -3143248.48121        12.250           0.813
  19245411.124   -26618239.811 7 -20741440.12023        25.500           2.531
 91  7 26  3 47 44.9950000  0  4G21G17G11G23
  20309313.960   -18055809.341 7 -13871670.02422        22.750           2.000
  20633222.124    -1981406.848 7  -1543950.52422        20.000           1.875
  22666062.905    -4337705.953 5  -3189229.22521        11.750           0.844
  19246676.468   -26611594.099 7 -20736261.64423        25.750           2.500
 91  7 26  3 47 59.9950000  0  4G21G17G11G23
  20302267.702   -18092834.699 7 -13900520.91622        23.250           2.094
  20638511.093    -1953615.913 6  -1522295.26422        19.750           1.906
  22654840.585    -4396667.100 6  -3235172.92721        12.000           0.750
  19247958.398   -26604854.259 7 -20731009.82123        25.250           2.594
 91  7 26  3 48 14.9950000  0  4G21G17G11G23
  20295237.601   -18129777.737 7 -13929307.67322        23.000           2.094
  20643812.296    -1925755.095 6  -1500585.55122        19.250           1.969
  22643631.765    -4455583.906 6  -3281082.08821        12.500           0.781
  19249258.804   -26598023.829 7 -20725687.40722        25.750           2.438
 91  7 26  3 48 29.9950000  0  4G21G17G11G23
  20288221.765   -18166640.627 7 -13958031.97422        23.000           2.063
  20649126.835    -1897826.736 6  -1478823.20222        19.750           1.781
  22632424.773    -4514458.253 6  -3326958.18321        12.250           0.781
  19250572.804   -26591105.468 7 -20720296.47623        24.500           2.531
 91  7 26  3 48 44.9950000  0  4G21G17G11G23
  20281220.530   -18203426.777 7 -13986696.47422        22.250           2.031
  20654454.749    -1869834.156 7  -1457010.80722        20.250           1.781
  22621230.124    -4573293.249 6  -3372803.60521        12.250           0.813
  19251907.765   -26584102.650 7 -20714839.74823        25.250           2.594
 91  7 26  3 48 59.9950000  0  4G21G17G11G23
  20274237.335   -18240134.500 7 -14015299.87122        22.250           2.156
  20659795.062    -1841775.885 7  -1435147.23922        20.250           1.688
  22610039.804    -4632086.895 5  -3418616.79521        11.750           0.875
  19253256.530   -26577013.976 7 -20709316.11023        25.750           2.531
 91  7 26  3 49 14.9950000  0  4G21G17G11G23
  20267265.085   -18276761.854 7 -14043840.63522        22.000           2.125
  20665146.124    -1813649.946 7  -1413230.93722        20.750           1.844
  22598861.312    -4690836.829 6  -3464395.93021        12.250           0.781
  19254621.554   -26569837.632 7 -20703724.16222        25.000           2.375
 91  7 26  3 49 29.9950000  0  4G21G17G11G23
  20260311.429   -18313310.538 7 -14072320.10722        22.500           2.188
  20670511.124    -1785458.133 7  -1391263.29122        20.250           1.813
  22587689.999    -4749544.498 6  -3510142.13221        12.750           0.781
  19256002.757   -26562575.589 7 -20698065.42223        25.000           2.563
 91  7 26  3 49 44.9950000  0  4G21G17G11G23
  20253370.218   -18349779.663 7 -14100737.57622        22.250           2.188
  20675886.038    -1757199.870 6  -1369243.88222        19.500           1.875
  22576528.648    -4808208.689 6  -3555854.45621        13.500           0.844
  19257401.562   -26555227.207 7 -20692339.40923        25.250           2.594
 91  7 26  3 49 59.9950000  0  4G21G17G11G23
  20246448.382   -18386169.286 7 -14129093.09822        22.750           2.156
  20681278.530    -1728875.416 6  -1347172.87422        19.750           1.813
  22565374.694    -4866829.281 6  -3601532.81721        14.000           0.781
  19258816.968   -26547792.595 7 -20686546.20323        25.500           2.500
 91  7 26  3 50 14.9950000  0  4G21G17G11G23
  20239538.913   -18422476.866 7 -14157384.69522        23.000           2.094
  20686681.835    -1700482.044 7  -1325048.17922        20.000           1.906
  22554228.749    -4925403.401 6  -3647174.95521        13.750           0.938
  19260248.780   -26540269.495 7 -20680684.04023        26.000           2.563
 91  7 26  3 50 29.9950000  0  4G21G17G11G23
  20232645.280   -18458704.284 7 -14185613.83422        23.500           2.094
  20692095.921    -1672021.542 6  -1302871.16522        19.750           1.844
  22543085.124    -4983932.575 6  -3692782.06021        12.750           0.719
  19261697.999   -26532660.066 7 -20674754.62023        26.250           2.563
 91  7 26  3 50 44.9950000  0  4G21G17G11G23
  20225766.179   -18494852.895 7 -14213781.55822        23.750           2.188
  20697525.476    -1643495.298 6  -1280642.92422        19.500           1.844
  22531958.530    -5042417.693 6  -3738354.83121        13.500           0.781
  19263161.437   -26524965.607 7 -20668758.93423        26.000           2.563
 91  7 26  3 50 59.9950000  0  4G21G17G11G23
  20218902.780   -18530919.742 7 -14241885.56822        23.500           2.188
  20702965.140    -1614900.738 6  -1258361.46522        18.500           1.750
  22520839.968    -5100855.517 6  -3783890.78021        14.250           0.813
  19264642.023   -26517183.649 7 -20662695.06823        25.250           2.563
 91  7 26  3 51 14.9950000  0  4G21G17G11G23
  20212054.757   -18566901.953 7 -14269923.61722        23.000           2.156
  20708422.983    -1586235.059 6  -1236024.57822        19.000           1.813
  22509726.327    -5159242.965 6  -3829387.46521        13.500           0.813
  19266141.585   -26509311.404 7 -20656560.82123        25.750           2.531
 91  7 26  3 51 29.9950000  0  4G21G17G11G23
  20205222.913   -18602806.088 7 -14297900.83122        23.250           2.344
  20713888.905    -1557504.886 6  -1213637.43122        19.250           1.875
  22498623.827    -5217586.183 6  -3874849.67421        13.250           0.781
  19267654.804   -26501355.723 7 -20650361.57823        26.250           2.563
 91  7 26  3 51 44.9950000  0  4G21G17G11G23
  20198407.476   -18638624.737 7 -14325811.44322        23.500           2.125
  20719367.796    -1528702.894 6  -1191194.33222        18.250           1.625
  22487534.718    -5275877.537 6  -3920271.46821        14.250           0.813
  19269184.054   -26493309.517 7 -20644091.82022        25.250           2.406
 91  7 26  3 51 59.9950000  0  4G21G17G11G23
  20191606.468   -18674360.859 7 -14353657.74122        23.500           2.125
  20724863.710    -1499832.102 6  -1168697.61822        19.250           1.844
  22476453.116    -5334119.702 6  -3965654.94321        13.750           0.688
  19270733.601   -26485175.797 7 -20637753.86023        25.750           2.500
 91  7 26  3 52 14.9950000  0  4G21G17G11G23
  20184820.452   -18710016.500 7 -14381441.33322        23.000           2.125
  20730371.179    -1470894.677 6  -1146148.98822        19.250           1.813
  22465377.077    -5392314.270 6  -4011001.32621        13.500           0.781
  19272296.640   -26476956.610 7 -20631349.29822        25.250           2.469
 91  7 26  3 52 29.9950000  0  4G21G17G11G23
  20178050.780   -18745592.022 7 -14409162.48922        22.250           2.250
  20735888.874    -1441891.068 6  -1123548.78122        18.750           1.688
  22454310.460    -5450461.351 6  -4056310.70821        13.750           0.844
  19273877.155   -26468652.771 7 -20624878.77223        25.250           2.656
 91  7 26  3 52 44.9950000  0  4G21G17G11G23
  20171298.312   -18781086.017 7 -14436820.11922        22.500           2.313
  20741421.054    -1412820.061 6  -1100896.04722        18.750           1.688
  22443254.601    -5508559.163 6  -4101581.68121        14.250           0.906
  19275473.140   -26460262.801 7 -20618341.13023        25.000           2.531
 91  7 26  3 52 59.9950000  0  4G21G17G11G23
  20164555.429   -18816504.075 7 -14464418.56922        22.250           2.375
  20746963.069    -1383687.206 6  -1078195.13522        18.000           1.813
  22432206.257    -5566612.914 6  -4146818.33821        14.250           0.813
  19277085.437   -26451792.613 7 -20611740.97822        25.250           2.375
 91  7 26  3 53 14.9950000  0  4G21G17G11G23
  20157832.929   -18851842.501 7 -14491954.97522        23.000           2.344
  20752519.741    -1354488.916 6  -1055443.22722        19.000           1.844
  22421171.874    -5624618.640 6  -4192017.57321        14.000           0.719
  19278713.812   -26443238.709 7 -20605075.59722        24.750           2.469
 91  7 26  3 53 29.9950000  0  4G21G17G11G23
  20151124.069   -18887099.649 7 -14519428.05022        23.000           2.250
  20758090.921    -1325223.625 6  -1032639.11722        19.000           1.813
  22410142.476    -5682574.441 6  -4237177.90321        13.750           0.656
  19280356.944   -26434599.827 7 -20598343.99022        24.750           2.406
 91  7 26  3 53 44.9950000  0  4G21G17G11G23
  20144429.390   -18922281.144 7 -14546842.18122        23.500           2.250
  20763671.015    -1295896.992 6  -1009787.20522        18.500           1.750
  22399120.491    -5740485.650 6  -4282303.48121        14.250           0.688
  19282016.515   -26425881.792 7 -20591550.71323        25.000           2.500
 91  7 26  3 53 59.9950000  0  4G21G17G11G23
  20137748.249   -18957381.510 7 -14574193.09422        23.750           2.438
  20769262.358    -1266503.857 6   -986883.46922        17.750           1.750
  22388107.718    -5798346.354 6  -4327389.71821        13.500           0.813
  19283690.499   -26417079.203 7 -20584691.54823        25.000           2.500
 91  7 26  3 54 14.9950000  0  4G21G17G11G23
  20131087.671   -18992398.181 7 -14601478.78822        23.500           2.406
  20774871.015    -1237041.450 6   -963925.74822        18.250           1.750
  22377110.108    -5856153.675 6  -4372434.33321        13.500           0.813
  19285381.944   -26408189.699 7 -20577764.65323        24.250           2.594
 91  7 26  3 54 29.9950000  0  4G21G17G11G23
  20124439.593   -19027327.287 7 -14628696.25422        23.750           2.375
  20780489.991    -1207506.370 6   -940911.40822        18.250           1.656
  22366121.046    -5913903.518 6  -4417434.16421        14.500           0.844
  19287090.405   -26399209.736 7 -20570767.28523        23.750           2.625
 91  7 26  3 54 44.9950000  0  4G21G17G11G23
  20117804.187   -19062186.175 7 -14655858.99022        22.250           2.375
  20786122.319    -1177915.851 6   -917853.87322        18.000           1.625
  22355136.296    -5971612.809 6  -4462402.41021        14.250           0.844
  19288813.468   -26390156.878 7 -20563713.10923        25.000           2.594
 91  7 26  3 54 59.9950000  0  4G21G17G11G23
  20111188.671   -19096955.497 7 -14682951.93422        23.000           2.406
  20791765.023    -1148250.697 6   -894738.18522        16.750           1.594
  22344171.413    -6029261.933 6  -4507323.76421        15.000           0.906
  19290554.132   -26381011.902 7 -20556587.15123        25.000           2.781
 91  7 26  3 55 14.9950000  0  4G21G17G11G23
  20104589.327   -19131637.613 7 -14709976.91722        23.500           2.344
  20797425.671    -1118513.279 6   -871566.18922        17.000           1.594
  22333210.413    -6086852.821 6  -4552199.73321        14.500           0.813
  19292311.905   -26371777.264 7 -20549391.33223        25.500           2.781
 91  7 26  3 55 29.9950000  0  4G21G17G11G23
  20098003.655   -19166241.924 7 -14736941.29022        23.750           2.313
  20803095.999    -1088713.020 6   -848345.22822        17.500           1.594
  22322255.765    -6144394.628 6  -4597037.45621        14.000           0.844
  19294083.624   -26362462.573 7 -20542133.12623        25.250           2.781
 91  7 26  3 55 44.9950000  0  4G21G17G11G23
  20091432.382   -19200771.514 7 -14763847.42822        23.500           2.156
  20808779.843    -1058853.062 6   -825077.74722        17.250           1.531
  22311317.960    -6201889.979 6  -4641838.98221        14.250           0.938
  19295870.929   -26353071.066 7 -20534815.07223        25.000           2.875
 91  7 26  3 55 59.9950000  0  4G21G17G11G23
  20084878.937   -19235220.336 7 -14790690.64122        24.750           2.281
  20814471.124    -1028927.452 6   -801759.11322        16.500           1.594
  22300386.132    -6259332.605 6  -4686599.44021        14.750           0.813
  19297673.608   -26343596.929 7 -20527432.61823        24.500           2.813
 91  7 26  3 56 14.9950000  0  4G21G17G11G23
  20078337.733   -19269586.065 7 -14817469.10422        23.500           2.250
  20820181.233     -998934.144 6   -778387.70522        17.250           1.594
  22289466.101    -6316719.891 6  -4731316.76621        15.500           0.938
  19299492.366   -26334038.004 7 -20519984.10223        25.000           2.906
 91  7 26  3 56 29.9950000  0  4G21G17G11G23
  20071813.733   -19303871.288 7 -14844184.84822        23.500           2.219
  20825903.085     -968875.363 6   -754965.28621        17.250           1.469
  22278558.812    -6374053.867 6  -4775992.55921        16.500           0.938
  19301327.194   -26324396.916 7 -20512471.56123        24.250           2.844
 91  7 26  3 56 44.9950000  0  4G21G17G11G23
  20065305.335   -19338078.411 7 -14870839.72222        24.000           2.250
  20831633.577     -938753.923 6   -731494.03622        16.750           1.531
  22267659.374    -6431336.641 6  -4820628.46021        16.000           0.938
  19303174.991   -26314676.493 7 -20504897.19923        23.500           2.813
 91  7 26  3 56 59.9950000  0  4G21G17G11G23
  20058808.312   -19372210.465 7 -14897436.10522        24.250           2.281
  20837375.171     -908573.147 6   -707976.55922        16.500           1.531
  22256764.741    -6488570.971 6  -4865226.59221        16.000           0.938
  19305040.546   -26304880.174 7 -20497263.70123        24.500           2.781
 91  7 26  3 57 14.9950000  0  4G21G17G11G23
  20052329.304   -19406262.309 7 -14923970.00722        24.750           2.313
  20843131.343     -878327.687 6   -684408.66921        17.000           1.406
  22245884.437    -6545751.448 6  -4909782.77221        16.250           0.969
  19306919.671   -26295002.951 7 -20489567.15223        23.750           2.781
 91  7 26  3 57 29.9950000  0  4G21G17G11G23
  20045863.991   -19440234.190 7 -14950441.59022        25.500           2.281
  20848898.944     -848017.771 6   -660790.53022        17.000           1.531
  22235012.218    -6602877.977 6  -4954296.92021        15.250           0.906
  19308815.163   -26285045.210 7 -20481807.87123        23.750           2.844
 91  7 26  3 57 44.9950000  0  4G21G17G11G23
  20039419.944   -19474119.722 7 -14976845.88322        26.250           2.281
  20854678.265     -817637.572 6   -637117.66422        16.500           1.531
  22224153.304    -6659943.743 6  -4998763.71221        15.250           0.938
  19310726.429   -26275000.521 7 -20473980.83623        24.000           2.656
 91  7 26  3 57 59.9950000  0  4G21G17G11G23
  20032980.616   -19507933.562 7 -15003194.31022        24.500           2.344
  20860471.116     -787201.486 6   -613401.24121        16.500           1.438
  22213304.952    -6716963.081 6  -5043194.33321        16.250           0.844
  19312652.444   -26264883.767 7 -20466097.64523        24.750           2.625
 91  7 26  3 58 14.9950000  0  4G21G17G11G23
  20026561.952   -19541671.750 7 -15029483.80122        25.000           2.375
  20866277.054     -756705.714 6   -589638.31622        16.500           1.531
  22202464.179    -6773931.697 6  -5087585.43221        16.000           0.844
  19314590.444   -26254691.169 7 -20458155.35623        24.250           2.813
 91  7 26  3 58 29.9950000  0  4G21G17G11G23
  20020159.937   -19575335.517 7 -15055715.28922        25.750           2.375
  20872087.148     -726151.432 6   -565829.80921        15.250           1.438
  22191630.304    -6830850.544 6  -5131937.74621        15.500           0.938
  19316545.585   -26244424.408 7 -20450155.28023        24.750           2.750
 91  7 26  3 58 44.9950000  0  4G21G17G11G23
  20013765.812   -19608922.460 7 -15081886.91022        24.500           2.438
  20877912.694     -695536.678 6   -541974.17321        16.000           1.406
  22180813.069    -6887716.830 6  -5176249.10021        17.000           1.125
  19318514.804   -26234081.355 7 -20442095.75323        25.500           2.844
 91  7 26  3 58 59.9950000  0  4G21G17G11G23
  20007388.327   -19642429.491 7 -15107996.26522        24.250           2.406
  20883751.991     -664858.278 6   -518068.93921        15.750           1.438
  22170000.319    -6944527.176 6  -5220516.87221        17.000           1.188
  19320496.929   -26223659.036 7 -20433974.46023        25.000           2.844
 91  7 26  3 59 14.9950000  0  4G21G17G11G23
  20001028.140   -19675851.945 7 -15134039.72222        24.750           2.438
  20889602.343     -634111.389 6   -494110.33421        16.000           1.344
  22159199.624    -7001276.459 6  -5264737.05821        17.000           1.094
  19322496.108   -26213152.791 7 -20425787.77623        24.500           2.844
 91  7 26  3 59 29.9950000  0  4G21G17G11G23
  19994682.163   -19709193.527 7 -15160020.16422        24.750           2.375
  20895464.835     -603299.949 6   -470101.43221        16.250           1.469
  22148413.687    -7057968.182 6  -5308912.39221        16.750           1.031
  19324510.515   -26202566.717 7 -20417538.89023        25.000           2.813
 91  7 26  3 59 44.9950000  0  4G21G17G11G23
  19988354.265   -19742455.049 7 -15185938.21323        24.250           2.500
  20901344.483     -572425.024 6   -446043.04921        17.500           1.406
  22137633.991    -7114602.716 6  -5353043.18221        16.750           1.000
  19326540.452   -26191901.715 7 -20409228.49423        25.000           2.813
 91  7 26  3 59 59.9950000  0  4G21G17G11G23
  19982038.468   -19775639.831 7 -15211796.47122        24.500           2.313
  20907228.468     -541490.053 6   -421937.89521        16.750           1.375
  22126867.069    -7171183.106 6  -5397131.76821        16.750           1.125
  19328583.437   -26181161.387 7 -20400859.40723        24.750           2.844
